ECMWFNIL_sfc_temp_000.txt.gz
Temp
63 62 63 63 63 62 62 61 62 60 60 60 60 61 61 62 61 60 60 61 61 62 63 63 64 65 67 69 70 70 71 71 71 71 70 69 70 69 68 67 66 67
61 61 61 61 62 61 62 61 60 60 60 61 61 63 62 61 61 60 59 59 60 60 62 62 62 64 65 66 68 69 71 70 70 72 71 70 68 68 68 68 68 68
62 61 60 60 61 60 59 60 60 60 61 62 61 61 61 62 60 60 59 59 59 59 60 60 61 63 64 65 66 67 68 70 70 72 72 71 71 70 71 71 70 69
61 61 61 60 61 60 60 60 61 60 61 60 61 62 61 61 61 59 58 58 59 59 59 59 59 60 61 63 64 66 67 68 71 72 71 71 72 70 69 70 69 70
61 61 61 61 61 61 60 60 59 60 60 61 60 61 60 61 59 59 58 58 58 58 57 57 58 59 60 61 62 63 64 66 69 71 71 71 72 71 71 70 70 70
61 62 62 61 61 60 59 60 59 60 60 60 61 61 61 60 59 58 58 57 57 57 56 57 57 58 60 60 62 62 64 65 67 69 70 71 72 72 72 71 71 70
61 61 60 61 61 60 59 59 60 60 59 59 60 59 59 58 58 58 57 56 56 56 56 56 56 56 58 58 59 61 63 65 66 67 68 70 71 72 73 73 72 72
60 61 61 62 60 60 59 60 61 59 59 58 57 57 58 58 58 57 56 55 55 55 55 56 56 56 57 58 57 57 58 62 64 66 66 67 69 72 73 73 72 71
61 60 61 60 59 60 59 60 60 59 59 57 57 57 58 57 56 56 55 55 55 54 54 54 55 55 55 55 56 56 56 58 60 63 64 65 67 70 73 74 73 72
60 61 60 60 59 60 60 61 59 59 59 58 58 57 56 56 56 56 55 54 53 53 53 53 53 53 54 55 55 56 56 56 57 59 62 64 65 68 70 71 72 72
60 60 59 59 59 60 60 59 59 59 59 58 57 55 55 54 54 55 54 53 52 53 53 52 52 53 53 53 54 55 55 56 56 57 59 61 64 66 65 69 71 72
60 59 59 59 59 60 58 59 59 59 58 56 55 54 54 54 54 54 53 53 52 52 52 52 52 52 52 52 53 53 54 55 56 57 58 60 61 64 67 69 70 72
60 59 59 59 58 58 58 59 59 57 56 56 56 55 54 54 54 54 53 52 52 53 52 52 52 52 52 52 52 53 53 54 55 57 58 59 61 63 66 68 70 71
60 60 59 59 58 58 58 57 56 56 56 57 57 56 54 54 53 52 53 53 52 52 52 52 52 52 52 52 52 52 52 53 54 55 57 59 61 63 64 66 68 70
60 59 60 59 58 57 56 55 55 55 56 56 56 55 54 54 53 53 53 52 52 52 52 52 52 51 52 52 52 52 53 52 53 54 55 57 60 62 64 66 68 70
60 59 59 58 56 54 55 55 55 55 55 55 55 55 54 54 53 53 52 51 50 51 51 50 50 51 50 47 47 51 53 54 54 55 55 56 58 61 64 66 67 70
60 59 59 56 54 53 54 55 56 55 55 55 54 53 53 53 52 52 51 51 50 50 50 50 50 51 46 44 44 44 49 52 53 54 56 56 58 60 62 65 67 70
60 59 56 54 54 54 54 55 55 55 54 53 52 52 52 52 51 51 51 51 50 50 49 49 50 47 44 44 43 43 44 49 51 52 54 56 58 60 62 65 67 68
59 58 56 54 54 55 55 56 56 54 53 51 51 51 51 50 50 50 50 50 50 49 49 50 50 47 44 43 43 42 42 44 49 50 51 54 56 58 61 64 66 67
58 56 54 54 53 54 55 55 54 52 51 51 50 50 49 49 48 48 48 48 49 48 48 49 49 47 44 43 43 42 41 42 49 49 50 53 56 58 58 62 66 67
57 56 54 53 53 54 54 53 52 51 50 50 49 48 48 47 46 46 47 47 48 48 47 47 48 45 43 43 42 42 41 41 48 48 49 51 54 57 58 58 64 67
56 55 53 53 54 54 53 52 51 50 48 48 47 47 47 47 46 46 45 46 47 48 47 47 48 44 43 42 42 41 41 45 47 48 48 49 52 56 59 60 61 64
56 55 53 53 53 53 52 51 50 49 48 49 47 46 46 46 45 45 46 46 46 47 46 46 48 46 43 42 42 41 42 47 47 47 48 49 51 53 57 59 60 64
57 56 53 53 54 52 51 50 49 49 50 49 47 46 46 46 46 46 46 46 45 45 46 45 46 46 43 42 42 41 43 47 47 47 48 49 50 53 55 58 60 55
56 55 54 53 53 52 50 48 48 49 50 50 48 47 46 46 46 45 45 45 45 45 45 44 45 45 43 42 42 42 43 46 47 47 47 48 50 52 54 56 59 58
58 56 54 53 53 51 50 49 50 50 49 48 47 47 45 46 46 44 43 44 45 45 45 45 44 46 46 43 42 42 42 46 47 46 46 48 50 52 54 56 58 62

ECMWFNIL_sfc_temp_003.txt.gz
Temp
68 69 68 68 68 69 68 67 67 67 67 67 66 67 67 67 68 66 66 66 65 65 65 66 66 66 67 67 67 68 70 69 71 72 73 72 71 70 69 69 69 70
67 68 69 69 69 68 68 67 66 66 66 66 66 67 67 67 66 66 65 64 65 65 65 65 65 66 66 66 66 66 67 69 69 72 71 71 71 71 69 69 69 69
67 66 66 66 67 67 66 66 66 65 65 66 66 66 66 66 65 66 65 65 64 64 64 64 64 64 64 65 65 65 65 66 67 70 71 71 72 72 71 70 69 68
67 66 66 66 66 66 65 65 65 65 65 65 65 66 66 65 65 64 64 64 64 63 63 64 63 64 64 64 64 64 64 65 67 69 69 70 71 72 72 72 70 69
66 66 66 66 66 66 65 65 64 65 65 65 65 65 65 64 64 65 64 64 64 64 63 63 63 63 63 62 63 62 63 63 65 66 68 68 70 71 72 72 71 69
67 68 67 66 66 65 64 64 64 64 64 63 63 64 64 65 65 64 64 63 64 63 62 62 62 62 62 61 61 60 62 63 64 65 65 67 69 71 73 72 72 71
66 66 66 66 65 65 64 64 64 64 64 64 65 64 65 64 63 63 64 63 63 63 63 62 61 60 61 60 59 59 60 61 63 65 65 66 68 68 71 72 73 73
65 66 66 66 65 64 63 64 64 64 64 65 64 64 65 63 63 63 63 63 63 62 61 61 60 60 60 60 59 58 58 59 60 62 62 63 65 67 69 70 71 73
66 65 65 64 64 64 64 64 64 64 65 64 64 64 64 64 63 63 64 64 62 61 60 60 60 60 59 59 58 58 58 58 58 60 60 60 61 64 68 70 69 70
65 65 65 64 63 64 63 64 64 64 65 64 65 63 63 63 63 63 62 61 60 60 59 59 58 58 58 58 58 58 58 58 58 59 60 61 60 61 63 66 69 69
64 65 64 63 63 63 63 63 64 64 64 65 64 63 63 62 62 62 60 60 58 58 58 58 58 58 58 58 58 58 58 57 57 58 59 61 62 62 60 62 64 67
64 64 64 63 63 63 63 63 63 63 63 63 64 63 62 61 60 60 59 58 58 58 58 59 59 58 58 58 57 57 57 57 57 58 58 60 61 62 62 62 62 65
65 64 64 63 63 63 63 63 63 63 63 63 63 62 61 60 60 60 59 59 58 58 58 58 58 58 57 57 56 56 56 56 56 57 57 57 59 61 61 62 62 64
65 65 64 64 63 63 63 63 63 62 62 62 62 61 59 59 59 58 58 59 58 58 58 58 57 57 57 57 57 56 55 55 55 55 55 55 56 59 60 62 63 64
65 65 64 64 63 63 63 62 62 61 61 61 60 59 58 59 59 58 58 57 58 58 57 57 56 55 56 57 56 56 56 56 55 55 54 54 55 56 58 60 63 64
65 64 64 63 63 62 62 61 60 60 60 60 59 59 59 59 58 58 58 57 56 57 57 56 56 56 53 49 49 54 56 56 55 55 55 54 54 55 57 59 61 63
65 65 64 63 63 62 61 60 60 59 58 58 58 58 57 57 56 56 56 56 56 55 55 55 55 56 49 46 45 45 50 52 53 53 54 54 54 54 54 57 59 62
65 64 64 63 62 63 61 61 60 59 58 58 57 56 56 56 55 55 55 55 54 54 54 54 54 51 47 46 44 44 45 51 52 51 51 52 53 54 56 57 58 59
65 64 63 62 62 62 60 58 58 58 58 57 56 55 54 54 54 54 53 54 53 53 53 54 54 50 46 45 44 43 43 45 51 50 50 50 51 53 54 56 58 59
64 63 62 62 62 61 59 58 58 57 57 57 55 54 53 52 52 52 52 52 52 52 52 53 53 50 46 45 44 43 42 43 49 50 50 50 50 51 52 53 55 58
64 63 62 61 61 60 58 58 57 57 57 56 54 53 52 52 51 51 51 51 51 51 50 50 51 46 44 43 43 42 42 42 49 49 49 49 50 50 51 52 54 56
63 62 62 61 60 59 58 57 57 57 55 54 53 53 53 53 53 52 51 50 51 51 50 49 51 45 44 43 43 42 42 47 49 48 48 48 49 50 50 52 53 54
63 62 61 60 60 58 58 58 56 55 54 54 52 52 52 52 51 51 52 51 51 51 49 49 50 47 44 43 42 41 42 47 48 48 48 48 48 49 50 51 52 53
63 63 61 60 60 59 58 57 56 55 54 53 52 52 51 51 51 51 52 51 50 49 50 48 49 48 44 43 42 42 43 46 47 47 47 47 48 49 50 51 51 49
63 62 61 60 59 58 57 55 55 54 54 53 52 51 51 51 51 50 50 51 51 50 48 48 48 48 44 43 42 42 44 47 47 46 45 46 47 48 49 49 51 50
62 61 61 60 59 58 56 55 55 54 53 51 51 51 50 50 50 50 49 49 50 49 48 48 47 48 47 43 43 42 41 45 46 44 43 44 46 47 47 49 50 51

ECMWFNIL_sfc_temp_006.txt.gz
Temp
66 65 65 64 64 66 65 64 65 64 64 64 63 64 64 64 65 64 64 63 62 62 62 62 62 62 63 62 63 63 63 63 63 64 65 65 65 66 66 66 65 64
65 65 65 65 65 65 65 64 64 64 63 64 64 64 64 64 64 64 63 62 62 62 62 62 62 62 62 61 61 61 62 62 62 65 64 64 65 66 65 66 65 65
65 64 64 64 63 64 64 64 64 63 63 63 64 64 63 64 63 63 62 61 61 61 61 61 61 61 61 61 61 60 60 61 61 63 63 63 64 64 65 66 65 64
64 64 64 64 64 64 63 63 62 62 62 62 62 63 63 64 63 61 61 62 61 61 60 60 60 60 61 61 60 60 60 60 62 62 61 62 63 64 64 65 66 66
64 64 64 64 64 64 63 62 62 62 62 62 63 63 62 61 60 61 60 60 60 60 60 60 60 59 59 59 59 58 59 59 60 60 60 60 61 63 64 65 65 65
64 65 65 64 63 62 62 62 62 62 62 61 61 61 61 61 61 61 60 59 60 60 60 60 60 59 59 59 58 58 58 58 59 59 59 60 61 62 64 65 65 65
63 63 63 64 63 63 62 62 62 62 61 61 62 60 61 60 61 61 61 60 60 60 60 59 59 58 58 58 57 57 58 58 58 58 58 59 60 61 63 64 64 65
63 64 64 63 62 62 62 62 62 61 61 61 60 61 61 61 61 61 60 60 60 60 59 59 59 59 58 58 57 56 56 57 57 57 57 57 58 59 61 62 63 63
64 63 63 62 62 61 61 62 61 61 62 60 60 60 61 61 61 60 61 61 60 60 60 59 59 58 58 57 57 56 56 56 56 57 56 56 56 57 59 61 60 61
63 63 62 62 61 61 61 61 62 61 62 61 61 61 61 61 61 61 60 60 59 59 59 59 58 58 58 58 57 57 57 56 56 56 56 56 56 57 58 58 58 59
62 63 62 61 61 61 61 61 61 61 61 62 61 60 61 60 61 61 60 60 58 59 58 58 58 58 58 58 57 57 57 56 56 56 56 56 57 57 57 58 58 58
62 62 62 61 61 61 61 61 61 61 61 60 61 60 60 60 59 60 60 59 59 59 59 59 59 58 58 58 58 57 57 56 56 56 56 56 56 56 56 57 57 58
62 62 61 61 61 61 61 61 61 60 60 60 60 60 59 58 59 59 59 58 59 59 58 58 58 58 57 57 58 58 57 56 55 55 55 55 55 56 56 57 57 58
62 62 62 62 61 61 61 60 60 60 59 59 59 58 58 58 58 58 57 58 57 57 57 57 57 57 57 57 57 57 56 56 55 55 54 54 54 55 55 56 56 57
62 63 62 62 61 61 60 59 59 59 59 58 58 57 58 58 58 58 57 57 57 57 57 57 56 56 56 57 56 56 56 55 55 55 54 54 54 55 55 55 55 55
63 62 62 61 61 60 59 59 59 58 57 57 57 58 57 57 57 57 57 56 56 56 56 55 55 55 53 50 49 54 55 55 54 54 54 54 54 54 54 55 55 55
63 62 62 61 60 60 59 59 59 58 57 57 57 57 56 56 56 55 55 55 55 54 54 53 54 55 49 45 45 44 49 52 52 53 53 52 52 52 52 53 54 55
63 62 61 61 60 60 59 59 58 57 57 56 56 55 56 55 54 54 54 53 53 53 53 53 53 50 46 45 44 44 45 49 51 51 51 51 52 51 51 51 52 53
63 62 61 60 60 60 59 58 57 56 56 55 55 55 54 53 53 53 53 53 52 52 52 52 52 49 45 45 44 43 42 44 48 49 50 50 51 51 51 51 51 51
63 62 61 60 59 59 58 57 56 55 55 55 55 54 53 52 51 52 52 52 52 52 51 52 51 49 45 45 44 43 43 43 47 47 48 49 50 50 50 50 50 50
62 61 60 59 59 59 57 56 55 54 55 55 54 52 51 50 51 51 51 51 51 52 51 51 51 47 45 44 44 43 43 44 47 47 47 48 49 49 50 50 50 50
62 60 59 59 58 57 57 56 55 54 53 54 53 52 52 51 51 51 51 51 51 51 50 50 51 46 43 42 42 42 41 46 48 47 47 47 47 48 49 50 50 50
61 60 59 58 58 57 56 55 54 54 53 53 51 51 50 50 50 50 51 51 50 50 50 49 50 48 44 43 43 42 42 46 46 46 46 46 47 48 48 49 49 50
61 61 59 58 57 57 56 55 55 53 53 53 51 49 49 49 50 50 50 50 50 49 49 48 49 48 45 44 43 42 43 45 45 45 45 45 46 47 48 48 49 48
61 60 59 58 57 56 55 54 53 52 52 52 51 50 49 50 50 49 49 49 50 49 49 48 48 48 45 43 43 42 44 46 45 45 44 44 44 45 47 47 48 48
60 58 58 57 56 55 55 54 54 53 51 51 49 49 49 49 49 48 47 47 48 48 48 48 47 48 47 43 43 43 43 45 45 43 42 43 44 44 44 45 46 47

ECMWFNIL_sfc_temp_009.txt.gz
Temp
58 58 58 57 56 58 58 57 57 57 56 54 54 54 55 55 57 57 56 56 57 57 56 56 56 55 57 55 55 56 56 57 57 57 58 58 58 58 59 59 59 60
58 58 59 58 57 57 57 57 56 56 55 54 54 54 55 56 56 55 55 56 56 56 55 55 55 55 54 55 54 54 55 56 55 59 57 57 58 58 58 58 58 59
57 57 57 57 57 55 56 57 56 54 54 54 54 54 55 55 56 56 54 54 54 54 54 54 53 54 54 54 54 53 54 53 54 55 56 56 56 56 57 58 58 58
57 58 58 57 56 56 55 56 55 54 54 55 53 54 55 57 55 55 54 58 54 53 53 53 53 54 53 53 53 53 52 52 53 53 54 55 56 57 57 58 58 59
58 57 57 57 56 56 56 56 55 54 53 54 53 54 54 54 54 54 53 53 52 52 52 53 52 52 52 51 52 52 52 53 52 52 52 53 54 55 57 57 57 57
57 57 57 57 55 55 56 55 55 54 54 53 53 53 52 53 52 53 52 52 52 52 52 51 51 52 51 51 51 50 51 52 51 51 52 52 53 55 56 56 56 57
57 56 56 56 55 54 55 54 53 54 53 53 53 53 52 52 52 52 52 52 51 52 52 51 51 51 51 51 51 50 49 50 50 51 51 52 52 53 54 55 56 56
57 56 56 56 55 54 55 54 53 53 52 52 52 51 52 51 51 51 51 52 51 51 50 50 51 51 50 50 50 49 48 51 51 51 51 51 52 53 54 54 54 54
57 56 56 55 54 54 54 54 53 52 53 52 51 51 52 52 52 52 53 51 51 51 50 50 50 49 49 50 49 48 48 48 50 50 50 51 51 53 54 55 53 53
56 56 56 54 54 53 54 53 53 52 53 53 52 52 52 52 51 51 51 50 50 50 50 49 50 50 50 49 50 49 49 50 51 52 53 52 52 53 54 54 54 53
55 56 55 54 54 53 53 53 53 53 52 52 51 51 51 51 51 52 52 51 51 50 49 49 49 49 49 49 49 49 51 52 53 53 53 53 53 53 54 54 54 54
55 55 54 54 53 53 53 53 53 52 51 52 51 50 50 51 51 50 52 50 49 49 49 49 49 49 49 49 50 52 54 54 55 55 55 55 55 54 54 55 54 54
55 55 54 54 54 53 53 52 52 51 52 51 51 51 50 50 50 50 49 50 49 49 49 49 49 50 50 51 51 52 53 53 53 53 54 54 54 55 55 55 54 54
55 54 54 54 54 53 53 52 52 51 51 50 51 50 50 50 50 50 48 49 48 49 49 49 48 48 49 49 50 51 51 51 52 52 53 53 54 54 54 54 54 54
54 55 54 54 54 53 52 52 51 50 49 49 49 49 50 49 49 48 48 48 47 48 48 48 49 50 51 52 52 53 54 53 53 53 53 53 53 53 54 54 54 54
55 55 54 53 53 52 51 50 50 49 49 48 48 48 48 48 47 48 48 47 47 47 47 48 48 48 50 47 46 49 50 51 51 51 52 51 51 52 52 53 53 53
55 54 53 53 52 51 49 50 50 50 48 47 48 47 47 46 48 46 46 47 47 46 45 46 47 49 47 44 43 44 46 47 48 48 49 49 50 50 50 51 52 53
54 53 52 52 51 50 50 50 49 48 47 46 46 47 46 47 47 45 46 45 45 45 44 45 45 48 45 44 44 43 44 46 47 47 47 47 48 48 49 49 50 51
53 53 52 51 51 51 50 50 48 47 46 46 46 45 46 46 45 45 45 44 44 43 42 44 44 46 44 44 44 43 44 45 47 46 45 46 46 46 47 47 48 48
53 52 51 50 50 50 49 48 46 45 44 44 45 46 45 44 44 45 43 43 43 43 43 43 44 46 44 44 44 43 43 43 47 47 47 47 47 47 46 46 47 47
53 52 50 49 48 48 46 45 45 43 44 44 44 43 42 44 43 42 42 43 41 41 42 43 46 45 43 42 42 41 41 41 44 45 46 46 47 47 47 47 47 47
53 51 50 48 47 45 45 45 44 44 43 44 43 41 42 40 40 42 41 40 41 41 41 42 44 43 42 42 41 41 41 43 44 45 44 44 44 45 46 47 48 48
53 51 50 48 47 46 44 44 43 44 43 41 39 39 39 39 40 41 41 40 40 40 41 42 42 43 42 42 42 42 41 44 43 43 43 42 43 44 45 46 46 47
53 51 48 47 45 45 44 43 42 41 42 41 40 38 39 41 41 40 39 40 40 40 42 43 43 44 43 42 42 41 42 42 42 41 41 42 42 44 44 45 45 47
53 50 48 46 45 43 43 42 43 43 42 41 40 38 39 39 41 39 38 39 40 42 46 45 44 45 43 42 42 41 42 42 41 41 40 41 42 42 43 43 44 45
50 49 46 45 44 43 42 44 43 41 40 40 38 39 38 38 39 38 37 38 39 41 42 43 43 44 45 43 42 42 42 42 42 41 40 40 41 41 41 42 43 44

ECMWFNIL_sfc_temp_012.txt.gz
Temp
57 56 56 55 55 56 55 54 53 55 54 53 52 53 52 53 53 53 52 51 52 51 52 53 53 53 54 52 52 53 53 53 52 52 52 52 52 52 54 53 54 54
56 57 57 56 55 56 55 55 55 55 54 53 53 52 51 52 52 52 52 51 53 51 51 52 53 54 52 53 53 53 53 51 50 54 52 51 51 51 51 51 52 53
55 55 56 55 55 54 55 55 55 54 54 53 52 53 54 52 51 51 50 50 52 52 52 51 51 51 51 50 51 51 51 50 51 50 51 50 51 51 51 51 52 52
56 56 57 56 55 55 54 54 52 53 53 53 53 54 54 55 51 51 51 55 49 51 50 51 51 51 50 50 50 50 50 50 50 50 50 50 51 51 51 51 52 53
56 56 56 56 55 55 54 55 53 53 53 54 52 52 54 51 50 50 50 51 50 50 49 50 49 49 49 48 49 49 49 49 49 49 49 49 50 50 51 51 50 51
56 56 56 56 55 54 53 54 54 53 53 51 53 53 51 51 50 50 50 49 49 49 49 48 48 48 48 48 47 48 48 50 48 48 48 48 49 49 52 51 49 50
56 55 55 55 54 54 54 53 53 54 53 53 51 51 50 50 50 49 49 49 49 49 49 49 48 48 48 48 48 48 46 47 47 47 47 48 48 48 49 49 50 50
56 55 55 54 54 53 53 53 52 52 52 51 51 51 50 50 49 48 49 49 48 48 48 48 47 47 47 47 47 47 45 48 48 46 46 47 47 47 48 50 49 50
56 55 54 53 53 52 53 52 52 51 51 52 51 49 49 50 50 48 49 48 48 48 47 46 46 46 46 47 46 46 46 46 48 46 47 47 47 47 48 50 50 50
55 55 54 53 53 52 52 51 51 51 51 51 50 49 50 49 48 48 48 47 48 47 47 46 46 46 46 45 46 46 45 47 46 46 47 47 48 49 50 51 52 51
55 54 54 53 53 52 52 51 51 51 51 51 49 49 49 48 49 48 47 47 47 46 47 46 46 46 45 45 45 46 46 47 46 47 47 48 50 52 53 53 53 52
54 54 54 53 53 52 52 52 51 51 50 50 50 49 47 47 46 46 47 45 45 45 45 46 45 45 46 45 45 46 46 46 47 47 48 49 49 50 51 52 52 53
54 54 54 53 52 52 52 51 51 50 50 50 49 49 47 46 45 46 47 47 46 45 46 46 46 46 46 45 45 45 45 45 46 46 48 50 51 51 52 53 53 53
55 54 53 53 52 52 51 51 51 50 50 49 48 47 46 45 45 47 46 46 44 45 45 45 45 46 45 45 45 45 45 45 45 46 47 49 51 52 52 53 53 54
54 53 53 52 52 51 51 50 50 49 49 48 47 46 47 44 44 46 46 46 45 44 44 45 45 45 45 45 44 44 44 44 44 45 45 47 48 49 50 51 52 52
52 53 52 52 51 51 50 50 49 48 48 47 46 46 45 45 45 45 45 45 44 44 44 45 45 45 47 47 46 45 44 45 45 44 45 45 45 45 46 47 49 50
51 52 52 51 51 50 49 49 48 48 47 45 45 44 44 46 46 45 44 42 43 44 42 43 44 45 46 44 43 44 45 44 43 44 44 44 44 44 44 45 46 47
52 52 52 51 51 50 49 49 48 47 46 44 43 44 44 43 44 43 41 42 42 42 41 42 42 46 43 43 43 42 44 45 44 43 44 44 44 44 44 44 44 45
52 52 51 50 51 50 50 49 47 45 44 43 43 43 42 43 40 40 41 41 42 42 40 40 41 43 42 43 42 42 42 43 43 44 45 45 44 44 43 44 44 44
52 51 50 50 50 50 49 48 46 46 43 42 43 42 40 39 39 39 39 40 41 41 40 39 40 43 42 42 42 41 40 40 42 42 43 44 44 44 45 44 44 44
51 51 50 50 50 50 48 46 46 42 42 41 41 40 40 40 39 38 40 40 39 38 38 39 42 43 41 41 41 41 41 41 41 42 43 43 43 43 43 43 43 43
50 49 49 48 48 47 46 45 43 43 42 42 40 39 38 39 37 37 38 38 37 36 37 37 40 41 41 41 41 41 41 42 41 41 41 41 41 41 42 42 42 42
50 49 48 47 46 45 44 43 42 41 41 41 41 39 39 38 38 36 37 37 36 38 37 38 38 41 41 41 41 41 41 41 40 40 40 39 40 41 41 41 42 42
50 49 48 46 45 44 43 42 42 42 41 41 40 38 37 36 36 36 36 36 38 38 38 38 38 41 42 41 41 41 41 41 41 40 39 39 39 40 40 41 42 45
49 48 47 45 44 44 45 43 43 43 41 39 38 38 37 36 38 35 36 35 36 37 43 41 39 42 42 41 41 41 41 41 40 40 39 39 39 39 40 40 41 43
48 47 47 46 46 44 44 44 42 41 39 39 37 37 38 34 37 36 35 36 36 36 38 38 39 40 42 41 41 41 41 41 40 39 38 38 39 39 39 39 40 41

ECMWFNIL_sfc_temp_015.txt.gz
Temp
56 55 55 55 55 54 53 53 51 53 52 51 51 51 52 52 51 51 50 49 50 50 49 49 50 50 52 50 51 51 51 50 49 49 49 49 48 48 50 49 48 49
55 55 56 55 54 54 53 54 53 53 53 51 52 50 49 50 50 50 50 50 50 48 49 50 50 50 49 49 49 50 50 49 48 52 49 48 48 48 49 48 49 49
55 54 54 54 55 54 53 53 53 53 52 52 50 50 51 50 50 48 48 48 49 49 48 48 49 49 50 49 49 48 48 48 48 48 49 48 48 48 48 48 48 49
55 56 56 56 55 55 53 53 52 52 51 51 51 52 52 53 50 49 49 52 47 49 47 49 49 48 48 48 48 48 47 47 47 47 48 47 48 49 47 48 49 48
55 55 55 55 55 55 53 53 53 52 52 52 50 50 53 51 49 49 48 47 47 48 48 48 47 47 48 48 48 48 48 48 47 47 47 47 46 48 48 49 47 47
55 56 55 55 54 54 53 53 53 53 52 50 51 52 51 50 49 49 48 47 47 48 48 47 47 47 46 46 45 46 45 47 46 45 47 46 46 46 48 48 47 46
55 54 54 54 53 53 54 53 53 53 52 53 51 51 50 49 49 48 47 48 47 48 48 47 47 47 46 46 45 46 45 45 44 45 46 46 46 46 46 46 46 46
56 55 55 54 53 53 53 52 52 52 52 51 52 51 50 50 49 48 47 47 47 47 47 46 46 45 44 44 45 45 44 46 46 44 44 45 44 45 46 47 46 45
56 55 54 53 53 52 53 52 52 51 51 52 51 50 49 50 50 49 48 46 46 46 45 46 45 44 44 45 44 44 44 44 45 44 44 45 45 46 46 46 46 46
56 55 53 53 53 53 52 52 51 51 51 51 51 49 49 49 49 48 47 46 46 45 45 45 45 44 44 44 45 44 44 44 43 43 43 44 45 46 46 46 47 46
55 54 53 53 53 52 52 51 51 51 51 51 49 49 49 48 47 46 46 45 46 44 44 43 43 43 44 44 43 43 43 43 43 43 44 44 45 46 48 47 47 47
55 53 53 53 53 52 51 51 51 51 50 50 50 50 48 48 48 46 47 45 44 44 44 43 42 42 42 43 43 43 43 43 43 43 44 44 45 45 46 46 47 47
55 54 54 54 53 52 51 51 51 50 50 49 49 49 48 46 45 46 45 45 44 44 44 44 43 42 42 42 42 42 42 42 42 42 43 43 44 45 45 45 46 47
55 55 54 54 52 51 51 50 50 50 50 49 48 47 47 46 45 46 45 44 44 44 43 43 42 42 41 40 41 41 42 42 42 43 44 43 44 44 45 46 46 47
53 51 51 51 51 51 50 50 50 49 49 48 48 47 47 46 46 45 44 42 41 42 43 42 42 43 42 43 42 41 41 41 42 43 43 43 43 43 44 45 45 45
50 49 49 50 50 51 51 50 49 48 48 47 47 46 46 45 44 43 43 42 42 40 40 42 42 41 46 46 45 43 41 42 43 42 42 42 42 42 43 43 44 44
51 50 49 49 50 49 49 50 49 49 48 46 45 45 45 45 43 41 40 41 42 41 39 40 41 43 45 41 41 42 42 41 41 41 41 41 41 41 41 42 43 43
51 52 51 51 51 51 50 50 49 48 47 45 44 44 43 42 41 41 41 41 40 39 38 40 41 45 42 42 41 41 43 42 40 40 40 40 40 40 41 41 41 42
51 51 52 51 51 50 50 50 49 48 46 44 45 44 41 41 41 42 40 40 40 39 38 39 40 42 42 41 41 41 41 42 40 40 40 40 40 40 40 41 41 42
51 51 51 50 50 49 48 48 47 46 45 45 44 42 40 40 41 41 40 39 38 38 38 37 37 41 40 41 41 40 40 41 40 40 40 40 41 41 41 41 41 41
51 50 49 48 48 49 48 48 47 45 44 44 44 42 41 41 40 40 39 40 39 37 36 36 39 42 40 40 40 40 41 41 40 40 40 40 40 40 40 41 41 41
50 48 48 48 49 48 48 47 44 45 43 42 40 38 39 39 37 39 39 37 37 36 36 36 37 39 39 39 40 40 41 41 39 39 39 39 39 40 40 40 40 40
50 49 49 49 49 48 46 44 42 41 42 42 41 39 39 39 39 38 38 37 36 36 35 35 35 38 39 40 40 40 40 39 39 39 38 38 38 39 39 40 40 40
49 48 48 48 47 46 44 42 42 42 42 42 42 40 40 40 40 39 37 37 36 35 35 35 35 38 40 40 40 40 40 39 38 37 37 37 37 38 38 39 40 43
48 49 48 47 46 44 43 42 43 43 41 41 41 41 42 40 40 39 37 36 36 36 42 39 35 37 40 39 40 40 40 39 38 37 36 36 36 36 37 38 39 41
48 48 46 45 43 42 42 42 42 41 40 39 38 40 40 38 39 38 37 37 35 36 36 36 35 35 38 39 40 40 40 39 38 36 35 35 36 37 37 38 40 40

ECMWFNIL_sfc_temp_018.txt.gz
Temp
53 53 54 53 54 54 53 52 51 52 52 51 52 51 52 52 51 52 51 51 52 52 52 52 52 53 52 50 51 52 52 51 51 49 51 51 50 50 51 51 50 51
53 54 55 54 53 54 53 53 53 53 53 51 52 51 50 51 51 52 51 51 53 51 51 51 51 51 50 51 51 51 50 49 50 52 49 50 50 49 50 49 51 50
53 53 53 53 54 53 53 52 52 52 53 52 51 51 51 51 51 50 52 52 51 50 50 50 50 51 50 50 50 51 49 49 49 50 51 50 49 50 51 50 49 50
53 54 54 54 54 54 53 52 51 52 51 51 51 51 52 52 51 50 51 54 50 50 49 49 50 49 49 49 49 49 49 49 49 49 50 49 48 49 49 49 50 50
54 54 54 54 54 54 53 53 52 52 52 52 51 50 52 51 50 51 51 50 50 49 49 49 48 49 49 48 48 48 49 49 47 47 48 49 47 50 50 50 49 49
54 55 55 55 55 53 52 53 53 53 52 51 51 51 51 52 51 51 51 50 49 49 48 47 48 47 47 47 47 47 47 47 47 47 47 48 48 48 49 49 49 48
55 54 54 55 54 53 54 53 53 53 53 53 51 51 51 51 51 51 50 50 49 50 49 48 48 47 47 46 47 46 46 46 46 47 47 47 48 48 48 48 49 49
55 55 55 54 54 53 54 54 53 53 52 52 52 52 51 52 51 51 50 49 49 48 47 46 46 46 45 46 46 45 46 47 46 46 46 46 47 47 47 48 48 48
56 55 55 54 54 54 53 54 53 52 52 52 52 50 50 52 51 50 49 49 48 46 46 46 46 46 45 46 45 46 47 46 46 46 47 46 46 46 47 48 47 47
56 56 55 54 54 54 53 53 52 52 52 52 52 50 50 50 50 50 49 48 48 46 46 46 45 45 45 45 46 46 46 47 45 46 45 46 46 46 46 47 47 47
56 55 55 54 54 54 53 53 52 52 51 52 50 50 50 49 49 48 48 48 48 47 46 45 46 45 45 45 45 45 46 45 45 45 45 46 46 46 48 48 47 47
56 54 55 55 55 53 52 52 52 52 51 51 52 51 49 49 49 48 49 47 46 46 46 46 45 45 45 46 44 44 44 44 45 46 46 46 46 46 46 47 47 47
55 54 53 53 53 54 53 53 52 52 51 51 51 51 50 48 48 48 48 47 46 46 46 46 45 44 44 44 44 43 44 45 44 44 45 45 46 46 47 47 47 47
54 53 53 54 54 53 52 51 51 51 51 51 51 50 50 49 48 48 47 47 46 47 46 45 44 43 42 42 43 43 44 44 44 45 45 45 45 45 46 46 46 47
53 53 53 53 53 51 50 49 48 49 49 50 50 50 50 49 48 47 46 45 45 44 44 45 45 45 44 44 44 44 43 44 43 44 43 43 44 44 44 45 45 46
53 53 53 53 52 50 49 48 49 50 50 50 49 49 49 48 47 47 47 46 44 43 44 45 45 44 47 45 45 46 43 43 43 43 43 42 43 43 43 44 44 44
51 52 52 51 50 49 49 50 51 51 50 49 48 48 48 48 47 46 45 45 45 44 44 44 44 45 44 40 41 42 43 42 42 42 42 42 42 42 42 43 44 44
50 50 49 49 49 50 51 51 51 50 49 49 48 46 46 47 46 46 44 44 44 44 44 44 43 45 41 40 40 41 43 44 42 42 42 41 42 41 42 42 43 43
50 49 49 48 49 50 51 51 51 50 49 48 47 47 45 45 45 44 44 44 44 43 43 44 44 43 41 41 40 40 40 41 41 41 41 41 41 41 41 42 42 42
50 49 48 48 48 49 50 51 50 49 49 49 47 45 45 44 43 43 43 43 44 44 43 43 42 43 40 40 40 40 39 40 42 41 41 41 41 41 41 42 42 42
49 48 48 47 48 49 49 49 49 48 48 47 46 45 43 42 42 42 43 43 43 42 42 42 42 42 40 40 39 39 39 40 41 40 40 40 40 40 41 41 41 41
48 48 47 47 47 48 48 49 48 48 46 44 45 44 44 44 43 44 43 42 41 41 41 40 39 39 39 39 39 39 39 41 40 39 39 39 39 40 40 41 41 41
48 48 47 47 47 47 47 47 46 45 43 45 44 43 42 42 42 42 43 41 40 39 40 39 37 38 39 39 39 39 39 40 39 39 38 38 38 39 40 40 40 41
48 48 47 47 46 47 47 46 45 44 43 44 42 42 42 43 43 42 40 41 40 39 39 38 38 38 39 39 39 39 40 39 38 37 37 37 38 38 39 39 40 41
48 47 47 47 46 46 44 43 42 43 43 44 44 45 43 43 42 42 39 39 39 38 42 39 37 39 40 38 39 39 40 39 38 37 36 37 37 37 38 39 39 40
47 47 46 46 45 44 44 42 42 41 41 41 42 43 42 41 41 41 40 39 39 40 41 38 37 36 38 38 39 39 39 40 39 37 36 36 37 37 37 38 39 40

ECMWFNIL_sfc_temp_021.txt.gz
Temp
66 67 67 67 67 68 67 66 66 66 66 67 67 68 67 67 66 66 66 66 65 65 65 65 65 64 64 64 64 65 64 62 63 63 62 62 61 60 59 59 59 60
65 65 67 67 67 67 67 66 66 66 66 66 67 67 67 67 65 66 65 65 65 65 65 65 65 64 64 65 64 64 64 63 62 63 61 61 61 61 59 59 59 59
65 64 65 65 66 65 65 65 66 66 67 66 66 66 65 65 65 66 66 65 65 64 64 64 64 64 64 65 64 64 63 62 62 63 62 61 61 61 61 61 60 59
64 65 65 66 66 66 66 65 64 65 65 65 65 65 65 64 65 64 64 65 65 64 64 64 64 64 65 64 64 64 63 63 63 62 61 62 61 61 60 61 60 60
65 65 65 66 66 67 66 65 64 65 65 65 65 64 65 64 64 64 64 64 65 64 64 64 64 64 64 64 64 63 62 62 61 62 62 60 61 60 60 60 59 59
65 66 66 66 66 66 65 65 65 65 65 64 64 65 65 65 65 65 64 64 64 64 64 64 64 63 64 63 63 63 62 62 61 61 61 60 61 61 61 60 59 58
65 64 64 66 65 65 65 66 66 65 65 65 65 64 65 64 65 65 66 65 65 65 65 63 63 62 63 63 63 62 62 61 61 61 61 61 60 59 60 59 59 59
64 65 65 66 65 65 64 66 66 65 65 65 64 64 65 65 66 65 65 65 65 65 64 64 63 63 62 63 62 60 60 60 60 60 60 59 59 59 59 59 58 58
65 65 65 64 64 65 65 65 65 65 65 64 64 64 64 66 66 65 65 66 65 64 64 63 63 63 62 62 62 61 60 59 59 60 59 58 58 58 59 59 58 57
65 65 64 63 63 64 64 65 65 65 64 64 65 65 64 65 66 66 65 65 64 64 64 63 63 62 62 63 62 62 61 60 60 59 59 58 58 58 59 58 57 57
64 65 64 64 63 64 64 64 65 65 64 64 64 64 64 64 64 65 65 65 63 64 64 63 63 63 62 61 61 61 61 60 59 59 58 58 58 57 56 57 57 57
63 64 64 64 64 64 64 65 65 64 64 63 64 64 64 64 64 64 65 65 65 65 65 64 64 63 63 62 61 60 59 59 59 58 58 58 58 57 58 57 56 57
65 65 64 64 64 64 64 65 65 64 64 63 62 61 60 61 63 64 64 65 65 64 64 63 63 63 62 61 60 60 59 59 57 57 57 57 57 57 57 57 56 56
65 66 66 65 65 65 65 65 65 63 62 62 61 60 58 60 61 62 63 65 64 64 64 63 62 62 61 61 60 59 59 58 57 56 56 56 55 56 56 56 56 56
64 65 65 65 65 64 62 62 60 60 60 60 59 59 59 59 58 59 58 61 63 62 61 60 61 60 60 60 59 58 58 57 56 56 55 54 54 55 55 55 55 55
63 63 64 64 64 63 62 61 60 59 59 59 58 57 56 55 55 55 56 54 55 56 54 55 57 59 53 49 51 58 58 57 55 55 55 54 53 53 54 54 55 55
61 62 62 63 63 63 61 61 61 60 60 60 59 57 55 55 55 55 54 54 55 56 55 56 56 55 44 43 44 46 55 55 55 54 54 53 53 53 53 53 54 56
61 61 61 61 62 62 61 62 61 61 61 61 58 55 56 55 54 55 56 56 55 56 55 55 55 47 42 42 42 42 47 55 54 54 53 53 53 53 53 53 53 53
61 60 61 61 61 61 62 61 61 61 61 60 58 57 56 55 55 55 55 55 55 56 55 55 55 43 42 41 41 40 41 48 55 53 53 52 52 52 52 52 51 51
60 60 60 60 60 60 61 61 60 60 60 60 59 57 55 55 56 55 54 54 55 55 55 55 55 44 41 41 40 39 38 44 53 52 51 51 51 51 50 50 50 50
59 59 59 59 60 59 59 60 60 60 60 59 58 56 54 54 56 55 55 55 55 55 54 54 53 41 40 39 39 39 37 42 52 50 51 51 51 50 50 49 50 49
59 59 59 59 59 59 59 59 59 59 58 58 57 56 55 54 54 54 53 54 55 55 54 52 48 39 39 39 39 39 38 51 52 51 50 50 50 50 50 50 50 49
58 58 58 58 58 58 58 58 58 58 58 58 56 55 55 54 52 52 53 52 52 53 53 52 50 42 39 39 39 37 43 53 51 52 51 50 50 50 50 50 49 49
58 59 58 58 58 57 57 57 58 59 58 56 56 54 52 52 51 51 51 51 51 52 54 52 51 44 38 39 39 38 43 51 52 51 50 50 50 50 50 50 49 45
58 58 58 58 58 57 57 57 57 57 56 54 54 52 50 49 47 45 45 48 49 49 48 50 49 45 38 38 38 38 44 52 52 52 49 49 49 49 49 49 49 47
58 57 57 57 57 57 57 57 56 53 51 50 48 47 45 45 45 46 46 45 46 48 48 49 48 48 46 37 38 38 39 48 50 49 48 48 48 48 46 48 48 48

ECMWFNIL_sfc_temp_024.txt.gz
Temp
76 76 75 76 76 76 75 75 75 74 74 75 74 74 74 73 73 72 72 72 72 71 71 70 70 69 70 70 70 71 71 68 69 68 67 67 66 65 64 64 64 66
74 75 76 76 77 77 76 76 75 75 74 74 75 75 75 74 72 73 72 71 71 71 71 70 70 70 70 70 69 69 69 68 67 69 66 65 66 65 64 64 64 65
74 74 74 74 75 75 75 75 75 75 75 75 75 75 74 74 72 73 72 72 71 71 70 70 70 70 70 70 69 70 69 68 67 68 68 67 67 66 65 65 65 63
73 74 74 74 75 75 75 75 75 75 75 75 74 75 74 73 73 72 72 71 72 71 70 70 70 70 71 70 69 70 69 69 69 68 67 67 67 67 66 66 65 66
73 73 74 75 75 75 75 74 74 75 75 75 74 74 74 73 72 72 72 71 71 71 71 70 70 70 70 70 70 69 68 68 67 68 68 66 67 66 66 66 64 64
74 75 75 75 75 74 74 74 74 74 75 74 74 75 74 73 73 72 72 71 71 71 70 71 70 70 70 70 69 69 68 69 67 67 67 66 66 66 67 66 64 64
72 73 73 75 74 74 74 74 74 75 75 75 75 74 74 73 73 74 74 72 72 72 72 70 70 69 70 69 69 68 69 68 67 68 67 67 66 64 65 65 65 65
72 73 73 74 73 73 73 74 74 74 74 75 74 74 74 74 75 74 74 73 73 73 72 72 71 71 70 69 69 67 67 67 67 67 67 67 65 66 65 65 63 64
72 73 73 72 72 72 72 73 74 74 75 73 74 74 75 74 74 74 74 74 74 72 73 72 71 71 69 69 68 68 67 66 66 67 66 65 64 65 67 66 64 63
71 72 72 72 71 72 72 73 74 74 74 73 74 74 74 74 75 75 74 74 73 73 73 72 71 70 69 69 69 68 68 67 67 66 66 65 65 66 66 64 64 63
70 70 70 70 69 71 71 72 73 73 73 74 73 72 74 73 73 74 73 73 72 73 73 72 71 71 70 69 69 68 68 67 66 67 65 65 65 64 61 64 63 63
69 68 69 69 68 69 69 71 71 72 73 73 74 73 72 71 71 71 71 72 73 73 73 73 72 71 71 70 70 68 68 67 66 66 65 65 65 64 64 64 62 63
69 69 69 70 70 70 71 72 73 73 73 73 74 73 72 70 70 70 70 70 72 72 72 72 71 71 70 70 69 69 67 67 65 65 64 64 64 64 64 63 63 63
70 71 71 69 69 70 70 70 71 72 72 72 73 71 71 71 70 69 70 71 70 70 70 71 71 71 71 70 70 68 67 66 65 64 64 63 62 63 63 62 62 62
70 71 71 71 71 71 70 70 70 70 70 70 70 70 70 71 71 70 70 69 71 70 69 69 67 65 66 64 64 65 67 65 65 64 63 63 62 62 62 62 62 62
70 70 71 72 71 71 72 71 72 71 70 70 70 70 70 70 71 71 70 69 68 67 68 65 62 63 59 53 56 66 66 65 63 63 63 62 61 61 61 61 61 62
70 70 71 71 71 71 71 72 72 70 69 69 69 69 67 68 69 70 70 69 67 67 67 64 62 61 48 47 48 52 62 62 61 61 62 61 60 60 60 60 61 63
70 71 71 70 70 71 72 72 71 71 70 69 68 68 68 68 66 68 67 68 68 68 66 63 64 48 44 45 46 47 52 62 61 61 59 60 60 60 60 60 60 60
70 70 70 70 70 70 71 70 70 70 70 69 68 68 68 67 68 67 68 68 67 66 64 64 61 44 43 44 43 43 45 54 62 60 59 59 59 59 59 59 59 58
68 69 68 69 69 69 69 69 69 69 68 69 69 69 67 67 67 66 67 67 66 65 63 62 56 44 42 42 42 42 41 49 61 58 58 58 58 58 58 58 58 58
67 67 67 67 68 68 68 68 68 68 68 68 68 68 67 66 66 66 66 66 65 64 62 59 52 41 41 41 41 41 39 45 59 57 57 58 58 57 57 57 57 56
66 66 66 67 67 67 66 66 66 66 66 68 68 68 68 68 67 67 65 64 63 62 59 54 48 40 40 41 40 40 40 56 58 57 57 58 58 58 58 58 58 58
66 65 65 66 66 66 66 65 65 66 66 68 67 67 66 66 66 66 65 62 60 58 54 49 47 42 40 40 40 38 44 59 58 59 59 58 57 58 58 58 57 58
66 66 65 65 65 65 65 65 66 66 66 67 66 65 65 65 65 64 63 59 56 54 51 48 47 43 40 40 40 39 45 57 59 59 58 58 58 58 59 59 58 50
66 65 65 64 64 65 64 64 64 65 66 67 66 66 64 65 65 63 59 56 53 51 49 50 48 44 40 40 40 39 46 56 57 57 56 56 57 57 58 58 58 54
65 64 64 64 64 64 64 64 65 65 64 63 63 64 64 63 62 59 53 51 51 50 49 49 48 48 45 39 40 39 39 51 54 54 54 54 55 56 55 56 56 57

ECMWFNIL_sfc_temp_027.txt.gz
Temp
78 77 77 77 77 77 76 76 76 75 75 76 76 75 75 75 75 74 74 74 74 73 73 72 72 71 72 72 72 74 73 70 70 70 70 69 68 67 67 67 67 68
77 77 78 77 77 78 77 77 76 76 75 76 77 77 76 75 74 74 74 73 73 73 73 72 72 72 72 73 72 72 71 70 69 71 68 68 68 68 66 66 67 68
77 77 77 77 77 77 77 77 77 77 76 76 77 77 76 75 74 74 74 73 73 73 72 72 72 72 72 72 71 72 71 70 69 70 70 69 69 69 68 68 67 67
76 77 77 77 77 77 77 77 76 76 77 76 76 76 77 75 74 74 74 73 73 73 72 72 72 72 73 72 71 72 71 71 71 70 69 69 69 69 69 69 68 68
76 76 77 77 77 78 77 77 76 77 76 77 76 76 76 75 74 74 73 73 73 73 73 72 72 72 72 72 72 71 70 71 70 70 70 69 69 69 68 68 67 66
77 78 78 77 77 77 76 76 76 76 77 76 76 77 76 75 75 74 74 73 73 73 73 73 72 72 72 72 71 71 70 71 70 70 70 69 69 69 70 68 67 66
75 76 76 77 77 77 76 76 76 77 77 77 78 76 77 75 75 75 75 74 74 74 74 72 72 71 72 71 71 71 70 71 70 70 70 70 69 68 69 69 68 68
74 74 75 76 75 76 75 76 75 76 76 77 76 77 77 76 76 75 75 75 75 75 74 74 73 73 72 72 71 70 70 70 69 69 69 70 68 68 68 68 67 67
72 72 71 72 73 74 74 76 75 76 77 75 75 76 77 77 76 76 76 76 75 75 75 74 74 74 72 71 71 71 70 69 69 69 69 68 67 68 69 69 66 66
70 70 69 68 71 72 73 74 74 74 77 76 76 76 76 76 76 76 77 76 75 75 75 75 74 73 73 72 72 72 71 70 69 69 69 69 68 69 70 69 67 66
71 71 70 70 70 70 71 72 72 74 75 76 75 75 76 76 76 76 76 76 74 75 76 75 75 74 73 72 71 71 71 70 70 70 69 69 69 69 66 68 67 66
67 70 71 70 70 71 69 67 68 69 71 72 75 75 75 75 75 75 74 76 76 75 76 76 76 75 75 73 72 71 70 70 70 69 69 69 69 68 68 67 66 66
66 64 65 68 68 69 70 70 69 69 70 71 73 73 74 73 75 74 74 75 76 75 75 75 76 75 74 72 72 72 71 70 69 69 68 68 68 68 68 67 67 66
72 72 72 71 67 64 64 66 68 68 69 70 70 72 71 72 72 72 73 74 74 73 72 73 71 74 73 73 73 72 71 70 69 67 68 67 67 67 67 67 66 66
72 73 73 72 73 74 72 71 65 62 62 63 62 66 67 65 71 73 73 73 74 73 72 74 73 72 71 72 72 72 71 69 69 68 67 66 66 66 66 65 66 65
73 73 74 74 74 73 74 74 74 74 71 68 65 67 67 68 70 71 72 71 72 73 71 70 69 70 67 58 60 71 70 70 68 67 67 66 65 64 64 64 65 65
73 73 73 73 73 73 73 74 75 74 73 73 72 72 71 71 71 70 70 70 69 64 65 66 67 69 55 50 52 55 66 68 67 66 66 65 64 63 62 63 63 65
72 73 73 73 73 74 74 75 74 74 74 73 72 71 72 72 71 70 71 71 70 71 68 66 65 54 45 48 48 50 55 67 66 64 64 63 63 62 62 62 62 63
72 72 72 72 73 73 73 73 73 73 73 73 72 71 71 70 71 70 70 70 70 69 67 67 67 45 46 45 46 47 50 58 66 64 63 62 62 62 62 62 62 61
72 72 71 71 71 71 71 72 71 71 71 72 72 72 71 70 70 69 69 69 69 69 68 67 65 45 45 45 45 45 46 55 65 63 62 62 62 61 61 61 60 60
71 71 70 71 71 71 70 70 70 70 70 71 71 71 70 70 70 69 69 69 70 69 68 67 59 43 44 44 44 45 45 53 63 60 60 60 60 61 61 60 60 60
70 70 69 70 70 70 69 69 69 69 69 70 70 71 71 71 71 70 68 68 68 68 67 62 52 42 43 43 44 43 46 59 58 58 58 59 60 61 61 61 61 60
70 69 68 69 69 68 69 68 68 68 69 70 69 69 69 70 70 69 70 69 69 68 65 55 52 43 42 42 42 43 50 59 58 58 59 59 60 61 61 61 61 61
70 70 69 68 68 68 68 68 68 69 69 69 68 68 68 69 70 70 69 69 67 66 60 55 52 45 41 42 42 43 49 57 59 59 60 60 60 60 61 61 61 54
70 69 68 68 67 67 67 67 67 67 68 69 68 69 68 69 70 69 68 66 64 60 51 53 51 46 41 41 41 40 48 57 58 59 58 58 58 59 60 60 61 56
69 68 68 67 67 67 67 66 67 67 67 67 67 68 69 69 69 68 66 60 57 56 53 51 49 48 44 39 40 39 38 51 55 55 54 54 55 56 56 58 58 59

ECMWFNIL_sfc_temp_030.txt.gz
Temp
72 71 70 70 70 70 70 69 69 69 69 69 68 68 68 68 69 68 68 68 68 67 67 67 67 67 68 67 66 68 66 65 64 64 64 63 62 62 62 62 61 61
71 71 71 71 71 71 70 71 70 70 69 70 70 69 69 69 68 68 68 68 68 67 67 67 66 67 67 66 67 66 64 64 64 67 63 63 62 62 62 61 61 62
72 71 71 70 70 70 70 71 72 71 70 71 72 70 70 69 68 68 68 67 67 67 66 66 66 66 67 66 65 66 65 64 63 65 64 64 64 63 62 63 61 63
72 72 71 72 71 71 71 70 71 72 71 70 71 71 71 70 68 68 68 69 67 67 66 66 66 66 67 66 65 65 65 65 65 64 63 63 63 64 62 62 62 62
72 72 72 72 72 72 72 71 70 71 71 70 70 71 70 68 68 68 67 67 67 67 66 66 66 65 66 65 65 64 64 64 64 63 63 62 63 63 63 62 61 62
72 74 73 73 73 71 71 71 71 72 72 70 70 70 69 70 69 69 68 67 67 67 67 67 66 66 66 65 64 64 64 65 64 63 64 63 63 63 66 63 61 62
71 72 71 72 71 71 70 70 70 70 70 70 72 69 70 70 69 69 70 69 69 68 69 67 66 65 65 64 64 64 64 64 65 64 64 64 63 62 64 63 62 63
71 71 71 70 70 70 69 69 69 69 68 69 69 69 70 70 71 70 70 70 69 70 69 69 68 67 66 65 65 64 63 65 65 64 63 64 62 63 62 64 62 62
68 69 69 69 69 69 69 70 69 69 70 68 68 68 70 70 70 70 71 71 70 69 70 69 69 68 66 65 64 64 64 64 64 63 62 62 62 62 64 64 61 60
65 67 67 66 65 65 67 68 68 69 69 68 68 68 69 69 70 71 71 70 69 70 70 70 69 68 68 67 67 66 65 65 64 63 63 62 63 63 64 63 61 60
66 67 66 66 66 66 67 67 67 67 67 68 68 68 68 68 70 71 70 70 69 70 70 70 69 70 69 67 66 65 65 65 64 64 63 63 63 63 63 62 61 60
66 65 64 62 62 62 61 61 62 64 67 68 67 67 67 66 67 65 64 68 69 71 71 70 71 70 70 69 68 67 66 65 64 64 63 64 63 63 64 62 61 61
67 66 64 63 61 61 60 61 61 61 61 64 66 66 65 62 61 61 61 61 62 62 66 69 70 68 67 68 68 68 67 66 64 63 63 62 63 63 63 62 61 61
68 66 64 63 62 63 62 61 60 60 59 61 61 61 61 61 60 60 60 60 60 61 62 62 62 63 63 68 70 69 66 65 65 63 63 62 62 62 62 61 61 60
69 70 68 66 64 64 63 62 62 61 61 61 62 61 61 60 61 60 60 60 60 60 60 61 60 59 60 65 68 68 67 65 65 65 64 62 61 61 61 60 60 60
70 69 68 69 69 68 67 65 64 63 62 61 62 62 61 62 61 61 62 61 60 60 60 60 59 61 60 56 57 66 65 67 65 64 65 62 60 59 59 59 59 58
68 68 69 68 68 67 68 68 68 67 64 63 64 63 63 63 61 61 62 61 62 62 61 61 61 61 54 51 49 48 59 64 64 63 63 62 60 58 57 57 58 59
68 68 68 68 68 68 68 69 68 67 67 67 65 64 65 65 64 64 64 64 64 65 64 63 63 56 52 51 50 52 55 63 62 62 62 61 60 60 59 57 57 58
68 68 68 68 68 68 67 66 66 66 66 66 66 66 66 65 65 65 65 66 65 65 64 64 64 52 50 49 47 49 50 57 63 62 61 60 60 59 59 59 59 58
67 67 66 67 67 67 67 66 65 65 64 65 65 64 64 64 64 64 65 64 64 64 64 63 63 49 47 46 47 47 48 55 62 60 59 60 60 59 58 58 58 56
67 67 66 66 66 65 64 64 64 63 63 63 63 63 63 63 63 63 63 64 64 64 63 64 61 45 45 45 45 45 47 54 60 59 59 58 58 58 58 58 57 57
67 66 65 65 65 64 64 63 63 63 62 63 63 63 63 63 63 63 63 62 64 62 63 57 49 42 43 43 44 45 48 55 57 57 56 56 55 57 57 57 58 56
67 66 65 64 64 64 63 62 62 62 62 64 62 62 62 62 62 62 63 63 62 63 58 50 49 42 42 43 44 46 49 55 55 55 55 55 55 56 57 57 57 57
66 67 65 64 63 64 63 62 62 62 62 63 61 61 61 61 63 62 63 63 61 59 53 51 47 43 41 42 43 45 50 55 54 54 54 54 55 56 56 56 58 57
66 65 65 64 63 63 62 61 61 61 62 62 62 62 61 62 63 63 60 53 53 52 50 48 46 43 41 40 41 42 49 54 55 55 54 53 53 54 54 55 56 54
64 64 63 63 63 62 62 61 62 61 61 61 61 62 62 62 60 56 54 53 52 51 50 49 46 45 42 41 42 43 45 52 53 52 51 50 52 53 52 52 53 54

ECMWFNIL_sfc_temp_033.txt.gz
Temp
64 64 63 63 62 63 62 62 61 61 61 61 60 60 60 61 61 60 59 58 59 59 58 57 58 59 61 57 58 59 59 57 57 57 57 56 55 55 57 55 54 54
64 64 64 64 62 63 62 62 62 62 61 61 61 61 61 61 61 61 60 59 59 58 58 58 59 59 59 58 57 58 57 56 57 60 56 55 55 54 54 55 55 54
63 63 63 63 62 62 62 62 63 63 61 62 62 62 62 62 62 60 60 60 60 59 58 58 58 59 59 58 56 58 57 55 56 58 56 56 55 55 55 54 53 54
63 64 64 63 61 63 63 62 62 63 62 62 62 63 63 63 62 61 60 63 59 59 58 57 57 58 58 58 57 57 57 56 57 55 55 56 55 54 55 54 55 55
63 63 63 64 62 63 63 62 62 62 62 62 62 62 62 61 61 61 60 60 59 59 59 58 57 58 58 57 57 56 57 56 57 55 55 56 55 56 56 55 56 56
65 64 64 65 63 64 64 63 62 63 62 62 62 63 62 62 62 62 60 60 59 59 59 58 57 58 57 57 57 55 56 57 56 56 55 55 56 56 60 56 55 54
64 64 63 63 63 63 63 62 61 62 62 61 60 61 62 62 62 62 61 61 61 59 60 58 58 57 57 56 57 56 56 56 56 56 56 55 55 56 58 55 55 55
62 63 63 62 62 61 62 61 61 62 61 62 61 60 60 63 63 62 61 61 61 60 59 59 59 59 57 56 57 56 56 57 57 56 55 55 55 55 55 58 55 53
60 61 61 61 61 61 61 62 61 60 60 61 61 60 60 61 61 61 61 61 60 60 60 59 60 60 59 58 57 57 56 56 57 55 55 54 54 55 55 56 55 54
59 59 59 60 60 59 60 60 60 59 61 61 62 62 62 60 61 60 60 59 58 59 59 61 60 60 60 61 60 59 58 58 56 56 57 55 54 55 56 55 53 54
58 59 59 60 60 59 57 57 57 58 58 59 59 60 62 62 59 57 58 59 59 59 60 60 60 59 58 59 60 60 60 59 58 57 57 57 55 56 58 56 54 55
57 57 58 58 58 56 55 55 55 56 57 59 59 59 60 60 58 57 58 59 59 59 60 60 58 58 58 59 61 61 60 59 59 59 58 58 56 56 57 55 56 55
59 58 57 57 56 56 55 56 56 56 57 58 58 59 58 57 56 57 57 59 60 59 60 60 59 59 58 59 60 60 61 61 59 59 58 58 57 57 58 55 57 55
58 59 58 57 56 55 55 56 56 56 56 56 57 58 57 57 56 57 57 57 58 58 58 57 58 58 58 59 59 59 58 61 61 59 60 59 58 57 56 56 56 55
57 56 56 56 56 56 55 55 55 54 55 55 55 55 57 56 56 57 57 56 57 56 56 56 57 58 58 59 58 59 60 59 61 61 60 59 59 58 56 56 56 55
56 56 56 55 54 55 56 56 55 54 54 53 55 55 56 55 55 56 56 56 56 56 55 56 57 58 58 53 54 59 57 59 58 58 59 59 59 58 58 58 56 55
57 57 58 58 56 54 54 56 56 56 54 55 54 54 55 55 55 54 55 56 57 56 55 56 57 58 52 48 46 48 56 56 57 57 58 58 58 58 57 57 57 58
57 57 57 57 58 58 57 57 56 55 55 55 55 54 55 54 54 56 56 56 56 56 56 57 57 54 48 47 47 46 50 57 57 58 57 56 57 57 56 56 56 56
55 55 57 56 58 59 59 58 57 55 54 54 54 56 54 54 56 55 55 55 55 55 56 56 57 52 47 47 47 46 45 51 56 58 57 56 57 57 57 56 55 55
57 57 56 55 55 55 55 55 55 55 55 55 57 56 55 53 53 54 55 54 55 56 56 56 56 52 48 47 46 45 45 49 56 55 56 57 57 56 56 55 55 55
57 56 55 56 55 55 53 53 53 52 53 54 55 56 55 55 54 53 51 52 52 53 54 53 54 49 46 46 46 45 45 50 54 54 53 54 54 53 53 54 54 54
55 53 54 54 54 54 55 54 52 52 52 51 52 52 52 52 53 52 51 51 51 51 53 46 44 43 45 45 44 43 47 52 53 52 52 50 50 49 51 53 53 52
55 54 54 55 54 55 54 53 53 52 52 51 54 50 51 51 50 51 49 48 48 50 46 42 40 40 41 42 42 44 46 50 50 51 50 50 50 51 52 52 52 52
54 54 54 53 53 54 52 50 49 49 50 50 54 51 50 49 51 48 45 46 45 44 43 41 38 40 41 42 44 45 48 49 48 48 49 49 50 51 53 54 54 56
53 53 53 52 52 51 51 52 51 51 50 52 51 51 50 48 46 45 44 43 43 43 45 42 39 41 42 42 44 45 47 49 49 48 47 47 48 48 48 48 48 44
52 53 51 51 50 49 48 50 49 51 52 51 50 50 50 45 45 45 44 42 42 42 42 41 41 40 41 41 43 43 45 48 47 46 45 45 45 46 44 43 44 42

ECMWFNIL_sfc_temp_036.txt.gz
Temp
63 61 61 60 59 59 58 57 57 58 57 56 57 57 57 58 56 56 55 55 55 54 55 54 54 54 56 55 55 56 55 53 52 52 52 53 51 52 54 52 50 51
62 62 62 61 59 59 58 58 58 58 57 57 58 57 57 57 57 57 56 56 56 55 54 54 54 53 53 55 54 54 53 53 53 55 53 52 50 50 51 50 50 50
61 61 61 60 60 60 60 59 59 58 58 58 57 58 59 58 57 55 56 57 56 55 55 54 54 54 53 52 53 54 53 52 52 52 53 52 51 52 50 50 49 50
61 62 63 62 62 62 61 60 59 59 58 57 57 59 60 60 58 57 57 59 56 55 54 54 55 54 54 53 53 53 52 52 52 51 53 52 52 51 52 51 51 50
62 62 62 63 63 63 62 61 60 59 59 60 59 58 59 58 57 57 58 57 57 56 56 56 54 53 53 53 53 53 53 53 52 51 51 52 53 53 53 52 50 51
62 63 63 62 62 62 61 62 62 60 60 58 59 59 59 59 58 58 58 57 57 58 57 57 57 54 54 53 52 53 54 53 52 52 53 53 54 52 54 52 49 51
60 61 62 61 62 61 62 61 61 61 60 61 59 59 60 60 60 59 59 59 58 58 58 58 58 56 55 55 53 53 52 52 52 52 53 51 52 53 54 52 50 52
59 60 62 61 61 60 61 60 59 60 59 57 59 60 60 60 61 60 60 59 59 59 58 58 57 57 55 56 55 53 53 54 55 53 53 52 51 52 52 53 51 51
57 57 58 57 57 58 58 58 58 58 58 58 58 58 58 59 59 59 60 60 58 57 57 57 58 58 56 56 56 55 54 53 55 53 53 52 52 52 53 52 51 51
56 55 56 56 56 56 57 59 58 58 58 59 58 57 58 56 57 58 59 59 58 56 56 56 56 56 56 56 57 56 55 55 54 54 54 53 54 54 53 53 52 50
55 55 55 56 56 56 57 58 59 59 58 59 59 58 58 57 57 57 56 57 58 57 56 56 56 56 57 56 56 56 56 55 55 55 55 55 55 55 56 54 53 54
55 54 56 55 56 56 57 57 57 58 59 57 58 59 58 58 58 56 57 57 57 57 57 57 57 58 58 58 57 55 55 56 56 56 56 56 55 54 55 55 55 54
55 55 54 54 54 54 54 54 55 55 56 57 56 57 56 56 54 56 55 56 56 57 57 58 58 58 57 57 58 58 57 56 56 56 56 55 55 55 55 55 55 55
55 55 56 56 55 54 54 55 55 55 55 55 54 55 55 55 55 56 55 55 56 56 56 56 56 56 56 56 57 56 56 56 56 56 56 55 56 56 55 54 55 55
54 55 54 55 55 55 55 54 54 54 54 54 53 53 54 55 54 54 54 54 54 55 56 56 56 56 56 56 56 56 56 56 56 57 56 56 56 56 56 56 56 56
53 53 53 53 52 53 54 53 52 52 51 51 52 51 51 51 52 53 54 54 54 53 53 54 55 57 56 52 53 57 56 57 57 56 57 56 56 56 56 56 57 56
51 51 50 52 52 50 50 51 52 51 51 51 51 50 50 50 51 51 51 52 53 52 53 53 55 56 51 47 47 49 56 55 55 55 55 56 56 56 55 56 56 56
52 50 50 51 51 49 49 50 50 50 50 51 50 50 50 50 50 52 51 50 51 50 52 53 54 52 47 46 46 45 49 56 55 55 54 54 55 55 56 56 56 56
50 50 50 50 50 50 51 49 49 50 51 51 53 51 50 50 50 50 51 51 50 50 51 53 53 50 46 46 45 44 44 49 54 55 55 53 53 55 55 55 55 54
51 51 51 52 51 49 48 47 48 49 48 48 51 50 50 48 48 49 49 50 50 51 52 53 53 50 46 45 45 43 42 44 52 53 53 54 54 54 54 54 54 54
51 50 50 50 50 48 47 48 48 47 48 48 48 48 48 48 47 47 46 47 47 47 50 51 54 48 44 44 43 43 42 42 51 52 52 51 51 51 51 51 51 51
49 48 48 48 49 50 53 54 51 50 52 47 47 45 44 45 46 44 44 45 44 44 45 46 43 38 40 43 45 43 41 47 48 47 46 46 46 47 49 49 50 50
49 48 48 48 48 49 48 47 47 48 46 45 50 45 45 44 43 41 41 41 41 41 41 40 36 40 39 42 41 40 44 48 46 47 46 45 46 47 48 49 49 49
48 48 49 48 47 50 49 46 44 43 44 43 51 50 48 43 41 40 41 40 38 39 39 37 36 40 41 40 41 43 46 47 46 45 45 46 45 46 46 45 47 52
48 49 49 49 48 47 46 45 45 46 45 44 46 45 43 39 40 40 39 39 38 39 45 38 37 40 41 41 42 44 45 45 46 45 44 43 44 43 43 42 43 43
46 48 47 47 47 45 44 45 45 44 44 45 44 41 40 40 40 40 38 37 36 36 38 37 37 38 39 40 41 42 44 45 45 45 43 42 43 44 42 41 41 42

ECMWFNIL_sfc_temp_039.txt.gz
Temp
60 60 60 59 58 58 57 55 53 53 52 53 53 54 53 55 53 52 52 52 53 53 52 52 52 53 54 52 52 53 52 50 50 49 51 51 49 50 52 49 49 49
60 61 61 60 59 58 57 55 55 55 54 53 54 53 53 53 53 52 52 53 53 52 52 52 52 52 52 52 51 52 50 50 51 53 52 50 48 49 49 47 47 48
60 60 60 59 59 59 59 57 56 54 54 54 52 53 55 53 53 52 52 52 52 52 52 52 52 53 53 51 51 53 52 50 51 50 52 50 49 51 46 47 47 47
60 61 61 60 60 60 60 59 56 56 54 54 55 55 55 56 53 53 52 57 52 53 52 52 52 52 52 52 51 52 51 51 51 50 50 48 49 49 49 49 48 48
61 61 61 60 60 60 60 60 59 57 56 56 55 54 55 55 54 53 53 54 53 53 53 53 52 52 51 51 51 51 50 51 49 50 50 50 49 50 49 50 47 49
61 61 61 60 60 60 59 60 60 59 57 55 56 56 55 55 54 54 54 53 53 53 53 53 52 52 51 51 50 51 52 52 50 50 51 50 50 49 51 49 47 49
58 59 59 60 59 59 61 60 59 58 58 59 56 56 56 56 56 55 55 56 55 55 54 53 53 52 51 51 51 51 51 51 49 50 51 49 51 50 50 48 48 49
57 58 60 60 58 58 59 59 58 57 57 56 57 57 56 58 57 57 56 56 55 55 55 55 54 53 52 51 51 51 50 52 52 50 50 49 50 50 49 51 49 49
56 57 58 58 57 57 57 58 58 57 57 57 57 56 55 55 56 57 58 57 56 56 55 54 55 54 52 52 52 51 51 50 52 51 51 50 50 51 51 49 48 49
55 55 55 55 54 54 55 55 57 56 56 55 55 55 55 55 56 57 56 55 56 56 56 55 55 54 53 52 53 52 51 52 51 51 51 51 52 51 50 50 50 49
53 54 54 53 53 54 55 55 55 56 56 56 55 56 57 57 58 57 55 55 56 56 56 55 56 54 54 53 53 52 52 52 51 51 52 52 51 52 54 52 52 52
53 53 53 53 54 55 55 54 54 55 55 55 56 56 56 56 56 55 55 56 56 56 56 56 55 56 55 55 55 53 52 52 52 52 52 52 52 53 54 53 53 52
53 52 53 52 52 54 55 55 53 53 55 55 54 55 55 54 54 55 55 55 56 56 56 56 56 56 56 56 56 55 54 53 53 52 52 51 51 52 52 52 53 53
52 52 53 53 53 53 53 53 54 54 54 54 54 54 54 53 53 54 54 55 55 56 56 56 56 55 55 55 55 55 54 54 54 53 52 52 52 52 53 53 53 53
52 52 53 54 54 53 53 53 53 55 54 54 53 52 52 53 53 54 54 54 54 54 55 55 54 55 55 55 55 55 54 54 55 54 53 53 53 53 52 52 52 53
51 51 52 52 52 52 53 53 53 53 52 52 52 51 51 52 53 53 54 54 54 54 53 52 53 55 55 52 52 55 54 55 54 53 53 53 53 54 54 53 53 53
49 48 47 48 49 49 49 50 50 50 50 50 50 50 50 51 51 51 51 52 53 52 52 51 52 54 50 47 45 47 53 53 53 54 54 53 53 53 53 54 53 53
46 45 46 47 48 47 46 45 47 49 49 50 49 50 50 49 50 50 50 49 50 50 50 51 52 50 46 45 44 44 46 52 53 53 52 52 53 53 53 53 53 53
45 46 47 48 48 47 46 46 46 47 46 46 46 46 48 48 47 47 48 47 48 49 49 49 50 47 43 43 43 42 42 45 50 52 50 50 50 51 52 52 52 52
46 45 46 46 46 46 45 45 46 48 48 47 47 45 44 45 45 45 44 45 45 46 47 47 49 47 43 43 42 41 41 42 49 50 50 50 50 51 51 50 50 51
44 43 45 45 44 44 44 44 44 44 45 45 44 47 47 49 47 46 44 43 41 42 43 46 47 41 39 39 40 41 41 41 48 48 49 48 49 48 47 48 48 49
46 45 43 43 43 43 44 45 43 43 45 43 42 40 41 41 41 40 39 39 39 39 41 41 41 39 40 40 41 42 40 44 45 45 45 45 43 44 45 45 45 46
47 48 46 44 44 46 46 46 45 45 42 42 45 41 40 40 38 38 38 37 38 37 38 38 37 40 39 40 39 41 41 43 43 42 41 40 41 42 43 43 44 44
46 45 47 46 45 47 47 44 42 42 42 41 43 44 42 39 37 37 36 37 36 37 38 37 35 39 40 40 40 41 44 43 43 42 42 41 40 40 40 41 46 51
44 44 43 43 44 47 45 47 46 46 43 40 39 38 38 38 38 36 35 35 35 37 44 36 34 38 40 40 41 42 42 42 43 42 41 39 39 38 38 39 40 44
45 45 43 42 44 43 41 44 43 41 41 39 37 37 37 37 37 35 34 34 33 34 36 35 35 36 38 39 41 42 43 43 43 42 40 39 39 40 40 39 40 41

ECMWFNIL_sfc_temp_042.txt.gz
Temp
59 59 59 58 57 57 55 54 52 53 52 51 53 52 53 53 53 52 52 52 53 52 53 53 53 54 54 53 53 54 53 52 52 51 52 52 51 52 52 52 52 53
58 59 59 58 57 57 56 55 54 53 52 51 52 52 52 53 52 52 52 53 53 52 52 52 53 53 53 53 53 53 53 53 53 54 52 52 51 51 50 50 50 51
58 58 58 58 58 57 57 56 55 54 53 52 51 52 53 53 52 51 52 52 53 52 52 52 53 53 53 52 52 54 53 52 53 53 54 52 51 51 49 50 51 51
58 59 59 60 59 59 57 56 55 56 55 54 53 53 53 55 52 52 52 56 52 53 52 52 52 53 53 52 52 52 52 53 53 53 52 50 50 51 51 52 51 51
58 59 60 60 60 59 58 57 57 56 56 56 54 53 55 54 52 53 53 54 52 53 52 53 52 52 52 52 52 52 53 52 51 52 53 51 48 52 53 54 52 52
58 60 61 60 60 59 59 59 58 57 57 56 56 56 54 54 53 53 53 54 54 53 53 52 53 52 52 52 51 52 52 53 52 52 53 53 52 52 53 52 52 52
57 57 57 58 58 59 59 59 58 58 58 57 56 55 54 54 55 54 54 54 54 55 55 54 54 53 52 52 52 52 53 52 51 52 53 53 53 53 52 52 53 53
56 56 56 58 58 57 58 56 56 57 57 56 55 55 55 56 56 55 55 55 55 55 55 55 55 54 52 52 54 53 53 52 52 52 52 52 52 53 52 52 52 53
55 55 56 56 57 57 57 56 55 56 57 56 56 55 55 55 55 56 56 56 56 55 55 55 56 55 54 54 53 53 54 53 53 52 52 52 52 53 52 51 52 53
55 54 54 55 55 54 55 55 55 55 56 56 56 56 55 55 56 58 57 57 56 56 55 54 55 55 55 55 55 53 53 53 53 53 53 53 53 54 52 52 53 52
53 53 54 53 53 54 55 55 55 55 55 56 56 56 57 56 57 57 56 56 56 56 56 54 54 56 56 56 55 54 55 54 54 53 53 53 53 53 54 53 53 54
52 53 53 53 53 53 54 54 55 55 55 55 56 56 55 55 56 55 56 56 56 57 56 56 55 56 56 56 56 56 55 54 54 54 54 54 54 54 55 54 54 55
53 53 53 53 53 53 54 54 54 53 54 54 54 55 55 55 55 55 55 55 56 56 56 56 56 56 56 56 56 56 56 55 54 54 54 54 54 54 54 54 55 55
52 52 52 52 53 54 54 53 53 53 53 54 54 54 55 54 54 55 55 54 55 55 56 56 56 55 55 56 56 56 55 55 55 54 54 54 54 54 54 54 54 54
51 51 51 52 53 52 52 52 53 53 53 53 53 53 54 54 54 54 53 53 53 53 54 54 54 55 55 56 55 55 55 55 55 55 54 54 54 54 53 53 54 54
50 51 51 50 51 51 52 52 52 52 51 52 52 52 52 52 53 53 53 53 53 53 52 53 53 54 55 51 51 55 55 54 55 55 55 54 54 54 54 54 54 55
49 49 49 50 50 51 50 51 51 51 51 51 51 52 52 52 52 51 51 51 52 52 52 52 53 54 49 46 44 44 51 53 53 54 54 54 54 54 54 55 55 55
48 47 47 47 48 49 50 50 50 51 51 51 51 51 51 51 50 51 51 50 50 50 51 51 52 49 43 41 41 41 44 51 52 53 53 53 54 54 54 54 54 54
46 47 46 46 47 46 47 49 50 49 49 48 49 48 49 49 49 48 49 49 49 49 49 49 49 44 40 40 40 40 40 44 50 51 51 52 52 53 53 53 53 53
47 48 47 45 45 46 46 47 48 47 45 45 46 45 47 47 46 48 46 47 47 47 47 47 48 41 37 38 39 39 39 41 49 50 51 52 51 51 51 51 52 52
45 46 46 45 45 45 45 45 45 44 46 43 44 45 45 46 45 44 44 43 42 42 43 44 45 39 39 38 38 38 38 40 47 49 49 50 49 48 49 50 50 50
46 46 46 46 47 46 46 45 44 44 45 44 42 41 41 42 40 40 39 41 40 39 43 45 42 40 39 40 39 39 39 45 47 48 48 46 43 44 45 46 47 49
46 47 46 45 45 45 45 44 44 43 42 42 43 42 42 41 39 39 38 39 40 39 40 42 40 41 39 39 40 39 42 46 45 44 43 42 42 42 43 46 47 47
45 47 47 46 46 48 46 44 44 43 44 44 46 44 43 40 40 39 38 38 39 39 41 42 42 40 40 39 40 40 42 43 43 42 41 41 41 41 42 43 47 48
45 45 47 47 48 47 47 46 46 46 44 41 41 40 40 38 40 38 38 37 37 39 44 39 37 40 40 39 40 41 42 44 44 42 41 40 41 41 41 42 44 44
45 46 47 48 48 47 45 47 45 43 42 40 37 37 38 37 39 37 37 37 36 36 36 36 38 39 40 39 41 40 41 44 43 44 42 41 41 43 43 43 44 44

ECMWFNIL_sfc_temp_045.txt.gz
Temp
65 66 66 66 66 66 65 66 66 67 67 68 69 68 69 67 67 67 67 67 68 68 67 67 67 67 67 67 66 68 68 66 66 66 67 67 66 66 65 65 65 66
64 65 66 66 65 63 63 63 63 64 63 67 69 68 67 67 66 68 67 67 68 67 67 67 67 67 68 68 66 67 67 66 65 66 66 66 66 66 64 64 65 66
65 65 65 65 65 63 63 61 60 61 63 67 67 67 67 67 66 67 67 68 68 67 67 67 67 67 67 67 67 67 67 66 66 66 67 66 66 66 65 66 66 66
65 66 66 67 66 64 63 61 60 61 63 65 67 67 68 67 68 67 67 67 68 67 66 67 67 67 68 68 67 67 67 67 66 66 66 66 66 66 66 66 66 66
66 66 67 67 66 65 64 64 62 62 64 66 65 65 67 67 67 68 67 67 67 67 67 67 66 66 66 67 68 67 67 67 66 67 67 66 66 66 66 66 66 65
66 68 68 67 66 65 65 65 64 63 63 65 65 65 65 66 68 68 67 67 67 67 67 67 67 66 67 67 67 68 68 68 67 67 67 67 67 66 67 67 66 66
65 66 66 67 66 66 66 65 64 64 65 65 66 65 64 64 65 67 68 67 68 68 68 67 67 66 66 67 67 66 67 66 67 67 68 68 67 66 66 66 67 67
66 66 67 67 66 66 66 66 66 66 66 67 66 66 67 67 66 66 68 68 68 68 67 68 68 68 67 68 68 66 66 65 66 66 67 67 66 67 67 66 65 67
66 66 67 66 66 66 67 67 66 66 66 66 67 67 68 67 65 68 69 69 68 68 68 68 68 68 68 67 66 66 66 65 65 65 65 65 66 67 68 68 66 66
66 66 65 66 66 66 66 66 67 67 68 67 68 68 68 68 69 69 68 68 67 68 68 67 67 67 67 67 67 67 66 66 65 65 66 66 65 67 67 66 67 66
64 64 65 65 65 66 66 66 67 67 66 65 64 65 66 66 67 67 65 65 63 64 65 66 67 67 67 67 65 64 65 65 65 66 65 66 66 66 63 65 66 66
64 64 62 61 62 64 65 66 66 66 65 63 66 66 65 64 64 63 64 64 63 64 66 67 64 63 63 64 66 66 65 64 64 64 64 65 66 66 66 66 65 67
63 62 62 62 63 64 65 66 66 66 67 66 67 67 67 65 64 65 64 64 64 65 66 65 64 63 63 64 66 67 66 66 64 64 64 64 65 66 66 66 67 67
62 62 62 63 64 65 66 66 66 67 68 67 67 67 67 67 66 66 66 65 64 64 65 65 65 65 65 66 66 66 66 65 64 63 63 64 65 66 66 66 66 66
63 64 64 65 66 66 66 65 65 65 65 65 64 65 65 66 66 66 66 66 65 64 65 64 63 62 63 64 65 65 66 65 64 64 64 64 64 65 65 65 66 66
64 63 65 66 65 65 65 64 64 64 64 64 64 65 65 64 64 64 65 65 65 65 64 62 62 63 58 51 51 61 65 66 66 66 66 65 64 63 63 63 62 64
64 64 64 64 64 64 64 63 63 63 64 64 63 63 62 63 63 63 63 64 64 64 63 63 62 61 43 42 43 43 56 62 64 66 65 65 65 65 64 62 61 62
64 62 62 62 62 62 61 62 61 61 61 61 60 59 58 59 60 60 60 60 60 61 61 61 60 44 40 40 41 41 45 56 60 62 63 64 66 66 66 65 65 64
63 64 63 62 61 60 59 60 60 59 59 58 58 57 58 58 57 56 57 57 58 58 59 58 60 41 38 38 39 40 40 46 57 58 60 61 62 64 66 66 65 65
63 64 63 62 61 60 60 61 61 61 59 59 57 57 58 57 56 56 55 57 57 57 58 58 58 43 38 37 38 37 37 43 58 56 58 58 59 60 62 64 64 64
64 63 63 62 62 62 63 63 62 61 62 61 61 61 61 61 60 60 58 58 58 58 60 60 57 40 40 39 38 38 37 44 56 54 55 56 56 57 59 60 62 62
63 63 63 63 63 63 63 62 61 61 61 60 60 60 60 60 59 60 60 60 58 59 62 62 57 39 39 39 38 39 41 55 56 57 57 58 58 58 59 61 61 61
62 61 59 60 62 63 62 61 60 59 58 60 61 61 61 60 59 59 59 60 60 61 62 62 62 47 38 39 39 39 49 61 60 61 59 58 57 57 59 59 58 60
62 62 60 58 59 61 61 59 60 61 61 62 64 62 61 60 60 59 58 58 58 58 57 60 60 48 39 40 40 39 50 62 62 61 58 57 56 56 58 57 53 46
60 60 59 58 59 58 58 60 61 61 61 61 62 63 59 59 60 61 59 58 56 55 47 54 59 52 40 39 39 40 53 63 63 62 59 57 58 56 56 57 55 49
60 60 61 62 64 61 60 61 60 59 59 60 58 60 60 59 59 61 60 57 55 56 54 54 57 58 49 36 41 40 42 60 63 62 59 56 58 58 57 56 55 54

ECMWFNIL_sfc_temp_048.txt.gz
Temp
75 75 74 75 76 76 75 74 74 73 74 75 75 75 75 74 75 74 74 74 74 74 74 73 74 73 74 74 74 76 75 72 73 73 73 72 72 71 71 71 71 73
73 74 74 75 74 74 73 73 71 72 72 73 75 75 75 74 74 74 74 73 74 74 74 74 74 74 74 74 74 74 74 73 72 75 72 71 72 72 70 70 71 73
72 72 72 72 72 72 71 71 71 71 71 71 73 74 74 74 73 74 74 74 74 73 73 73 73 74 74 74 73 74 73 72 72 73 73 72 72 72 71 72 72 71
72 72 73 73 73 72 72 71 71 71 70 69 72 74 74 74 74 73 73 74 74 73 73 74 73 74 75 74 74 74 73 73 73 73 72 73 73 73 72 72 72 73
72 72 73 73 74 73 72 71 71 71 71 72 73 74 74 73 73 74 74 74 74 74 73 73 73 73 73 74 74 73 73 73 72 73 73 71 72 72 72 72 71 71
73 75 75 75 74 72 71 71 72 72 72 72 73 74 74 74 75 74 74 73 74 74 73 74 74 74 74 74 74 74 74 74 72 73 73 72 73 73 74 73 71 71
73 73 73 75 73 72 72 72 73 73 73 73 74 73 74 73 73 74 76 75 75 75 75 74 73 73 74 74 74 73 73 73 73 74 73 73 73 71 73 73 73 73
73 74 74 74 72 72 72 73 73 73 74 74 72 73 73 73 74 74 75 76 76 76 75 76 75 75 74 74 74 72 72 72 72 73 72 73 72 72 72 72 71 72
73 73 74 73 72 73 73 74 74 74 75 74 74 74 75 74 73 74 75 76 76 76 76 76 76 75 74 74 73 73 73 72 72 72 72 71 71 72 74 74 71 71
73 73 73 73 72 73 73 74 74 74 75 75 75 74 74 74 75 76 76 76 75 76 76 76 75 74 74 74 74 74 73 73 73 72 72 72 72 73 74 73 72 71
72 73 72 72 72 74 73 74 74 74 75 76 75 75 76 75 76 77 75 76 74 75 75 76 76 76 75 74 73 73 73 72 73 73 72 72 72 72 69 72 71 70
71 72 72 72 72 73 73 74 74 75 75 75 76 75 74 74 75 75 75 76 76 76 75 75 75 74 74 75 75 74 73 72 72 72 72 73 73 72 73 73 71 72
70 70 70 70 71 68 72 74 74 74 75 75 75 75 74 73 74 74 74 75 77 76 75 74 74 73 73 73 74 74 73 72 71 71 71 72 72 73 73 73 72 73
69 70 67 67 70 72 71 72 73 73 74 75 75 74 74 75 74 73 74 75 76 76 75 75 73 73 74 73 74 74 72 72 71 70 70 71 71 72 71 71 71 71
69 69 68 69 70 71 68 71 73 74 74 74 73 72 72 74 74 74 73 74 74 73 73 73 72 71 73 73 73 72 72 71 70 70 70 70 70 71 69 68 69 69
70 70 70 69 69 68 69 71 72 72 72 71 71 71 69 68 71 73 73 73 72 72 71 70 70 70 56 47 50 68 71 71 69 70 70 71 70 69 68 68 69 69
71 70 70 69 69 71 71 71 72 71 70 68 68 69 67 68 68 72 72 72 72 71 70 70 68 60 42 43 44 44 63 70 70 70 71 70 70 69 69 69 69 70
70 70 70 69 70 70 70 71 71 70 70 71 70 68 68 70 70 69 69 69 70 70 69 68 64 45 41 41 41 41 47 65 71 71 70 71 71 71 71 70 70 71
71 70 70 69 68 69 67 66 68 69 69 67 67 68 67 67 68 67 67 69 69 69 69 69 65 40 39 39 40 41 43 52 71 70 70 70 70 70 71 71 71 71
72 71 70 70 69 69 68 68 68 68 67 67 66 65 66 66 68 68 69 70 70 70 69 69 66 43 38 37 39 39 41 47 71 67 68 69 68 69 69 69 69 70
73 73 72 71 72 71 71 71 69 69 68 68 68 67 67 67 68 69 69 70 70 70 70 66 61 37 40 38 39 39 40 46 69 66 68 68 68 68 68 68 69 69
73 72 72 72 72 72 71 71 70 70 70 70 70 71 71 71 70 70 69 69 70 70 69 66 57 37 39 40 39 42 39 63 69 69 68 69 68 67 68 69 69 69
73 72 71 72 72 71 71 70 70 70 70 72 70 70 70 70 70 70 70 70 69 70 68 67 62 44 38 38 40 39 46 71 69 71 69 67 67 67 68 66 64 65
72 73 71 71 71 71 70 69 70 71 71 71 71 70 70 70 70 70 70 70 69 69 70 67 66 48 38 41 40 39 46 66 71 69 67 67 66 66 67 64 57 44
71 72 71 70 70 70 69 69 69 68 70 71 71 71 70 71 71 70 69 69 69 68 56 64 66 53 38 40 38 39 49 69 70 70 67 66 67 65 65 64 60 51
69 69 69 70 71 70 69 69 69 67 67 68 69 71 70 70 70 70 68 68 68 67 65 67 66 64 52 37 43 42 39 60 71 69 66 65 67 66 64 63 61 58

ECMWFNIL_sfc_temp_051.txt.gz
Temp
77 77 77 77 77 77 77 76 76 76 76 76 75 75 75 75 76 75 75 75 75 75 75 75 75 75 76 76 76 77 76 74 74 74 74 73 72 72 72 73 73 74
76 77 78 78 78 78 77 77 76 76 75 76 76 76 75 75 75 76 75 75 75 75 76 75 76 76 76 76 75 75 75 74 74 77 74 74 74 73 72 72 73 74
74 75 76 77 76 75 75 75 75 75 76 77 76 76 75 75 75 76 75 75 75 75 75 75 75 75 76 76 76 75 74 73 73 74 74 73 73 73 73 73 74 74
72 74 75 75 76 75 74 73 74 75 75 75 75 75 76 75 75 75 75 76 75 75 75 75 75 76 77 76 75 75 75 75 75 75 74 74 74 74 73 73 73 74
72 73 74 75 75 75 74 73 73 74 74 74 75 74 75 74 74 75 75 75 75 75 75 75 75 75 76 76 76 74 74 74 75 75 74 73 73 73 74 74 73 73
73 75 76 76 75 74 73 74 74 74 74 73 73 74 75 75 75 75 75 75 75 75 75 75 75 75 76 76 75 75 75 75 74 75 75 74 75 75 77 75 74 73
72 73 74 76 75 75 74 74 74 74 74 74 75 74 75 75 75 76 76 76 76 76 76 75 75 75 75 76 75 75 75 75 75 76 75 75 74 73 75 75 75 74
72 72 75 75 75 74 74 75 74 74 73 74 73 74 75 76 77 76 76 76 76 76 77 77 76 76 76 76 75 73 73 74 74 75 75 74 74 74 73 74 73 74
73 74 75 74 73 74 74 75 75 75 76 74 74 74 76 76 76 76 76 76 76 76 77 77 77 76 76 75 74 74 73 73 73 74 73 72 72 73 75 74 73 72
74 74 74 72 73 73 74 75 75 75 76 75 76 76 76 76 77 77 76 76 75 76 77 77 77 76 75 76 75 75 74 72 74 73 73 73 73 74 75 73 73 72
72 74 72 68 71 72 74 75 75 76 76 76 76 76 76 76 76 78 77 77 75 76 77 76 75 74 75 74 75 74 75 74 74 73 72 74 74 73 72 73 73 72
72 73 73 72 71 74 74 74 75 75 75 75 77 76 76 76 76 77 76 77 78 78 78 75 74 71 68 68 73 73 72 73 73 74 74 75 73 74 70 72 70 71
71 72 72 73 73 70 68 72 76 75 75 75 75 76 76 75 76 77 76 77 78 77 77 77 76 70 71 75 75 72 73 72 73 72 74 72 74 74 74 72 69 68
64 68 71 72 70 67 64 64 66 68 73 75 76 75 75 76 76 76 75 77 77 77 76 76 76 76 75 76 75 75 74 73 71 70 69 70 70 73 73 74 73 72
65 65 64 69 69 70 68 68 69 69 68 67 71 73 71 71 70 74 75 76 76 76 75 75 74 71 67 66 72 73 73 71 71 67 67 65 64 62 66 71 71 71
68 69 69 71 67 65 64 68 70 69 64 62 62 63 63 63 65 66 65 64 63 67 71 70 66 60 53 45 49 63 63 66 66 68 69 66 61 64 65 69 70 70
69 70 71 69 65 63 64 67 71 68 64 61 60 63 65 67 68 68 68 67 64 62 62 64 63 58 41 41 45 44 61 65 66 67 68 68 63 65 67 67 70 71
70 70 70 70 69 68 67 69 68 64 63 65 66 66 66 66 65 66 67 67 64 64 62 60 59 43 41 41 42 42 47 62 72 71 72 72 71 70 68 67 70 70
73 72 69 70 70 67 65 66 67 66 66 65 64 63 63 62 63 63 63 65 64 64 63 64 61 39 40 39 42 42 44 51 74 72 72 73 72 72 73 72 72 71
73 73 72 71 70 71 69 70 68 63 62 65 63 63 64 64 65 64 66 64 64 65 67 66 62 41 38 39 42 40 42 45 74 71 71 72 71 72 72 71 71 71
74 73 73 72 72 71 70 70 67 66 66 66 65 65 65 65 65 65 66 67 68 68 68 65 58 37 39 39 40 40 42 44 71 71 71 71 71 70 70 70 70 70
75 74 74 74 73 72 71 70 69 67 68 69 69 69 70 69 68 68 67 69 69 69 68 66 58 38 40 42 40 41 39 57 71 70 71 71 70 70 70 70 70 69
75 74 73 74 74 73 72 71 70 70 71 71 69 70 70 70 69 69 70 71 70 70 68 66 64 45 39 40 40 38 44 66 71 72 71 69 69 69 69 66 63 63
74 75 73 73 73 73 73 72 72 72 72 73 72 71 70 71 71 71 71 71 71 70 69 67 66 48 38 41 38 39 43 61 71 71 69 69 68 69 68 64 57 45
73 73 73 72 72 73 72 71 71 72 73 73 73 73 72 72 72 72 71 71 71 71 61 66 66 53 37 41 38 39 47 66 71 73 69 68 68 67 67 65 61 52
71 71 71 71 72 72 71 71 72 72 72 71 72 73 73 73 72 72 70 70 70 69 68 68 66 64 53 37 41 41 39 56 69 71 69 67 67 69 66 63 62 59

ECMWFNIL_sfc_temp_054.txt.gz
Temp
71 71 70 70 70 71 70 70 69 70 69 69 68 69 69 69 70 68 68 69 68 68 69 69 69 69 70 68 67 69 68 66 66 67 67 66 65 65 66 66 65 65
71 71 71 71 70 71 71 70 70 70 69 69 69 69 69 69 69 69 68 68 69 68 69 70 69 69 68 68 67 67 66 66 66 71 66 66 65 65 65 65 65 66
71 71 70 70 70 70 70 71 70 70 69 70 69 69 69 69 68 69 69 68 68 68 68 68 68 68 69 68 67 67 66 66 65 67 66 66 65 65 65 65 65 65
71 72 72 71 70 70 70 70 70 70 70 69 69 70 70 70 69 68 69 70 68 68 69 69 69 69 69 69 68 67 67 67 67 67 66 66 66 66 65 65 65 66
71 71 71 71 71 70 69 70 69 70 70 69 69 69 69 68 68 69 68 68 68 68 69 69 69 69 70 68 68 67 68 67 67 67 66 65 66 66 67 66 65 65
71 72 72 72 70 69 69 70 70 70 70 69 69 70 69 70 69 69 69 68 69 69 69 69 70 70 70 70 69 68 68 68 68 68 68 66 67 68 72 68 65 65
70 71 70 71 70 70 69 70 69 70 69 69 70 68 69 69 69 69 70 70 70 69 70 69 69 70 69 71 70 69 68 69 70 70 69 66 66 67 69 68 68 66
70 71 71 71 69 67 69 70 69 69 68 69 68 69 69 69 70 69 70 70 70 71 70 71 70 70 71 69 69 68 68 70 70 70 68 68 68 67 66 69 66 66
70 70 70 71 69 69 69 70 69 69 70 69 69 69 70 70 70 70 71 71 70 70 71 70 71 70 70 70 68 69 69 69 69 68 67 67 68 68 69 69 67 67
68 68 66 64 68 69 68 69 69 69 70 70 70 69 70 70 70 71 71 71 70 70 71 71 71 70 71 70 71 70 69 69 69 68 69 69 69 69 70 68 67 67
63 62 63 63 62 64 68 69 69 69 69 71 69 70 71 70 71 71 70 70 69 71 71 70 70 70 70 70 69 68 68 68 68 69 69 68 69 68 69 67 66 66
63 61 62 62 62 61 61 68 69 69 70 69 71 70 70 71 70 71 71 71 71 71 71 71 70 68 67 67 67 67 67 68 68 67 65 63 61 61 61 65 66 67
62 61 61 60 59 61 63 65 69 69 70 71 71 71 70 69 69 70 70 71 71 67 64 61 61 64 65 66 66 66 66 65 62 61 61 61 61 62 62 62 61 61
61 61 62 62 61 62 62 64 65 66 66 66 66 66 67 68 67 65 64 64 62 63 62 62 61 62 64 64 64 64 63 61 61 60 60 61 60 61 61 61 62 62
60 60 62 63 63 62 61 62 64 64 64 64 63 63 63 64 65 65 65 63 62 61 61 61 62 61 58 55 60 63 61 61 60 61 61 60 61 60 61 61 62 61
62 62 63 65 63 63 63 63 62 63 64 63 63 63 62 62 63 63 63 63 61 60 59 60 60 59 50 46 47 57 62 61 60 62 61 60 58 59 60 62 63 62
65 64 66 65 65 63 63 63 64 63 63 63 62 63 63 64 64 65 65 63 62 60 60 60 61 54 42 40 42 44 59 62 62 61 61 60 59 60 61 62 63 66
63 66 65 63 63 63 63 64 62 63 64 64 63 63 64 65 64 63 63 63 62 62 60 60 58 44 39 40 41 41 45 57 62 62 61 61 61 62 63 63 63 63
63 64 64 65 65 65 64 64 64 64 63 63 63 63 63 62 62 62 61 61 61 61 61 60 58 40 40 40 40 40 41 46 61 63 63 63 64 65 65 64 64 64
63 63 62 63 62 63 64 64 64 63 63 63 62 62 61 61 62 60 60 60 61 61 60 59 57 43 38 40 40 39 40 41 64 65 65 65 65 66 65 64 64 63
63 62 63 62 62 61 62 64 62 61 62 62 62 61 60 60 60 60 60 61 60 61 60 59 56 39 39 39 39 39 39 41 62 65 65 64 63 64 64 63 63 64
69 68 67 65 62 62 63 63 62 62 62 62 62 62 62 62 61 62 62 61 62 62 60 58 52 38 39 40 40 39 38 53 62 63 63 63 63 62 59 57 58 58
71 70 69 69 68 66 64 63 63 63 63 64 62 62 62 62 62 63 64 63 62 61 59 57 55 42 38 40 39 38 45 59 61 63 63 62 62 59 57 54 52 55
70 71 69 68 69 68 66 65 65 65 65 65 64 64 63 63 64 63 63 64 63 62 61 58 57 46 38 39 39 38 41 53 59 62 62 61 60 59 57 53 50 50
68 68 68 68 67 67 66 66 65 66 66 65 64 65 64 65 66 65 64 64 64 62 58 60 57 49 37 39 38 38 43 55 59 62 61 61 60 58 57 54 50 47
67 66 66 66 66 66 66 66 66 65 66 65 66 67 67 67 65 65 64 63 63 62 61 61 59 56 46 37 38 38 38 50 60 60 61 60 61 59 57 54 52 49

ECMWFNIL_sfc_temp_057.txt.gz
Temp
66 67 66 66 65 65 63 63 63 63 62 61 61 61 61 62 62 62 62 62 62 62 62 61 62 62 63 62 61 62 60 59 59 59 59 59 58 59 61 60 58 58
65 66 66 66 65 64 63 64 63 63 62 62 61 61 62 62 62 62 61 61 62 60 59 61 62 62 62 61 60 59 59 60 59 62 59 58 58 60 60 59 58 58
64 65 65 65 65 64 64 64 63 63 63 62 62 62 63 62 62 62 61 60 60 61 62 62 62 62 62 62 61 61 61 58 60 59 59 58 58 60 57 58 58 58
64 65 65 65 64 64 65 64 62 63 62 62 63 63 64 64 62 61 62 64 61 62 62 61 61 62 62 61 60 59 60 60 59 58 58 58 59 59 59 58 58 59
63 64 64 64 64 64 64 64 63 63 63 63 63 62 63 62 61 61 62 61 60 59 60 61 61 61 62 62 61 59 60 59 59 59 58 58 59 61 60 60 58 58
64 65 65 65 65 65 64 63 64 64 63 63 63 63 62 62 61 62 61 60 60 61 62 61 61 62 62 61 60 61 61 62 59 58 58 58 60 60 64 60 58 59
64 64 64 65 65 64 64 64 64 65 65 65 64 63 62 61 62 62 61 61 60 60 60 60 60 61 61 60 60 60 60 59 59 60 61 59 59 59 61 59 58 59
64 65 66 66 64 63 65 65 65 64 64 65 64 62 63 62 63 62 61 62 62 61 60 60 61 61 60 62 62 59 59 62 61 60 59 58 59 60 59 62 59 58
63 63 63 64 65 63 64 65 65 65 65 64 63 62 62 63 64 63 63 63 63 62 62 61 61 62 60 62 61 61 60 61 61 59 59 59 59 59 62 60 59 58
60 59 59 59 61 63 63 64 65 65 64 63 62 62 63 61 63 64 63 62 62 62 62 61 61 60 61 62 62 61 61 60 60 59 58 58 58 58 59 59 57 57
60 59 60 61 60 60 63 63 63 63 62 62 60 61 62 61 62 63 62 62 61 61 60 60 60 61 61 61 61 60 59 59 58 58 58 57 58 58 59 57 58 58
59 58 60 61 60 59 59 61 63 62 62 63 62 63 62 62 62 62 63 61 59 58 58 59 60 60 61 60 59 59 58 58 58 57 58 58 58 58 56 57 56 57
58 58 58 59 58 57 58 58 61 62 63 63 62 64 63 61 61 60 59 59 58 60 59 59 59 59 60 60 60 59 58 57 57 56 57 56 57 57 57 58 58 57
57 58 58 58 58 58 59 59 59 61 60 60 60 60 60 60 59 59 58 59 59 58 59 59 58 58 58 59 59 58 57 57 56 56 56 56 55 56 56 57 57 58
57 57 58 58 58 58 58 59 59 58 58 59 59 59 60 60 60 59 58 58 57 58 57 57 58 57 55 55 58 57 57 57 57 56 56 55 54 55 56 56 57 57
57 58 59 58 58 58 57 58 57 58 57 57 58 58 58 59 59 59 58 58 57 56 56 57 56 53 50 48 52 58 57 57 55 55 56 55 55 55 55 56 56 55
57 57 58 58 58 57 59 59 59 58 57 57 57 58 58 59 59 58 58 57 57 56 56 56 54 50 43 41 42 48 58 56 56 55 55 55 55 55 55 56 55 57
56 57 57 57 58 58 58 58 57 57 57 57 57 58 58 59 59 58 58 57 56 56 55 55 52 45 40 41 42 44 51 57 57 57 57 56 55 55 56 56 57 58
57 57 57 57 58 58 57 57 57 57 57 57 57 57 58 58 58 58 57 56 57 56 55 54 50 40 40 41 41 41 41 49 57 57 58 57 56 56 56 56 57 58
57 58 57 57 57 58 58 57 57 56 56 55 55 55 56 56 56 56 55 55 55 55 55 53 49 41 39 40 40 39 38 42 55 56 57 57 56 57 57 56 57 57
57 57 57 58 57 57 56 56 55 55 56 56 56 55 55 55 55 54 54 54 54 54 53 52 49 38 39 39 39 39 38 39 52 57 57 55 55 54 54 53 55 57
58 57 57 57 56 56 56 55 55 55 54 55 54 54 53 53 53 54 54 54 54 52 52 51 44 37 39 39 38 39 39 47 52 55 55 53 53 52 51 51 54 54
57 56 56 56 56 57 56 56 55 55 55 56 55 55 54 54 55 55 55 55 53 52 52 50 46 39 38 38 38 37 43 51 52 55 54 52 51 50 51 52 53 52
57 56 55 56 55 54 54 55 55 55 56 56 56 55 55 55 55 54 54 54 53 52 53 51 47 40 38 38 38 37 43 50 51 53 52 51 49 48 49 50 52 52
57 57 55 53 53 56 55 54 54 56 55 55 55 55 55 54 55 55 54 53 54 53 54 52 48 42 37 37 37 36 40 50 50 53 52 50 49 47 46 46 46 48
56 56 55 55 55 54 54 55 54 53 54 54 53 55 55 54 54 55 54 54 53 52 54 52 49 45 39 37 37 36 38 44 50 51 51 49 49 49 47 43 43 42

ECMWFNIL_sfc_temp_060.txt.gz
Temp
63 64 63 62 62 62 62 62 60 60 59 57 58 57 58 57 57 57 57 58 59 59 59 59 58 58 59 56 56 57 56 56 55 56 57 57 56 58 59 58 56 56
62 63 63 62 61 61 62 62 61 61 59 58 58 57 57 56 57 57 57 58 59 58 58 58 57 57 56 56 55 55 55 56 57 59 58 56 55 56 55 54 55 55
61 61 62 62 61 61 62 62 62 62 61 59 59 59 59 58 58 57 56 56 57 57 57 57 56 56 56 55 55 56 55 55 56 55 57 55 54 55 52 53 55 55
61 63 63 62 61 61 62 61 61 61 61 60 61 60 60 60 58 56 57 59 57 56 56 57 57 56 56 55 55 56 55 55 55 55 56 55 55 54 54 55 55 56
62 62 63 62 61 63 63 62 62 62 62 62 61 61 62 60 60 59 58 57 57 56 57 57 56 56 56 56 56 55 56 56 55 56 56 55 54 56 55 56 55 55
62 63 63 64 63 63 63 63 63 63 62 62 62 62 62 62 61 60 59 56 57 57 57 57 57 57 56 55 55 55 56 58 55 55 56 54 54 55 58 55 55 55
62 63 63 64 64 64 63 63 63 63 64 64 63 62 62 61 61 61 59 57 57 57 57 57 57 56 56 56 56 55 55 55 55 55 55 54 55 56 56 54 54 55
62 63 64 64 63 61 62 63 63 63 63 63 63 62 62 62 62 61 59 59 57 57 57 57 57 56 56 57 57 56 55 57 56 55 55 54 55 56 55 56 53 55
61 61 62 63 62 61 62 63 63 63 64 64 63 62 62 63 62 62 61 59 59 58 57 57 58 57 56 57 57 57 56 55 55 55 56 55 56 55 55 55 55 54
60 60 60 60 60 61 62 62 63 62 64 64 64 62 62 62 62 62 62 61 61 59 58 57 57 58 57 57 58 58 57 57 55 55 55 55 56 55 55 55 54 54
59 59 59 60 60 60 61 62 62 63 63 64 63 63 62 62 62 62 61 61 60 58 57 57 59 59 59 58 57 57 58 57 57 56 55 55 56 56 58 56 55 55
58 58 60 60 59 59 60 62 62 62 62 63 64 64 62 62 62 61 61 60 59 58 58 58 58 59 58 58 57 57 57 56 56 56 55 55 54 55 56 55 55 55
58 58 58 58 58 58 58 60 62 61 61 61 62 63 62 61 60 60 60 60 59 59 59 58 58 58 57 57 56 56 56 56 55 55 55 55 55 55 55 55 56 56
56 56 57 57 56 56 57 59 59 60 60 61 59 60 60 60 60 60 59 59 59 59 59 58 58 57 57 57 56 56 56 55 55 55 54 54 53 53 54 55 55 55
56 56 56 57 57 57 56 57 58 58 57 57 56 56 58 58 59 59 58 57 57 58 58 57 58 57 57 56 56 56 54 55 55 55 55 54 52 53 53 54 54 55
55 56 56 56 56 57 56 56 57 56 57 56 56 57 57 57 57 58 58 57 57 55 55 56 55 54 54 53 54 57 55 55 54 54 55 54 53 52 52 54 54 54
55 55 55 55 55 54 55 55 56 56 55 56 56 57 57 57 57 57 56 56 57 56 55 55 54 54 47 45 47 50 56 55 55 55 54 54 54 54 54 55 54 55
56 56 55 55 55 55 54 55 54 55 55 55 55 56 56 56 56 57 56 56 56 56 55 54 53 49 41 42 43 44 49 55 55 55 55 54 54 54 55 55 55 55
56 56 55 54 54 54 53 54 54 55 55 55 55 55 56 56 56 55 55 54 55 55 54 53 52 43 40 42 42 42 43 50 54 54 55 54 54 54 55 55 55 54
54 55 55 54 54 53 53 53 53 52 52 52 53 54 55 54 53 54 54 54 54 54 54 53 51 42 40 41 41 41 41 44 53 53 52 53 54 54 55 54 55 54
54 53 54 54 54 54 53 54 53 51 52 51 53 53 54 53 53 53 53 53 53 53 52 51 51 40 39 40 40 40 39 39 49 53 52 51 51 53 55 55 54 53
54 52 52 52 53 53 53 52 50 52 52 50 50 50 50 51 51 51 51 52 52 51 50 50 44 37 39 39 39 39 38 43 50 52 51 49 49 49 51 53 53 52
52 53 53 53 53 52 51 51 51 51 51 52 53 52 52 52 52 52 52 52 50 50 50 48 45 38 38 38 38 37 39 48 51 51 50 49 48 49 50 51 51 51
53 52 51 51 50 52 52 50 49 50 51 51 52 51 51 52 52 51 50 52 50 49 49 48 46 40 38 38 37 36 43 51 50 50 48 48 47 47 48 49 51 52
50 51 52 51 51 51 50 50 50 50 50 51 51 50 51 50 51 52 49 49 49 49 52 50 45 40 37 37 37 35 42 49 50 49 47 46 47 45 44 47 47 49
50 50 50 50 50 50 51 51 51 50 50 50 50 49 50 50 49 49 49 49 47 47 50 49 47 43 38 36 36 36 39 47 50 49 47 45 46 47 45 42 42 42

ECMWFNIL_sfc_temp_063.txt.gz
Temp
62 62 61 60 59 60 60 59 58 59 57 56 56 56 57 56 56 55 55 55 55 55 55 55 55 55 56 54 54 56 54 54 53 52 53 54 53 53 55 53 53 53
62 62 62 60 59 60 59 59 59 60 58 57 57 56 55 55 56 55 55 55 55 54 54 54 54 53 53 53 53 55 53 54 54 56 54 53 52 52 53 52 52 53
61 61 61 60 60 58 58 58 59 59 59 58 57 56 57 55 55 54 54 55 55 54 54 54 53 53 53 51 52 53 53 52 53 52 53 51 52 53 50 52 52 53
61 62 62 61 60 59 58 58 56 58 57 58 59 58 58 58 54 54 56 57 54 53 53 53 53 53 52 51 51 52 51 52 52 51 52 51 52 52 52 52 52 53
61 61 61 61 61 60 59 59 58 57 57 57 57 57 58 56 55 54 53 53 53 53 53 53 53 53 53 52 52 52 53 52 52 51 52 51 51 52 53 53 53 53
61 62 62 62 61 61 60 60 58 57 57 56 56 57 58 57 55 54 54 53 53 54 53 53 53 54 53 53 52 52 52 54 52 51 52 51 51 51 54 52 54 53
60 60 60 61 61 61 61 60 59 59 58 57 56 56 57 57 55 54 53 54 54 54 54 53 53 54 53 53 53 54 52 52 51 51 52 52 52 52 52 53 54 53
59 60 61 62 62 61 61 61 61 60 58 58 57 56 58 59 57 55 54 54 53 54 53 53 54 54 53 53 54 54 53 53 52 50 51 51 51 52 51 53 52 53
60 59 60 61 61 61 61 62 61 61 61 59 58 57 59 60 57 56 56 54 55 54 54 54 54 54 53 54 53 53 53 52 52 51 52 52 52 51 52 51 53 52
58 59 60 60 61 61 61 61 61 60 61 60 59 59 61 60 60 58 56 55 56 55 55 55 55 55 55 54 54 53 53 53 52 53 52 52 52 52 51 52 51 53
58 58 58 59 59 59 60 61 61 60 60 60 59 60 61 61 60 59 57 56 57 55 57 58 58 57 56 55 54 54 54 54 52 53 53 53 52 53 56 51 52 52
57 58 58 58 58 58 58 59 60 61 61 60 61 61 61 62 62 60 60 56 55 54 55 56 56 56 55 55 54 53 53 53 53 53 53 53 53 52 53 53 52 52
58 58 58 58 57 58 59 60 60 60 60 60 61 62 61 61 60 60 58 58 57 55 56 56 56 55 55 55 54 54 54 54 53 53 53 53 53 54 53 53 54 53
57 58 58 58 58 58 59 60 60 60 61 62 61 60 61 61 60 60 58 57 57 57 57 56 56 55 55 55 55 55 54 53 53 54 53 52 51 51 52 54 53 53
57 58 59 59 59 58 58 59 60 61 62 62 61 60 60 59 57 56 55 55 54 56 56 56 57 57 57 56 55 55 53 54 54 54 54 53 51 52 52 51 52 53
55 56 57 57 58 58 57 57 58 58 58 58 58 58 56 55 55 55 56 56 56 55 55 56 56 57 57 53 54 57 55 54 53 53 53 52 52 51 51 52 52 51
54 55 55 56 55 55 55 56 57 57 57 56 55 54 55 55 55 55 55 56 56 56 55 55 56 56 50 45 46 50 55 54 54 53 52 52 52 52 53 53 52 52
54 55 55 54 53 53 53 55 55 55 54 54 54 53 54 54 55 56 55 55 55 55 56 55 55 52 45 44 43 44 49 54 54 54 53 53 53 53 53 52 53 53
53 54 53 52 52 53 51 52 53 54 53 53 54 54 52 53 54 54 54 53 54 54 54 54 55 49 44 43 43 43 44 50 54 53 54 53 53 53 53 53 53 53
54 54 53 52 52 52 52 51 52 53 52 53 52 52 52 53 52 53 53 53 54 54 54 54 53 48 42 42 42 41 41 44 52 52 51 52 53 53 53 53 53 53
55 54 53 53 53 53 53 52 51 51 51 50 51 52 51 51 52 52 53 53 53 53 53 52 53 46 40 40 40 40 41 41 49 51 51 50 51 51 52 53 54 54
55 54 54 53 53 53 52 51 51 51 52 50 49 50 52 53 51 51 52 51 50 51 51 50 49 40 39 40 40 40 39 44 47 49 49 49 49 49 50 53 53 52
52 52 51 52 53 52 51 49 49 49 49 49 51 50 50 51 52 52 51 50 52 53 51 49 51 41 38 39 39 39 40 45 47 48 47 47 47 47 49 51 50 50
51 51 51 50 51 50 50 50 49 49 49 48 50 50 50 51 50 50 49 51 51 51 50 50 50 43 38 39 39 38 41 47 48 48 47 46 45 46 47 48 49 52
49 49 49 49 48 47 48 48 48 49 49 49 48 48 48 48 48 48 47 47 49 49 51 50 49 44 38 38 38 37 39 46 48 47 47 45 46 45 44 45 46 49
47 47 46 46 46 45 46 46 46 47 47 47 48 48 48 46 46 47 48 48 47 46 48 49 47 43 40 37 37 37 38 47 47 48 47 45 45 46 46 43 43 44

ECMWFNIL_sfc_temp_066.txt.gz
Temp
61 60 60 59 58 59 58 57 56 57 56 55 56 56 56 56 56 56 56 56 56 56 56 56 56 56 56 55 56 57 56 55 54 53 54 55 54 55 56 55 55 57
60 60 60 59 58 58 58 58 57 57 56 55 56 55 55 55 55 56 56 56 56 55 54 55 55 55 55 55 55 56 55 55 56 56 54 54 53 54 54 54 55 55
60 59 59 58 58 57 57 57 57 56 56 55 55 55 55 55 55 55 55 56 56 54 54 54 54 54 54 54 54 55 55 54 55 54 54 53 53 53 52 53 54 55
59 60 59 59 58 57 57 57 56 56 56 56 56 56 57 57 56 56 57 58 55 54 53 54 54 54 54 53 54 54 53 53 52 53 55 54 54 53 53 54 54 55
59 59 58 58 58 58 57 57 57 56 57 56 56 57 57 56 56 56 55 54 55 54 54 54 53 53 54 54 54 55 54 53 52 53 54 54 53 55 54 54 55 55
59 60 59 59 58 58 58 58 57 56 56 56 56 57 56 56 56 56 55 55 54 54 54 53 54 53 54 54 53 53 53 54 53 54 54 54 54 54 55 54 55 55
58 58 58 59 58 58 58 57 57 57 57 57 56 56 55 55 56 56 55 55 55 56 55 55 54 54 53 54 54 53 53 53 53 54 55 54 55 55 54 55 55 55
58 58 59 59 58 58 58 57 57 57 56 56 57 56 56 56 56 56 55 55 55 55 54 54 54 54 53 54 55 54 54 54 53 54 55 54 54 56 54 55 54 55
58 58 58 58 58 58 58 58 57 57 57 57 56 56 56 58 57 57 56 55 55 54 54 54 54 53 53 53 53 54 55 54 53 53 55 55 56 55 55 54 56 55
57 58 58 58 58 59 58 58 58 57 57 57 57 57 58 58 59 58 57 56 56 55 55 55 54 54 54 54 54 55 55 54 54 54 54 54 55 55 55 56 56 56
57 57 57 57 58 58 58 58 57 58 57 58 57 58 58 58 57 57 56 56 57 56 55 55 55 55 55 54 54 54 55 54 54 54 54 54 55 55 57 55 55 56
57 57 57 57 58 57 57 58 57 58 58 57 59 59 59 59 58 57 58 57 57 57 56 56 55 55 55 55 54 54 54 54 54 54 54 55 55 55 55 55 56 55
56 56 56 57 57 57 58 58 58 58 58 59 59 60 59 59 58 58 57 58 57 57 56 56 55 55 55 54 54 55 55 55 54 54 54 55 55 54 55 55 56 55
56 56 57 57 57 58 58 58 57 58 58 59 59 59 59 60 59 59 58 58 57 57 56 55 56 55 54 55 55 55 55 55 55 55 54 53 52 52 54 55 55 55
57 57 57 57 58 58 57 58 58 57 58 58 58 59 59 59 59 59 58 57 56 55 55 55 56 56 56 55 55 55 55 55 55 55 54 53 52 52 52 53 53 53
56 57 57 56 56 57 58 58 59 58 58 57 58 58 57 57 57 57 57 57 56 54 54 55 55 55 56 52 53 57 55 55 54 55 54 54 53 53 52 53 53 53
54 54 55 56 56 57 56 57 57 57 57 57 56 55 55 56 56 55 55 55 56 56 55 54 55 56 52 46 45 49 56 55 55 55 54 54 54 54 55 54 53 54
53 54 53 53 53 53 54 56 55 56 56 55 55 55 54 54 54 55 54 54 55 55 55 55 55 53 48 45 43 43 49 55 55 55 54 54 54 55 55 53 53 54
53 54 53 53 52 52 52 52 52 52 52 52 53 53 53 53 53 53 53 53 53 54 54 54 55 49 44 44 43 43 44 50 55 55 55 55 54 55 54 54 54 54
54 54 53 52 53 53 52 52 51 50 49 49 51 53 53 52 51 52 52 52 52 53 53 53 53 47 43 43 43 43 42 45 54 53 54 54 54 54 54 54 54 54
53 53 52 52 52 52 52 52 51 50 50 49 49 51 52 51 51 51 51 50 50 50 51 51 51 44 43 42 42 41 41 42 52 52 53 53 53 54 54 54 54 55
51 50 49 51 51 51 51 50 49 49 49 48 48 49 50 50 49 49 50 50 50 51 51 52 51 43 42 41 40 40 40 47 50 51 52 53 52 52 53 54 54 55
50 49 48 49 50 50 49 48 48 49 49 48 49 49 49 50 50 50 50 50 51 53 54 51 51 45 40 40 40 39 42 48 49 50 51 51 52 51 52 53 54 54
49 49 48 48 47 46 48 49 49 49 49 50 50 50 50 49 49 48 49 50 50 51 51 50 51 44 39 39 39 38 42 47 49 50 50 50 50 49 50 52 53 52
48 48 48 48 47 46 46 47 47 48 48 49 49 50 50 49 49 49 48 48 48 48 51 51 49 45 39 39 39 39 41 46 48 50 50 49 49 49 48 49 50 51
47 47 47 47 46 47 46 45 46 46 46 46 46 48 49 49 48 48 49 49 48 48 48 48 48 48 43 38 39 38 38 44 48 50 50 49 48 49 49 48 48 49

ECMWFNIL_sfc_temp_069.txt.gz
Temp
70 71 70 70 70 70 69 69 69 69 70 69 69 68 69 68 67 68 67 68 68 68 68 69 69 68 68 68 68 71 71 68 68 68 69 69 70 69 69 69 69 71
69 70 70 70 70 69 70 70 69 70 69 68 68 67 68 68 67 68 68 68 68 68 69 69 69 69 70 70 69 69 69 69 67 69 68 68 68 68 68 68 69 70
69 69 68 68 68 68 68 68 69 69 69 68 67 68 67 68 67 68 69 69 69 68 68 69 69 69 70 70 69 69 69 68 68 69 69 68 68 68 67 68 69 68
69 69 69 69 69 68 68 67 67 67 68 67 68 67 67 67 68 68 68 68 69 69 68 69 70 70 71 70 70 70 69 69 69 69 68 68 68 68 68 69 68 69
69 69 70 69 69 68 68 67 67 67 68 68 67 67 68 67 68 69 69 68 69 69 69 69 69 69 70 70 71 70 69 69 68 71 71 69 68 68 68 69 69 68
69 70 70 69 68 66 66 67 67 67 68 67 68 69 69 69 70 70 69 69 69 69 68 69 70 69 70 70 70 70 70 71 70 71 72 70 70 69 70 69 69 69
67 68 67 69 68 68 68 68 67 68 69 69 68 68 68 69 70 70 71 70 70 70 71 70 69 69 70 70 70 69 70 70 71 72 72 71 70 69 70 70 71 70
67 68 68 68 68 68 68 68 67 68 68 68 68 68 70 70 71 70 70 71 72 72 71 71 71 70 70 71 71 69 69 69 70 72 71 70 70 70 69 69 69 71
66 67 67 67 67 68 68 68 68 68 69 68 69 69 70 71 70 70 70 71 71 71 71 71 71 70 70 71 70 71 71 70 70 71 71 71 70 71 72 71 70 69
66 66 66 67 67 68 67 68 68 67 69 69 70 69 70 69 70 70 69 70 70 70 71 71 70 70 70 72 72 72 72 71 71 71 71 72 72 72 72 72 71 69
65 66 66 66 67 68 67 66 67 68 68 70 69 70 70 68 67 67 68 70 69 70 71 71 71 72 71 71 70 71 72 71 71 72 71 71 71 71 69 72 72 71
65 65 66 66 67 67 66 66 66 67 68 69 70 70 68 67 67 67 68 71 72 72 72 72 72 72 73 72 72 70 70 70 70 70 71 72 71 71 72 72 72 71
64 65 65 63 62 63 64 64 66 67 69 69 70 69 65 64 64 65 66 70 71 72 71 70 70 71 71 71 71 72 71 70 69 69 69 69 70 71 71 71 71 71
60 60 59 60 60 61 63 63 64 65 67 68 69 69 68 68 67 66 65 66 70 72 71 70 70 70 71 71 72 71 71 70 70 69 69 68 67 68 69 70 70 70
60 61 62 62 61 60 61 62 63 63 64 65 66 66 67 68 67 66 65 64 65 67 68 68 69 69 70 70 70 70 70 70 69 69 69 67 66 66 66 68 69 69
59 58 58 59 61 61 61 61 60 60 61 63 63 64 64 64 64 64 65 66 65 64 65 64 65 66 61 55 60 71 70 70 68 69 69 69 67 66 66 65 66 68
58 58 58 57 58 58 58 58 59 60 61 62 60 61 62 62 62 62 63 64 65 64 62 62 63 64 45 42 44 52 67 69 70 69 69 69 69 69 68 67 67 67
58 59 59 58 58 58 59 59 59 60 60 61 61 60 60 60 61 61 61 62 63 64 63 63 65 51 44 42 43 45 52 68 69 69 68 69 70 70 70 69 67 66
58 58 58 58 60 61 60 60 60 60 60 59 59 58 58 58 59 60 61 62 63 63 62 63 67 45 43 42 42 43 44 54 69 69 69 69 69 69 70 69 68 68
61 61 58 58 58 59 60 60 61 60 58 58 58 58 58 58 59 60 60 61 61 63 62 63 67 46 42 42 42 41 40 48 64 65 66 68 68 68 68 68 67 67
58 60 59 59 59 58 58 60 60 60 60 59 60 60 61 61 62 62 62 62 62 63 65 64 63 41 41 40 40 41 40 47 61 62 64 65 65 66 66 66 67 66
54 55 56 58 57 56 56 57 57 57 58 59 61 62 62 62 62 63 62 62 63 63 64 64 59 39 41 40 40 40 39 56 60 61 62 63 64 64 65 66 67 67
52 52 53 55 56 56 55 56 57 56 56 58 61 60 61 62 62 63 63 63 62 63 63 63 63 46 40 40 40 39 46 60 60 60 60 60 61 63 64 65 65 66
51 52 52 52 53 53 53 54 55 56 56 56 58 57 56 57 60 61 62 62 61 61 60 61 62 47 40 40 40 38 45 57 59 60 60 60 61 62 63 64 64 56
50 50 50 50 50 49 50 52 52 52 54 55 57 58 57 58 56 57 57 56 56 56 52 55 58 49 40 40 39 39 46 55 56 60 59 60 61 62 63 64 65 59
49 49 49 49 49 49 49 49 50 50 50 50 52 56 58 58 58 58 56 54 55 55 54 53 54 55 46 38 40 39 39 50 55 59 61 62 62 63 64 65 63 64

ECMWFNIL_sfc_temp_072.txt.gz
Temp
76 76 76 77 77 78 77 76 76 76 77 76 76 76 76 76 77 77 77 77 77 76 76 76 76 76 77 77 76 79 78 75 75 75 76 75 76 75 74 74 74 76
75 76 77 78 78 77 76 75 75 76 76 75 75 75 77 76 76 77 76 76 76 76 76 75 76 76 77 78 76 77 77 75 75 77 75 75 75 75 75 75 75 76
75 76 76 77 76 74 73 74 75 76 76 76 76 76 75 76 75 77 77 76 76 75 75 75 76 76 77 77 77 77 76 75 75 76 77 76 76 76 76 76 76 75
75 76 77 77 77 75 74 74 76 77 76 74 74 76 76 75 76 76 76 76 76 75 75 75 75 77 78 77 77 77 77 77 77 77 76 77 77 77 76 77 76 77
75 76 77 77 77 77 75 75 76 77 76 75 75 76 76 75 75 76 76 76 76 76 76 76 76 76 77 77 78 76 77 77 77 78 78 76 77 77 76 76 76 75
75 77 77 77 77 77 76 75 74 75 76 75 75 77 76 76 77 76 76 76 76 76 75 76 76 76 77 77 77 76 77 78 77 78 78 77 77 78 79 77 76 75
74 75 76 77 77 77 76 76 75 76 77 76 77 76 77 76 77 77 78 77 77 77 77 76 75 75 77 76 77 76 77 77 78 79 78 78 78 76 78 78 77 76
74 75 76 77 76 76 76 76 76 76 76 77 75 76 77 77 78 77 78 77 78 78 77 77 77 77 77 77 77 75 75 76 77 78 78 78 77 77 77 78 77 77
74 74 75 75 75 75 76 77 76 76 77 76 76 77 78 78 78 77 77 78 78 77 78 78 77 77 77 77 76 76 76 76 77 77 76 76 76 78 80 79 77 76
74 75 74 74 74 75 75 76 76 76 77 76 77 77 77 77 78 78 78 77 77 78 78 78 77 76 77 77 77 77 77 76 77 77 77 77 77 79 80 78 77 76
73 74 73 74 74 75 75 76 76 76 77 78 77 76 77 77 77 78 77 77 76 78 78 77 77 77 77 77 77 77 77 77 77 78 77 77 77 77 75 78 77 77
70 69 68 71 74 74 74 75 76 76 76 77 78 77 77 76 76 77 77 77 78 79 79 78 79 78 78 78 78 77 77 77 77 77 77 78 77 78 78 78 77 77
62 64 66 65 66 71 74 75 76 76 77 77 77 77 76 76 76 76 76 77 78 78 78 78 78 78 78 77 78 78 77 77 76 76 76 76 77 77 78 78 78 78
62 63 63 63 63 64 68 72 74 75 76 77 77 76 75 76 76 75 76 77 78 78 78 77 77 78 78 78 79 78 77 77 76 76 76 76 75 77 77 77 77 77
63 63 63 63 62 63 65 67 69 71 73 75 76 76 75 76 76 76 75 75 74 74 75 75 76 76 78 78 78 77 78 76 76 76 76 75 75 76 76 76 77 77
66 64 62 61 62 63 63 65 67 69 70 71 73 74 74 75 76 76 75 73 72 72 73 73 75 77 63 50 55 75 77 76 75 76 76 76 75 75 75 75 76 76
68 64 62 61 62 63 64 65 65 65 67 67 68 70 71 72 73 74 73 72 71 70 71 73 73 72 44 45 46 47 68 76 75 75 76 75 75 74 74 74 74 77
64 63 61 60 61 61 62 62 61 61 62 63 65 66 67 69 69 70 70 70 69 70 69 71 73 52 43 44 45 44 49 68 76 76 75 76 76 75 76 75 74 74
65 64 62 63 63 63 62 60 59 58 59 61 63 65 66 67 67 66 65 66 66 67 69 69 72 43 44 41 43 45 45 54 77 76 75 75 75 75 76 76 75 74
65 64 64 64 64 64 64 64 63 62 62 64 64 65 65 65 65 65 65 64 65 67 67 70 66 45 41 41 43 42 42 49 73 73 74 75 75 75 75 75 74 74
63 64 63 64 65 64 63 64 65 64 64 64 65 65 64 64 64 64 64 65 65 67 69 66 55 40 41 40 41 41 42 46 70 71 73 74 74 74 74 73 74 73
62 62 62 64 64 64 62 62 63 63 62 63 64 64 64 65 65 66 64 65 66 67 67 62 51 39 40 41 40 42 39 61 71 71 72 73 73 73 73 74 74 73
58 59 59 61 62 63 62 60 59 60 62 65 65 66 65 66 66 67 68 67 67 67 67 62 55 43 39 40 41 39 46 69 70 72 72 71 71 72 72 73 72 72
58 59 59 60 61 63 62 62 63 64 63 64 64 64 64 65 66 65 65 66 66 65 64 63 57 45 39 40 39 39 46 65 72 71 71 71 71 71 72 72 71 61
57 58 58 59 59 60 62 62 61 60 61 64 65 66 64 64 63 63 64 65 64 62 56 62 60 50 39 40 38 39 49 67 70 71 70 70 71 71 71 72 72 63
56 56 55 56 57 58 58 59 61 61 61 61 62 64 64 64 63 64 61 60 62 64 63 64 62 58 47 37 39 40 39 55 69 70 70 70 70 70 70 71 70 71

ECMWFNIL_sfc_temp_075.txt.gz
Temp
68 66 65 68 75 76 77 78 78 77 78 78 77 78 78 78 79 78 78 78 78 78 78 78 78 78 79 78 78 81 79 76 76 76 76 76 75 75 73 72 70 72
68 67 68 72 75 77 78 78 78 78 78 77 78 78 78 78 78 78 77 77 78 78 78 77 78 78 78 79 78 78 77 76 75 78 75 75 75 75 74 75 74 73
68 67 70 75 76 76 77 78 78 78 77 77 76 77 77 77 77 78 78 78 78 77 76 77 77 78 79 79 78 78 77 77 76 77 77 77 77 76 76 75 76 76
69 72 75 77 77 76 77 77 77 77 76 75 75 77 77 77 78 77 77 78 77 76 76 77 77 78 80 79 79 78 78 78 78 78 77 77 78 77 76 76 76 76
75 77 77 77 78 78 77 77 77 76 76 76 77 77 77 77 77 78 77 77 77 76 76 77 77 78 78 78 79 78 78 78 78 78 78 77 78 77 77 76 75 75
76 79 79 78 77 77 77 77 78 77 76 76 76 77 76 76 78 78 77 77 77 77 76 77 77 77 78 79 78 77 77 78 78 79 79 78 78 78 80 77 76 75
75 76 77 78 78 78 77 78 78 78 77 77 78 77 77 76 78 78 79 78 78 78 78 77 77 77 78 78 78 77 78 78 79 80 79 79 78 78 80 78 77 76
74 77 77 78 77 77 77 78 77 77 76 75 75 76 77 77 79 78 78 79 79 79 78 78 77 78 78 78 78 77 77 78 78 79 79 78 78 78 78 79 77 76
72 75 76 76 76 76 76 77 76 76 77 76 76 77 78 78 78 77 78 79 79 79 79 79 78 78 78 78 77 77 77 77 78 78 77 77 77 78 79 79 77 76
69 71 74 74 75 76 76 76 76 77 77 77 78 78 78 78 78 79 79 79 78 79 79 79 79 78 78 78 78 78 78 77 78 77 78 78 79 80 80 78 77 75
65 65 69 74 75 76 75 76 77 77 77 79 78 78 79 78 78 79 78 79 77 79 79 79 79 79 78 78 78 78 78 78 78 79 78 79 79 79 77 79 77 77
63 63 64 71 74 75 75 75 76 77 77 78 79 78 78 78 78 79 78 79 79 80 80 80 80 79 79 79 79 79 78 78 78 78 78 79 78 79 79 79 78 78
62 63 66 67 71 74 75 76 77 77 77 78 78 78 77 77 78 79 78 79 80 80 80 79 79 79 79 78 79 79 78 78 77 77 78 78 79 79 79 79 79 79
64 66 66 68 70 73 75 75 76 76 77 78 78 77 77 78 78 77 78 79 79 80 80 80 79 79 80 79 80 79 77 77 77 77 77 77 77 78 78 78 78 78
67 67 67 68 70 71 73 75 75 75 77 77 77 77 77 78 78 78 77 78 79 79 80 79 78 78 79 78 79 78 78 77 77 77 77 76 76 77 77 78 78 78
66 66 67 67 67 68 69 71 74 75 75 76 76 76 76 77 78 78 78 77 77 77 77 76 77 75 56 45 51 70 77 77 77 77 77 77 76 76 76 77 77 77
66 67 67 67 67 67 68 69 69 70 71 72 73 74 74 76 76 76 76 76 76 75 74 75 75 66 42 42 42 43 66 76 76 76 77 76 75 75 75 75 76 78
61 62 64 66 66 67 67 66 66 66 66 68 69 69 70 72 73 74 74 74 75 75 74 73 67 46 41 42 41 41 47 65 76 77 76 76 77 76 77 76 75 75
61 61 61 62 63 63 63 63 62 60 62 65 66 67 69 68 68 68 69 70 70 71 72 73 63 42 42 43 43 42 43 53 76 77 76 76 76 76 77 76 75 75
61 61 60 61 61 61 61 61 61 59 60 61 62 64 65 65 66 66 66 65 65 66 67 65 56 44 41 41 43 41 42 46 73 74 75 76 76 76 75 74 75 74
63 63 62 62 63 63 64 64 61 60 61 62 62 62 63 65 65 65 65 65 66 67 66 57 50 40 39 40 40 41 40 45 66 71 73 74 73 69 70 74 74 74
61 62 64 64 63 64 63 63 62 62 63 65 65 65 66 66 67 67 66 67 67 68 62 56 50 39 39 39 40 41 39 54 64 67 69 71 71 69 65 68 73 74
62 62 60 60 60 61 60 59 60 63 65 67 67 67 67 67 66 66 67 66 67 65 61 58 54 42 39 39 39 38 45 59 64 69 69 69 70 67 67 74 72 74
60 61 62 61 62 62 61 60 60 60 61 64 66 66 65 66 67 66 65 64 61 61 61 57 53 44 39 39 39 38 42 54 63 68 68 66 68 70 73 73 73 63
60 60 61 61 61 61 61 60 61 62 61 60 60 63 66 66 66 65 64 64 63 61 57 58 55 48 39 39 38 39 44 53 61 66 67 67 70 71 70 70 71 63
61 60 60 61 61 60 61 61 64 65 65 64 62 61 62 63 60 62 62 62 62 62 62 62 58 53 44 38 38 39 38 47 58 63 63 62 63 63 64 63 60 59

ECMWFNIL_sfc_temp_078.txt.gz
Temp
70 70 69 69 69 71 70 71 72 72 72 72 72 72 72 72 73 72 72 72 72 72 72 72 72 73 74 72 72 74 73 70 70 71 72 71 70 70 69 69 68 68
69 69 68 68 68 69 71 72 72 72 72 72 72 72 72 72 72 72 72 72 72 72 72 72 72 73 72 72 73 71 70 70 70 74 70 70 70 70 69 69 68 68
69 68 68 68 69 69 72 73 73 72 72 72 72 72 72 72 72 72 72 71 71 71 71 72 72 72 73 72 72 71 71 70 70 71 71 71 70 70 69 69 69 68
69 69 69 70 71 72 73 72 72 71 71 71 71 72 73 73 72 72 72 73 70 70 71 71 72 73 73 73 72 70 71 71 71 71 70 70 71 71 70 70 69 69
68 68 69 71 73 73 73 72 71 71 71 71 72 72 72 71 71 71 71 71 70 70 71 71 72 72 71 72 72 70 71 70 71 71 70 70 70 70 71 70 69 69
68 69 70 73 73 72 72 72 73 73 72 71 71 72 72 72 72 72 71 70 71 71 71 71 71 71 72 71 70 71 71 71 71 72 72 71 70 71 75 72 69 69
66 67 69 72 72 73 72 72 72 72 72 71 72 71 72 72 72 72 73 72 72 72 72 71 70 71 72 71 70 71 71 71 72 73 72 70 70 71 73 72 70 69
65 65 64 67 71 71 71 73 72 71 71 72 71 72 72 73 74 72 72 73 73 73 72 72 72 72 72 72 70 71 69 73 73 73 71 71 71 71 70 73 70 70
64 65 66 67 71 71 72 73 72 71 72 71 72 72 73 73 73 72 73 73 73 72 72 71 72 72 71 72 70 70 70 71 71 71 69 71 71 70 72 72 69 69
64 64 65 67 69 70 71 72 72 71 72 72 73 72 73 72 73 73 73 72 72 72 72 72 72 71 72 72 72 70 71 72 72 69 72 70 71 72 73 71 69 68
64 63 63 65 68 70 70 71 72 72 71 73 72 72 73 72 73 73 72 72 72 73 73 72 72 72 72 71 70 70 71 71 70 71 71 72 70 71 72 71 69 68
63 63 63 65 67 69 70 71 71 71 71 72 73 73 72 73 72 72 72 73 73 73 72 72 73 71 72 72 71 71 70 70 70 71 71 71 72 71 71 71 69 70
63 64 65 67 67 69 70 71 71 71 72 73 73 73 72 72 73 73 73 73 74 73 73 72 72 72 71 70 72 72 71 70 70 71 70 70 72 71 71 71 71 71
63 65 66 67 68 69 70 70 70 71 71 72 72 71 71 73 72 72 72 73 73 73 72 71 71 71 72 72 72 71 70 70 70 69 69 70 70 71 71 71 70 70
65 66 67 68 69 70 69 69 70 70 71 71 71 71 72 72 73 73 73 73 73 73 72 72 70 65 63 66 72 71 70 70 70 70 69 70 70 69 70 72 71 70
64 65 65 66 66 67 67 69 69 70 70 69 71 71 71 71 71 71 72 72 72 71 71 69 63 58 49 44 47 63 71 72 70 70 71 69 70 69 69 71 71 68
64 62 62 63 65 65 65 65 66 66 68 69 69 69 70 70 71 70 70 71 71 70 68 62 56 49 43 40 42 45 60 66 69 69 71 71 69 70 67 69 70 70
62 62 62 62 63 63 63 64 64 65 65 66 66 66 66 67 67 69 69 69 69 70 65 59 53 44 40 41 41 41 46 60 66 69 71 69 69 69 70 67 65 64
61 61 61 60 60 60 61 62 62 62 62 63 64 65 66 65 65 65 64 65 66 64 60 57 54 42 41 42 41 40 41 54 67 67 68 68 68 66 64 64 61 59
60 60 59 59 59 59 60 60 60 59 59 60 61 63 63 63 63 63 63 64 63 60 56 53 50 42 40 41 41 41 40 47 65 65 66 68 66 63 61 62 63 62
60 60 59 59 59 59 58 58 58 58 59 59 60 61 62 62 61 61 62 62 62 58 55 51 46 40 40 40 40 40 41 45 63 64 66 66 67 64 62 62 63 62
58 59 59 59 59 59 58 58 57 58 59 59 59 61 63 63 62 62 62 62 62 59 56 51 45 39 39 39 39 39 42 56 61 62 63 65 65 65 63 63 63 61
57 58 58 58 58 58 58 58 57 58 58 60 61 61 62 62 62 63 64 63 61 59 56 52 47 40 38 39 39 38 45 56 60 62 63 63 63 63 63 62 61 60
58 57 57 57 58 58 58 58 58 58 58 59 62 62 62 63 62 61 61 61 59 56 54 50 47 42 39 39 39 38 44 54 58 60 62 62 61 61 61 60 59 58
59 59 58 56 56 58 59 58 57 58 57 58 57 58 59 61 61 61 60 59 58 56 54 52 49 45 40 40 40 40 44 52 56 60 61 61 60 60 59 59 58 51
59 58 58 57 57 57 58 58 59 59 59 57 57 57 56 56 56 58 58 57 56 55 54 53 49 47 43 40 41 42 42 52 58 55 54 56 61 62 61 59 57 53

ECMWFNIL_sfc_temp_081.txt.gz
Temp
63 65 64 64 64 65 64 64 64 64 64 65 65 66 67 67 67 67 67 67 67 66 66 65 65 65 68 66 64 66 65 65 65 65 65 65 64 64 65 64 63 63
62 64 65 65 64 65 65 65 66 66 65 66 66 66 67 67 67 68 67 66 67 66 65 65 64 64 64 65 65 64 64 65 65 69 65 64 64 64 63 63 63 62
63 62 64 64 65 65 66 66 66 67 66 66 67 67 67 68 67 68 66 66 66 65 65 65 65 64 64 65 64 65 65 63 64 64 65 65 63 64 63 63 63 63
64 63 64 65 65 66 66 66 65 66 66 66 67 68 69 68 67 65 66 67 65 64 63 64 64 64 65 65 64 64 64 64 64 63 63 63 63 64 64 64 63 63
64 64 64 64 64 64 66 66 66 66 67 66 67 67 67 66 65 65 65 64 65 63 63 64 64 64 64 65 65 63 62 63 63 64 63 61 62 64 64 64 63 63
63 64 63 63 63 65 66 66 66 67 66 66 66 66 65 65 65 65 65 64 63 63 64 62 63 64 63 64 63 64 65 66 63 62 62 63 63 63 68 64 63 62
62 62 62 63 63 64 67 66 66 66 66 66 66 65 65 65 65 65 65 64 63 63 62 62 63 63 63 64 64 64 64 63 62 63 64 62 63 63 66 65 63 63
62 62 63 64 64 65 67 66 66 65 65 65 65 65 65 66 66 65 65 64 63 62 62 63 63 62 62 63 62 62 61 64 65 61 62 62 61 63 62 66 63 63
62 62 63 63 64 65 67 67 66 65 66 65 66 65 65 67 67 66 65 65 64 63 62 63 63 62 61 61 61 61 61 62 61 62 61 61 62 63 64 63 62 62
62 62 62 62 63 64 66 67 66 66 66 66 66 65 65 67 68 68 66 64 64 64 64 63 63 64 62 62 63 62 62 63 62 62 62 61 62 64 64 64 62 61
61 61 61 62 61 63 66 67 66 65 65 66 66 64 65 67 66 65 65 64 64 64 64 62 63 64 62 62 63 61 61 61 61 61 63 61 63 64 66 63 63 62
60 60 61 62 63 65 66 66 66 65 64 65 66 65 66 66 64 64 65 65 64 65 64 64 65 62 62 63 62 61 60 61 60 61 62 64 63 64 64 63 62 61
59 60 60 61 62 65 66 66 66 65 65 66 65 65 65 64 63 64 62 65 63 64 64 65 64 63 63 62 62 61 60 61 61 60 61 61 62 62 62 62 62 62
59 60 61 62 62 64 65 66 65 64 65 65 65 66 64 65 65 65 62 63 63 63 61 60 58 57 58 61 62 61 62 61 61 61 61 60 61 63 63 63 62 61
60 61 61 63 63 63 64 65 65 63 64 65 66 65 65 65 65 65 63 62 61 60 58 57 55 52 50 50 60 63 62 61 61 62 62 62 61 63 63 62 62 61
60 60 61 61 61 62 63 63 63 63 64 64 65 64 64 65 66 63 62 61 59 57 55 53 51 49 46 44 49 59 60 62 61 61 61 60 62 62 62 63 62 61
59 59 59 59 59 61 61 62 61 62 63 62 61 61 63 64 64 63 62 61 58 56 53 51 48 46 42 40 42 49 61 62 62 61 61 63 63 61 59 59 60 61
59 59 58 58 58 59 59 60 61 62 61 61 61 61 61 61 61 61 60 59 57 55 52 50 46 42 40 41 42 44 52 61 61 62 63 63 62 61 61 60 59 59
59 58 57 57 57 57 57 58 59 59 60 61 60 60 60 60 59 59 57 56 55 52 50 48 46 40 40 41 41 42 47 56 61 62 62 61 61 61 60 59 58 57
58 57 57 57 57 57 57 56 57 57 57 58 59 59 59 59 59 58 57 55 54 52 49 47 45 41 40 41 41 42 46 53 60 61 61 62 61 59 59 58 57 57
57 57 56 57 56 56 56 56 56 56 57 57 58 58 57 57 58 57 56 54 53 51 49 46 45 40 40 41 41 43 47 52 60 61 61 61 60 59 59 59 58 57
57 56 56 56 56 56 56 56 56 56 56 56 58 58 58 57 58 57 56 54 53 51 49 47 45 40 40 41 42 44 48 58 60 60 61 60 60 59 58 58 57 57
55 56 56 56 56 55 55 55 55 56 56 56 57 57 57 57 57 57 56 54 52 50 48 46 44 41 40 41 41 44 50 56 57 59 59 58 58 58 57 58 57 58
53 53 54 55 55 55 55 55 55 55 55 56 56 56 55 56 55 54 53 52 50 49 49 47 45 43 41 41 42 43 50 55 56 57 57 57 57 56 55 52 51 53
53 54 53 53 53 54 55 55 55 55 55 56 56 56 56 55 54 53 52 51 50 49 50 47 46 45 42 42 43 44 50 53 54 54 53 54 55 54 52 49 48 47
54 53 53 53 53 53 53 54 55 55 55 54 54 54 53 52 52 52 50 50 50 50 49 48 47 46 43 42 43 43 45 51 50 50 50 51 53 54 53 51 49 48

ECMWFNIL_sfc_temp_084.txt.gz
Temp
62 62 62 63 63 63 62 61 61 62 62 62 62 62 63 64 64 64 64 63 64 64 63 63 63 64 65 64 63 64 64 64 64 62 63 62 61 61 62 60 59 60
61 62 62 63 63 63 62 62 62 62 62 62 63 63 63 63 64 64 63 63 64 64 64 64 63 64 64 63 62 62 61 62 62 64 63 62 61 62 62 61 61 59
61 61 61 61 62 62 62 62 62 62 62 63 62 62 63 64 64 63 64 64 64 64 64 63 63 63 64 63 62 62 62 61 62 62 63 62 61 62 61 60 60 61
61 61 61 62 62 62 61 61 62 63 62 63 62 63 64 64 64 63 64 65 63 63 62 62 62 63 64 63 62 61 62 62 62 62 62 61 61 62 61 60 59 59
61 61 62 62 62 62 62 62 61 62 63 63 63 63 63 63 63 63 63 62 62 61 61 61 60 62 62 62 62 61 60 61 60 62 61 60 60 62 60 61 60 60
62 63 63 63 63 62 62 62 62 62 63 63 63 63 63 63 63 63 62 61 61 61 60 59 60 61 61 60 61 61 61 62 59 60 61 61 60 60 63 61 60 60
62 62 62 62 62 62 61 61 62 62 63 65 63 63 63 63 63 63 62 62 60 60 60 58 59 59 60 60 60 60 59 60 58 60 61 59 60 59 62 61 61 61
62 62 62 62 61 62 61 62 62 62 63 64 64 63 64 63 63 62 62 62 61 59 58 59 60 60 59 60 61 59 58 60 59 58 59 59 58 59 59 63 61 60
61 61 62 61 62 62 62 63 64 63 65 64 64 62 63 63 62 62 62 61 60 59 59 58 60 60 59 60 59 59 58 59 58 58 58 58 58 59 60 60 60 60
60 61 61 61 62 63 64 65 66 65 65 65 64 63 63 63 63 62 62 61 60 59 59 59 59 59 59 59 59 58 57 58 57 57 59 59 60 59 59 60 60 60
59 60 61 61 61 62 63 65 66 66 64 64 63 63 63 62 62 62 62 61 61 60 59 59 59 59 60 58 58 56 56 57 56 56 57 59 60 60 62 59 59 60
59 59 60 61 61 62 62 64 65 65 65 63 64 64 62 62 61 61 62 62 62 62 60 59 58 59 60 59 58 56 56 56 56 57 59 60 59 60 60 59 60 58
58 58 58 60 61 62 63 63 64 65 64 63 64 65 63 61 62 62 61 62 63 62 61 59 58 59 60 60 58 56 56 57 57 57 59 59 58 58 58 58 58 58
57 58 58 59 60 62 64 64 64 64 64 62 63 64 62 62 63 63 60 61 59 58 56 57 58 57 55 56 57 57 56 56 58 59 58 58 57 58 58 58 58 58
57 58 58 59 59 60 61 62 63 63 62 62 63 63 63 62 61 60 58 58 57 56 54 53 52 50 50 50 56 58 57 58 59 60 59 58 58 58 58 58 59 58
58 58 59 58 59 59 59 60 61 61 62 62 63 62 61 60 59 59 58 57 55 53 52 51 49 49 47 46 53 59 58 59 59 59 59 59 59 58 57 58 58 59
58 58 58 58 58 58 58 58 59 61 61 61 60 60 59 59 59 57 56 55 53 52 50 48 47 47 43 43 49 53 59 59 59 58 58 59 58 58 57 57 56 57
57 58 57 57 58 58 58 57 59 60 60 59 59 59 59 58 57 55 54 53 52 51 49 48 46 43 40 43 48 51 55 60 59 59 58 58 58 57 57 57 57 57
57 57 56 56 56 57 57 57 58 59 59 59 59 59 58 56 55 54 52 52 51 49 48 48 46 42 41 43 45 47 50 56 59 59 59 58 58 58 57 56 55 56
56 56 55 55 55 56 57 57 57 56 57 58 58 58 57 55 54 52 52 50 50 49 48 47 46 43 41 44 46 46 48 53 58 58 58 58 58 57 57 57 56 55
56 55 55 55 55 55 56 56 56 56 56 56 56 56 55 53 52 51 51 50 50 50 48 45 44 41 40 43 46 47 49 52 58 59 58 57 57 56 56 56 57 57
55 55 54 55 55 55 55 55 55 56 56 56 56 55 54 53 52 51 50 49 49 49 48 46 45 40 41 42 45 46 49 57 59 58 58 57 57 57 56 56 56 56
53 54 54 54 54 55 55 54 55 55 55 55 54 53 51 50 49 50 50 49 49 48 47 46 46 42 41 42 43 48 52 58 57 57 56 56 54 53 52 52 53 53
53 53 53 53 54 53 54 54 54 54 54 54 53 51 49 49 48 47 47 47 47 47 47 46 45 43 41 42 43 45 51 56 56 56 55 53 51 50 50 49 51 52
52 52 52 52 52 53 54 54 54 54 54 54 52 51 49 48 47 46 46 46 46 46 49 47 46 45 42 41 42 44 49 52 54 54 53 51 50 48 48 48 48 47
53 52 51 51 52 53 53 53 53 54 53 52 51 50 49 48 47 46 46 45 46 47 46 46 45 45 43 41 42 43 45 51 51 52 51 51 51 50 49 47 46 46

ECMWFNIL_sfc_temp_087.txt.gz
Temp
62 62 61 62 62 63 63 63 63 63 63 63 63 61 61 62 62 62 62 62 62 62 62 62 62 63 64 63 63 64 63 63 62 61 61 61 60 60 60 59 58 59
62 62 63 63 62 62 63 63 62 62 61 62 62 61 60 61 61 62 61 61 62 62 61 61 62 62 62 62 62 62 61 61 61 62 61 60 59 60 60 59 59 58
62 62 62 62 62 62 62 62 62 61 61 61 61 61 61 61 61 61 61 61 62 61 61 61 61 61 62 61 61 62 61 60 60 59 61 60 59 60 60 59 58 59
61 62 62 63 62 62 61 61 61 61 60 60 61 62 63 63 62 61 61 63 61 60 60 60 61 61 61 61 60 60 60 60 60 60 60 58 60 61 59 59 58 57
61 61 62 62 62 62 61 61 61 61 61 61 61 61 62 61 61 61 60 60 60 59 60 60 60 61 60 60 60 59 58 59 58 60 60 59 58 59 58 59 59 59
61 62 62 61 62 61 61 61 61 61 61 61 60 61 61 62 61 61 61 59 59 60 59 58 59 60 60 60 59 60 59 60 58 59 60 59 58 57 61 59 59 58
61 61 61 61 61 61 61 61 61 61 61 60 60 60 60 60 61 61 61 60 59 60 59 58 58 58 58 59 59 58 58 58 57 59 60 57 58 56 59 59 59 59
61 61 62 61 61 60 60 60 60 60 60 60 60 60 61 60 60 61 60 60 59 58 57 58 58 58 57 58 59 57 56 58 58 57 57 56 56 57 57 60 58 58
61 61 61 60 60 60 60 61 60 60 61 60 60 60 61 61 61 60 60 59 59 57 57 57 58 57 56 58 57 57 57 56 57 56 56 56 56 57 58 57 57 57
61 60 60 60 60 60 60 60 61 60 61 60 60 60 60 61 61 60 59 59 58 56 57 57 57 57 57 57 57 56 56 56 54 55 56 57 58 57 57 58 58 57
58 59 59 59 58 59 59 60 60 60 61 61 60 60 62 61 60 59 59 58 59 57 56 57 58 57 57 56 55 55 57 56 54 54 55 57 57 57 60 58 58 58
58 58 58 59 59 59 59 60 60 61 61 62 62 62 62 62 60 60 61 59 58 59 59 58 57 57 57 56 54 53 53 53 54 55 56 55 55 56 57 56 57 56
57 57 58 59 59 59 60 61 60 60 61 61 62 63 62 61 59 59 58 59 59 59 58 57 56 56 56 54 54 53 54 53 53 54 55 55 54 55 55 56 56 56
56 57 57 58 59 60 60 60 60 60 60 60 61 62 61 61 60 59 56 57 56 56 55 55 54 53 52 53 53 54 54 54 55 56 55 55 55 55 55 56 56 56
56 57 57 58 58 59 59 60 59 59 60 61 61 60 60 58 58 58 57 55 54 54 54 53 51 49 49 49 53 54 55 55 56 57 56 56 55 55 56 56 57 56
57 57 58 58 59 58 58 59 59 59 59 59 59 57 56 57 57 57 57 55 53 53 52 51 49 49 49 47 51 57 56 57 56 56 57 57 56 56 56 56 57 57
57 57 58 58 58 57 57 58 58 59 59 58 57 57 56 56 57 56 54 53 52 51 49 49 47 48 44 44 48 52 57 57 56 56 56 57 57 56 55 55 55 56
56 57 57 57 57 58 57 58 57 57 57 57 57 56 55 55 54 53 52 51 51 50 48 47 47 45 42 48 47 49 53 57 57 57 56 56 55 55 55 54 54 54
56 56 56 56 57 57 57 57 56 56 56 56 55 55 54 53 52 51 50 51 51 50 48 47 46 43 43 45 46 47 49 54 56 56 56 55 56 55 55 54 52 52
54 54 54 55 55 55 56 56 56 55 54 55 54 53 52 51 50 49 49 50 50 49 47 46 46 43 43 44 45 46 48 52 57 57 56 55 55 55 55 55 54 54
54 54 54 54 55 55 54 54 54 54 54 53 53 52 51 50 50 49 49 49 49 49 48 46 45 40 43 45 46 47 48 51 56 56 55 55 55 55 55 54 54 54
54 53 53 54 54 55 54 54 54 53 52 52 51 50 49 49 49 49 48 48 48 48 47 46 45 40 40 44 46 46 49 55 56 56 55 53 52 52 53 53 53 53
53 54 53 53 53 54 54 53 52 52 51 50 48 47 47 47 48 48 48 48 47 47 46 44 44 42 40 41 46 47 51 56 56 54 52 50 49 49 50 51 51 50
52 52 53 53 53 53 52 52 52 51 50 49 47 46 45 46 46 45 45 46 46 45 45 43 43 43 40 41 42 47 52 56 54 52 50 48 48 48 48 48 50 52
51 51 51 52 52 52 52 52 51 50 49 48 47 46 45 45 45 44 44 44 45 45 47 44 43 43 41 40 41 44 51 54 53 51 49 48 48 46 46 46 46 45
50 50 50 50 51 52 52 51 51 49 48 47 47 46 45 45 45 44 43 43 44 44 44 44 43 43 41 40 41 42 45 52 52 51 49 48 49 49 47 46 46 46

ECMWFNIL_sfc_temp_090.txt.gz
Temp
62 62 62 62 62 63 64 63 64 63 63 63 62 61 61 62 62 63 63 63 63 63 63 63 63 63 63 63 63 64 64 63 63 63 63 63 63 62 61 61 61 62
62 62 62 62 62 63 64 64 64 64 64 64 63 62 61 61 62 63 62 62 63 63 62 62 62 62 63 63 63 63 62 62 62 63 62 62 61 61 62 61 61 60
62 62 62 62 62 62 63 64 64 64 64 64 63 63 61 62 62 62 62 62 62 62 61 62 63 63 63 63 63 63 62 61 61 61 62 62 60 61 61 61 60 60
62 62 62 62 62 62 63 63 63 63 62 62 62 62 62 62 62 62 61 63 61 61 61 61 62 62 63 62 62 62 62 62 62 61 61 60 61 61 60 60 60 60
62 62 62 62 62 62 62 62 62 62 62 62 61 61 62 61 61 61 61 61 61 60 60 61 61 61 61 61 62 60 60 60 60 61 61 60 60 61 60 61 60 60
62 62 62 62 62 62 62 62 62 62 61 61 61 61 61 61 61 61 61 60 60 60 60 60 60 60 61 60 60 60 60 60 59 61 61 60 59 59 61 61 60 60
61 61 61 61 61 62 62 61 61 61 61 61 60 60 60 60 60 60 60 60 60 60 60 60 60 59 60 60 60 59 59 60 59 60 61 59 59 59 61 60 61 61
61 61 61 61 61 61 61 61 61 60 60 60 60 60 60 61 61 60 60 60 60 60 59 60 60 60 59 60 60 58 58 59 59 60 60 58 59 59 59 60 60 60
60 60 60 60 61 61 61 61 61 60 60 60 60 59 60 61 60 60 60 61 60 59 59 59 60 59 59 60 59 59 59 59 59 59 59 58 59 59 60 60 59 59
59 59 60 60 60 60 60 60 60 60 60 60 60 60 60 60 61 60 60 61 60 59 59 59 59 58 58 59 60 59 59 59 58 59 59 59 60 59 59 60 60 59
58 59 59 59 59 59 59 60 60 60 60 60 59 60 60 60 60 60 60 60 60 59 59 59 59 59 59 58 58 58 59 58 58 58 58 59 59 59 60 60 60 60
57 58 58 58 59 59 59 59 59 60 60 60 60 60 59 60 60 60 61 61 60 60 60 59 59 59 59 59 58 57 57 57 57 57 57 57 58 59 59 59 60 60
57 57 57 58 58 59 59 59 59 59 60 59 60 60 59 58 59 59 59 60 59 59 59 58 58 58 58 57 57 57 57 56 56 56 56 56 57 57 57 58 59 60
56 56 57 57 58 58 59 59 59 59 59 59 60 60 60 59 59 58 56 57 56 56 56 57 57 56 56 55 56 56 56 56 56 56 56 55 55 56 57 57 57 58
56 56 56 57 58 58 58 58 59 58 59 59 59 58 59 59 59 58 57 55 54 54 54 55 55 54 54 55 56 55 56 56 57 57 57 56 56 56 57 58 58 57
57 56 57 58 58 58 58 58 58 58 58 58 58 57 57 57 57 57 56 55 54 53 52 52 51 50 49 47 51 57 57 57 57 57 58 58 57 57 57 58 58 58
57 57 57 58 57 56 57 57 58 58 57 57 56 56 56 56 56 55 54 53 53 52 51 50 48 49 44 41 44 50 57 57 57 57 58 58 58 58 57 57 57 58
55 56 56 57 56 56 56 56 56 56 55 55 54 55 55 55 54 52 52 51 51 50 49 49 48 44 43 43 45 47 52 57 58 58 57 57 58 57 57 56 56 56
55 55 55 55 56 56 55 56 55 55 54 54 53 53 54 53 52 51 50 50 50 50 49 49 48 42 43 44 45 46 48 54 58 58 57 57 56 56 56 55 55 54
54 54 54 54 55 55 55 55 54 52 52 52 52 51 51 50 50 50 50 49 49 49 48 47 47 43 43 44 45 46 47 52 58 57 56 56 55 55 55 55 54 54
54 54 54 54 54 54 54 53 52 51 50 50 50 49 49 49 49 49 49 49 49 49 48 47 46 41 42 44 45 46 47 50 57 56 55 54 54 54 54 54 53 53
53 53 53 53 53 53 52 51 50 49 49 49 48 47 48 49 49 49 48 48 48 48 48 47 45 40 40 41 43 45 48 56 56 55 53 52 52 53 52 52 52 52
51 52 53 52 52 51 50 49 48 47 47 48 47 46 46 46 46 47 48 48 47 47 47 46 45 42 40 41 42 44 50 55 54 52 51 50 49 50 50 52 52 51
50 51 52 52 51 50 49 48 48 47 46 47 45 45 44 45 45 45 46 46 46 46 46 45 44 42 41 42 44 44 48 53 52 51 49 48 48 48 48 48 49 51
50 50 50 51 50 49 49 48 47 46 46 46 45 45 45 45 45 44 44 44 45 45 47 44 43 43 40 41 43 45 50 51 50 49 48 47 47 46 47 47 46 45
48 49 49 50 49 49 49 48 47 47 46 45 45 45 44 44 44 43 42 42 43 43 43 43 43 42 41 40 41 43 45 51 50 49 48 48 49 49 48 47 46 46

ECMWFNIL_sfc_temp_093.txt.gz
Temp
67 67 64 64 65 65 65 64 64 64 66 68 68 67 66 67 67 67 66 65 66 66 66 65 66 66 68 69 69 68 69 69 69 70 71 70 70 70 70 70 68 70
67 67 65 65 65 65 65 65 64 65 66 67 67 68 67 68 68 68 66 67 67 67 67 67 68 69 69 69 68 67 67 68 69 69 69 68 67 68 68 69 68 69
66 66 67 65 63 63 64 65 64 64 65 67 69 69 66 66 68 68 68 68 68 68 69 69 69 70 70 70 69 69 70 69 69 70 70 70 70 69 70 69 69 67
67 67 68 67 65 64 64 64 64 64 65 66 67 68 66 66 67 67 68 68 69 69 69 69 70 71 71 70 68 67 67 67 69 70 70 70 69 71 71 71 70 68
67 67 67 67 67 66 64 63 63 63 64 65 67 67 65 66 66 66 66 67 69 70 70 70 70 69 69 68 68 66 66 67 68 70 71 71 72 72 72 71 71 71
67 67 68 67 67 67 65 64 63 63 63 64 65 67 66 65 68 67 68 68 69 70 69 70 69 69 69 68 65 66 68 70 70 71 72 72 72 72 73 72 71 71
66 66 66 67 67 67 66 65 63 62 63 63 65 65 67 67 69 71 71 69 69 69 70 70 69 68 68 66 66 67 70 72 72 72 73 73 72 70 73 73 73 72
66 66 66 65 65 65 66 65 63 62 63 64 65 68 69 70 71 71 72 71 71 71 72 72 70 71 70 69 70 69 70 71 72 72 73 72 71 72 72 73 72 73
63 63 62 64 65 65 65 64 63 63 64 64 66 67 68 69 70 70 70 72 72 71 73 73 73 72 71 71 71 71 72 71 72 72 72 71 71 71 72 73 72 72
62 62 63 64 65 66 66 65 64 64 64 64 66 66 68 69 69 69 68 70 71 72 72 72 72 72 72 73 73 73 73 72 72 72 73 72 72 73 73 72 72 71
61 61 62 63 64 64 65 65 64 65 66 67 66 66 66 65 64 65 66 67 69 72 73 73 73 72 72 72 72 73 74 73 73 73 72 73 73 73 71 73 72 72
60 60 61 62 63 64 65 65 65 65 66 66 67 67 66 65 63 63 65 66 69 73 73 74 73 73 73 73 73 72 72 72 72 72 72 72 72 72 72 73 72 73
60 60 61 62 62 64 65 65 65 65 65 66 67 67 67 65 64 64 65 67 69 71 73 73 73 73 73 72 73 73 72 72 70 70 70 70 71 72 72 72 73 73
59 60 61 62 64 66 65 65 65 65 66 67 67 67 67 68 67 66 66 68 68 68 69 70 71 71 72 72 73 72 72 71 71 70 70 69 68 70 70 71 71 72
59 61 61 62 63 63 64 64 65 65 65 67 67 67 66 66 63 64 66 68 68 67 67 67 69 69 71 71 71 71 72 71 71 70 70 69 68 69 69 69 69 68
59 60 62 62 61 61 62 63 64 64 64 65 66 67 67 64 63 64 67 68 68 67 66 65 65 64 56 54 62 71 71 70 69 70 70 69 69 68 68 68 67 67
58 59 61 61 61 60 60 61 60 61 61 61 61 62 63 63 63 63 63 66 67 67 66 64 62 56 44 42 47 55 68 69 69 69 69 69 69 69 67 66 67 68
58 59 59 60 60 59 59 58 58 58 58 58 59 59 59 60 58 58 60 62 64 65 63 61 59 46 41 42 46 50 58 69 69 69 69 70 70 69 67 66 66 66
58 59 59 58 58 58 58 57 56 56 56 56 56 56 56 55 55 57 59 61 63 62 61 60 57 42 42 43 45 47 51 62 71 70 69 69 69 67 66 65 64 64
57 57 58 57 56 55 55 55 54 53 53 54 53 53 53 53 54 54 57 60 61 61 59 58 55 44 42 44 45 46 49 58 70 69 69 69 68 67 66 66 65 65
57 57 55 55 54 53 52 52 52 52 51 50 50 50 50 50 50 50 51 53 56 60 59 56 51 41 41 42 43 46 49 56 68 67 67 66 66 66 66 65 66 65
55 56 54 54 53 52 51 49 49 49 49 50 49 48 49 50 50 50 51 51 52 53 55 54 52 40 41 41 43 45 50 66 66 66 64 64 63 64 64 65 65 64
54 55 54 53 52 51 50 49 48 47 48 48 47 47 47 47 47 48 49 50 51 51 52 51 51 43 41 42 43 46 56 65 63 64 63 62 61 61 61 60 60 61
54 55 54 52 51 49 49 50 50 48 47 48 47 46 45 46 46 45 46 47 47 47 49 49 49 44 41 43 45 45 52 60 59 57 55 53 54 55 55 53 51 49
51 53 53 52 49 48 48 48 48 49 49 49 48 47 46 46 45 44 44 44 45 45 46 47 47 45 40 41 42 45 54 60 59 56 52 49 49 49 51 51 50 46
50 51 51 51 49 48 48 47 49 49 48 48 47 46 45 45 44 43 42 42 43 43 44 44 45 44 42 39 41 42 45 54 55 52 49 49 51 51 50 51 51 50

ECMWFNIL_sfc_temp_096.txt.gz
Temp
74 74 73 73 72 72 72 73 74 74 74 73 72 73 74 73 74 71 71 68 68 68 68 68 68 67 67 66 68 69 69 68 68 69 69 68 67 67 67 67 66 67
72 73 73 73 74 74 74 73 74 74 74 73 73 73 73 73 73 72 68 67 69 69 69 67 66 66 66 66 68 68 67 67 68 70 68 68 67 67 66 68 69 68
72 72 72 71 71 73 73 74 73 74 75 74 73 72 72 72 72 70 68 68 69 67 68 68 68 68 68 68 69 68 68 67 68 70 69 69 68 67 70 66 69 71
72 72 73 73 73 73 74 74 74 74 74 72 71 71 71 70 70 69 68 70 72 71 68 69 70 70 70 70 70 69 70 68 68 70 68 67 69 73 73 71 70 72
72 72 73 73 73 73 72 71 73 74 73 72 71 72 70 69 69 68 68 70 70 70 68 67 70 71 70 68 71 69 68 68 69 70 67 65 69 72 71 70 69 71
73 75 74 73 72 72 70 70 71 72 72 70 70 71 70 70 70 68 67 69 69 68 68 68 68 69 69 68 71 73 71 75 74 73 70 68 68 70 70 68 68 70
72 73 72 73 72 72 71 69 70 71 71 71 71 71 71 71 70 71 70 69 68 67 68 68 68 68 69 70 66 70 73 76 74 75 71 70 67 71 72 74 71 68
71 73 73 72 71 71 70 69 69 70 71 71 70 72 72 72 73 71 70 67 68 70 74 73 68 71 71 73 71 73 74 74 73 73 72 70 71 77 77 76 75 75
69 69 70 68 67 68 69 68 69 70 71 70 71 71 72 73 71 69 66 67 68 69 71 73 76 74 73 72 73 75 74 74 71 72 71 75 75 76 77 78 76 76
68 68 67 66 66 67 67 67 70 69 70 70 71 70 71 70 68 69 68 69 67 64 66 67 71 71 71 72 73 74 75 74 74 73 73 73 75 77 77 77 76 75
65 66 66 66 66 66 68 69 70 70 70 70 70 70 71 71 71 72 71 71 68 68 66 68 70 68 69 72 70 73 76 77 77 77 77 77 77 77 76 77 76 76
64 65 66 66 66 66 66 68 70 71 70 69 71 71 71 70 71 72 72 73 73 69 67 69 69 70 73 74 78 77 78 77 78 78 78 78 76 77 77 78 77 77
63 64 65 66 66 65 66 67 68 69 70 70 71 71 71 72 72 72 72 73 73 71 68 68 67 70 74 77 77 78 77 77 77 77 77 77 77 77 78 78 78 78
63 65 66 66 66 67 68 67 66 68 69 70 70 69 72 73 73 73 73 73 72 71 68 68 68 74 79 78 79 78 77 77 76 76 76 76 76 77 77 77 77 78
64 65 66 66 66 67 68 67 66 65 66 66 66 66 65 69 72 72 71 70 70 68 69 70 73 75 77 77 79 77 78 76 76 76 76 75 75 75 76 77 77 77
65 65 66 66 66 66 67 66 66 65 65 66 65 65 65 65 65 65 67 67 67 65 68 70 72 70 56 46 53 76 77 77 76 76 76 76 75 75 75 76 75 74
64 64 65 66 66 66 65 66 65 65 64 63 62 63 63 64 63 63 64 66 67 65 67 69 68 61 43 43 46 54 74 75 75 75 76 76 76 75 74 73 74 74
63 63 62 61 63 64 64 65 63 63 62 61 61 60 60 59 60 61 62 63 63 64 65 67 64 46 42 44 46 50 60 75 76 76 76 76 76 76 75 74 73 73
63 61 59 58 59 60 61 61 60 59 58 58 58 58 58 57 57 58 59 59 61 62 64 64 61 43 42 43 46 48 52 64 78 76 76 76 76 76 76 74 73 73
62 61 58 57 57 58 59 58 56 53 53 54 55 54 54 53 53 54 55 57 59 61 60 59 54 44 41 42 45 47 48 54 79 75 75 76 75 74 74 73 73 73
61 59 56 55 56 57 57 56 54 53 52 51 52 51 51 50 51 52 52 54 56 58 58 55 50 41 41 41 43 46 48 58 75 74 74 74 73 72 72 71 73 72
60 59 56 55 55 56 55 54 53 53 52 51 49 49 50 50 50 51 51 52 53 55 55 55 52 40 41 42 42 46 52 72 72 72 71 71 70 70 70 70 69 71
60 58 56 54 54 54 55 54 53 53 52 52 50 49 48 48 48 48 49 49 50 52 52 52 51 43 40 43 45 47 61 72 71 70 68 65 63 62 60 57 56 60
59 59 58 55 53 53 53 54 54 54 53 53 52 49 48 48 48 47 47 47 47 47 49 50 50 44 40 40 42 45 57 68 68 66 63 61 60 59 57 52 50 48
59 58 58 57 54 53 53 54 54 54 54 54 53 51 48 48 48 48 47 46 46 46 47 48 48 45 40 40 41 45 57 64 63 61 57 56 55 54 57 56 52 47
58 58 57 56 55 54 53 53 54 55 54 54 52 51 49 48 47 47 47 46 46 46 45 45 46 45 42 39 41 42 46 57 58 57 54 53 54 54 54 54 53 51

ECMWFNIL_sfc_temp_099.txt.gz
Temp
77 76 76 76 77 76 75 75 74 73 74 74 73 74 78 78 78 77 76 75 74 73 72 72 71 70 69 68 68 68 68 69 67 69 69 67 67 67 68 68 69 68
75 76 75 75 75 76 76 76 74 73 72 70 68 70 77 78 78 77 76 75 74 72 73 72 71 71 70 68 67 66 66 67 67 68 66 67 66 67 66 69 70 68
75 75 75 75 74 75 75 75 74 73 71 70 69 68 70 76 76 77 76 75 74 73 72 71 71 71 70 69 68 66 66 66 66 67 66 70 71 69 70 70 70 69
74 75 76 76 75 75 75 74 73 73 71 70 69 69 69 72 75 75 75 74 73 72 71 70 70 70 70 70 68 66 66 66 66 66 69 70 69 70 69 70 69 69
72 73 75 76 76 76 76 74 73 72 71 68 68 68 69 70 74 74 74 74 73 73 72 71 69 68 69 69 68 65 65 65 66 67 70 69 70 69 69 69 69 68
72 74 75 75 75 73 73 73 74 73 71 67 66 67 68 70 74 73 73 73 70 71 71 70 71 68 66 65 66 65 65 65 66 69 67 69 69 70 71 70 70 69
70 71 72 74 74 74 71 72 70 67 68 68 67 65 70 73 73 74 74 75 70 70 71 71 70 68 67 66 65 65 66 66 66 68 68 70 71 71 72 70 71 73
69 71 72 74 73 72 71 69 68 65 64 66 66 70 67 68 73 73 74 74 73 72 73 72 72 71 68 67 66 65 66 66 68 66 67 70 69 72 72 72 72 72
69 69 70 71 71 71 70 69 68 67 66 67 68 67 73 71 69 71 72 74 73 72 73 71 70 70 68 66 65 65 65 65 66 66 66 68 70 71 73 73 72 72
68 68 69 70 70 70 69 69 67 66 66 66 66 66 69 71 70 67 69 73 72 72 72 70 68 67 67 67 66 65 64 65 65 65 65 67 70 72 71 71 71 71
66 68 69 69 69 69 69 69 68 66 65 65 67 67 66 67 69 70 72 72 72 72 72 71 69 67 65 65 65 65 66 66 66 67 66 69 71 72 70 71 71 72
65 67 67 67 68 69 68 68 69 67 65 65 65 66 67 66 67 68 67 74 74 73 73 72 72 70 68 65 66 66 65 66 65 66 67 72 70 67 68 70 71 74
66 67 67 67 67 68 68 67 68 67 66 64 66 66 65 66 67 66 71 73 73 71 71 72 70 71 70 69 69 68 66 68 68 68 71 73 73 68 70 68 70 73
66 67 67 68 68 69 68 68 69 69 68 65 65 65 65 66 65 67 66 67 67 67 68 68 67 67 68 70 69 67 66 68 71 73 75 74 71 68 68 66 69 72
66 66 66 66 67 67 66 67 68 67 67 68 66 65 65 65 66 66 65 64 66 66 67 67 67 66 64 62 68 67 67 70 72 75 76 75 75 75 75 76 73 70
67 66 65 65 65 64 63 64 65 66 66 67 66 65 65 66 66 66 65 65 66 67 66 66 65 62 52 45 49 61 67 72 75 75 75 76 74 73 73 74 72 71
65 64 64 63 63 63 63 62 63 63 64 64 63 63 63 64 63 63 63 64 65 66 67 66 60 53 42 41 43 44 61 74 75 75 77 76 75 72 74 73 69 72
64 63 62 62 62 62 62 62 61 61 60 59 59 60 60 61 60 60 61 62 62 63 61 60 57 46 40 42 42 44 47 65 74 76 75 75 75 77 74 74 73 73
63 62 61 61 61 61 61 61 60 58 57 56 56 56 57 56 57 57 58 59 59 58 57 56 54 43 41 42 43 43 42 56 76 76 76 76 77 77 77 76 74 73
63 62 60 60 61 61 61 60 59 57 56 55 55 54 53 52 52 54 55 55 56 56 55 53 50 44 40 41 44 43 43 50 75 75 76 78 77 76 76 74 74 73
63 62 61 61 61 61 60 59 57 57 55 54 53 52 52 51 50 50 51 52 52 53 52 51 48 41 40 41 44 45 45 53 73 65 64 65 65 65 65 64 70 73
63 62 61 61 61 60 59 58 57 55 54 54 52 51 52 52 51 51 49 49 50 50 49 48 47 41 40 40 43 48 52 67 64 63 62 63 64 64 63 62 61 64
63 62 61 60 60 59 58 57 56 55 55 55 53 51 49 49 50 51 51 50 49 48 48 47 47 43 39 40 42 45 57 65 64 63 61 60 62 62 61 55 55 58
63 63 61 60 60 59 58 57 57 56 55 55 53 51 49 49 50 50 51 50 49 48 48 48 47 44 40 40 42 42 54 64 62 59 57 58 58 59 58 55 51 46
62 62 62 61 60 58 58 57 56 55 55 55 54 53 51 51 51 50 49 49 49 48 47 47 47 45 40 39 40 41 52 61 58 56 55 53 54 54 55 55 53 48
61 60 60 61 60 57 56 55 55 54 54 53 53 54 53 52 50 50 49 48 48 48 47 46 45 47 43 39 40 41 43 56 57 55 51 51 51 51 51 51 51 51

ECMWFNIL_sfc_temp_102.txt.gz
Temp
72 73 72 72 72 72 72 72 72 71 71 71 68 67 68 68 67 66 66 66 67 67 68 68 69 69 69 68 68 67 66 66 65 65 65 64 64 64 64 64 64 65
71 72 72 72 72 72 72 72 71 71 70 69 68 67 69 68 67 66 65 66 66 66 66 65 68 68 67 67 67 65 65 65 64 65 64 64 63 64 64 64 64 65
70 70 71 71 71 71 72 72 71 70 68 68 68 68 68 68 67 67 66 65 65 65 66 67 67 66 66 67 66 66 65 65 64 65 65 64 64 64 64 64 64 65
69 70 70 71 71 71 71 70 69 69 68 66 66 67 68 68 68 67 66 66 65 66 65 66 66 66 67 66 66 65 65 64 65 65 64 63 63 64 63 64 64 64
69 69 70 70 71 71 71 70 69 68 67 66 66 67 66 66 66 65 65 65 66 66 64 64 67 65 65 66 66 64 64 64 64 64 62 62 63 64 64 64 64 64
69 70 71 70 70 70 70 70 69 68 68 66 65 66 65 65 65 65 66 65 65 64 65 65 65 66 66 66 65 64 64 63 63 64 63 62 63 64 66 65 64 64
68 68 69 70 70 70 69 69 69 68 68 66 66 65 65 64 64 65 66 64 64 66 65 65 64 65 66 66 65 64 63 64 64 63 63 63 63 64 65 65 64 65
67 68 69 69 68 69 68 68 68 67 67 67 65 66 66 65 65 65 64 65 65 65 65 65 65 65 66 65 64 63 64 65 64 63 64 63 63 63 64 65 65 65
66 67 68 68 68 68 68 67 67 67 67 66 65 65 66 65 65 65 65 65 65 64 62 64 64 65 65 65 64 64 65 64 64 64 64 63 63 63 63 64 64 64
66 67 66 67 67 68 67 67 67 66 67 65 65 64 64 64 65 65 65 64 64 65 65 65 64 64 64 65 65 65 64 64 64 63 64 64 65 64 64 64 62 63
65 65 65 65 66 66 66 67 67 67 66 65 64 64 64 64 64 64 64 64 64 65 64 64 65 64 65 65 65 65 65 65 65 64 64 65 63 64 63 63 64 65
64 64 63 63 64 64 65 66 66 66 66 65 64 64 64 64 64 64 64 64 64 65 65 64 64 65 65 65 66 66 66 66 65 65 65 65 65 66 66 67 67 67
63 63 63 63 63 63 64 65 65 65 66 65 64 64 64 63 64 64 63 64 64 63 63 64 63 62 62 64 66 66 65 65 65 65 65 64 65 65 66 67 66 65
62 63 63 63 63 63 63 63 63 63 63 64 64 63 62 63 63 63 63 62 62 63 62 61 58 56 55 56 61 65 64 64 65 65 65 65 65 66 67 65 64 65
62 63 63 63 63 62 62 61 61 60 61 61 62 62 62 62 63 63 63 63 63 61 58 57 55 53 50 50 52 57 63 64 65 66 67 66 66 67 66 65 65 65
62 62 62 62 61 61 60 60 59 59 58 58 58 59 60 60 60 60 60 58 57 57 56 55 53 51 47 44 46 50 55 63 65 66 68 67 63 62 64 64 64 62
62 61 62 61 60 60 60 59 58 57 57 56 56 56 56 57 57 58 57 56 55 54 53 52 50 47 43 42 43 44 52 61 67 67 66 63 63 62 62 62 62 62
61 61 61 60 60 59 59 58 57 56 55 55 55 54 54 54 54 54 55 55 54 53 51 50 48 44 41 43 43 44 47 62 66 65 65 64 63 63 62 62 62 61
61 61 61 60 60 59 58 57 56 55 54 53 53 54 54 53 52 52 52 52 52 51 49 48 46 42 41 43 45 49 51 59 63 63 62 61 61 62 63 62 62 62
61 61 60 60 59 59 58 57 55 54 53 53 52 53 52 52 51 50 50 50 50 50 49 47 44 42 41 43 44 46 49 54 62 61 60 59 57 57 57 58 61 61
60 60 59 59 59 58 57 56 54 54 53 52 51 50 50 50 50 49 49 49 49 50 49 47 44 41 41 42 43 45 48 52 60 59 59 57 55 54 53 53 56 62
60 60 59 59 58 57 56 55 54 53 52 52 51 50 51 51 50 50 49 48 48 48 48 46 45 40 40 41 42 43 50 58 58 57 56 56 55 53 52 51 51 54
60 59 58 57 57 55 54 54 53 53 54 54 52 51 49 49 49 49 49 48 47 47 47 46 45 41 40 40 41 42 51 57 57 55 54 53 53 53 51 50 49 49
59 59 57 56 55 54 54 54 54 54 54 55 53 52 50 50 51 50 49 49 47 46 47 46 45 43 40 40 41 41 49 57 55 54 53 52 51 51 50 49 49 47
58 58 57 56 55 54 54 53 54 54 55 55 55 54 52 52 51 50 49 49 48 47 47 46 45 44 40 40 40 40 48 56 54 52 50 50 50 49 49 48 48 46
58 57 57 56 55 55 54 53 54 54 54 54 54 55 53 52 51 50 48 48 49 48 47 46 45 45 42 40 40 40 42 51 53 52 49 48 48 48 47 46 46 45

ECMWFNIL_sfc_temp_105.txt.gz
Temp
65 65 64 64 64 65 65 65 65 64 64 64 63 63 63 64 65 64 64 63 63 63 63 64 63 63 63 64 64 64 64 63 64 64 63 63 63 63 63 63 63 63
64 64 64 64 64 65 65 64 64 63 64 63 63 63 63 64 64 64 64 64 63 63 63 63 63 64 65 64 63 63 64 64 64 65 63 63 63 63 63 63 63 64
63 63 63 63 63 64 65 65 64 64 63 63 63 63 63 64 63 64 64 64 63 63 63 63 63 63 63 63 63 63 63 64 64 64 64 64 63 62 63 63 62 63
64 64 63 64 63 64 64 64 63 64 63 63 63 63 64 64 64 63 63 64 62 63 63 63 62 62 63 63 63 63 63 63 63 63 63 62 62 63 62 63 62 63
64 64 63 63 63 64 63 63 63 63 63 63 63 63 63 63 63 62 62 62 62 62 62 62 62 62 62 62 63 63 63 62 63 63 62 62 62 62 62 63 62 62
62 62 63 63 64 63 63 63 63 63 63 63 62 63 63 63 62 62 63 63 63 62 62 62 62 62 62 62 62 62 62 62 62 62 62 62 62 62 63 62 63 62
61 62 63 64 64 64 64 63 63 63 63 63 63 62 62 62 62 62 63 63 63 62 63 63 61 61 62 62 62 62 61 61 62 62 62 61 62 62 63 63 62 63
62 64 64 64 64 64 64 63 63 63 63 63 62 62 62 62 63 63 63 63 63 62 61 62 62 63 62 61 61 61 61 62 61 61 62 61 61 61 62 64 63 63
63 63 63 62 62 62 63 64 63 63 64 62 62 62 63 63 63 63 63 63 62 61 61 61 61 61 61 61 61 61 61 61 61 61 61 60 60 61 63 63 62 62
62 62 61 60 60 61 61 62 63 63 63 62 62 62 62 63 63 63 62 62 62 63 62 62 62 61 62 62 62 62 62 62 61 61 61 61 62 62 62 62 62 61
59 60 60 60 60 60 60 61 61 61 61 62 62 62 62 62 62 62 62 61 60 61 60 59 59 60 62 62 62 62 62 62 62 61 61 61 61 62 63 62 61 61
60 60 60 60 60 59 59 59 59 59 59 60 60 60 61 61 62 61 60 59 58 57 57 56 55 55 56 59 62 62 62 62 61 62 62 62 62 62 62 62 62 62
59 60 59 59 59 59 59 58 58 58 58 57 58 58 59 59 58 58 58 58 57 56 55 54 53 53 52 54 57 61 61 62 62 62 62 62 62 62 61 62 62 62
59 59 59 59 59 58 58 57 57 57 57 57 57 56 56 57 57 56 56 56 55 54 54 52 51 51 49 51 53 56 58 60 61 62 62 62 61 61 62 62 62 62
59 59 59 59 58 57 56 56 56 56 56 56 55 55 55 55 56 56 54 53 53 52 52 51 49 49 48 48 49 56 56 59 62 62 62 62 62 62 62 62 61 60
59 59 59 58 57 56 55 55 55 54 55 55 54 54 54 54 54 54 53 52 51 51 50 49 48 48 48 46 47 53 59 62 62 61 62 61 60 60 60 60 59 58
59 58 58 57 56 56 55 54 54 53 53 53 53 53 52 52 52 51 52 51 50 49 48 47 47 46 43 43 44 51 60 60 60 59 60 60 60 60 59 59 59 60
58 57 57 56 55 55 54 54 53 52 52 52 52 51 51 51 50 50 50 51 50 49 47 46 45 43 41 43 44 47 53 58 58 57 56 55 56 58 60 60 59 59
58 57 56 55 55 54 54 53 52 51 51 50 50 51 51 49 48 48 48 49 49 48 47 45 44 42 41 43 44 45 47 54 55 55 53 53 54 55 56 58 58 57
57 56 55 54 54 54 54 53 52 51 51 50 50 50 49 48 48 46 46 46 47 47 46 45 43 42 41 43 44 45 46 51 55 54 52 51 51 51 52 53 54 54
55 54 54 53 54 54 53 53 52 51 51 50 50 49 48 47 47 46 46 45 45 46 45 44 43 41 41 42 43 45 46 49 54 53 52 51 50 50 50 49 50 52
54 53 53 53 53 53 52 52 52 51 50 50 49 48 48 48 47 46 45 45 45 45 45 44 43 40 40 41 42 44 48 53 52 51 50 49 49 49 48 48 48 49
53 52 51 51 51 51 51 51 52 51 51 51 48 47 45 45 45 45 46 45 45 45 45 45 44 41 40 40 41 44 49 52 51 50 49 48 47 48 47 47 47 48
51 51 50 49 49 49 49 50 51 52 51 51 49 47 46 45 45 45 45 45 45 45 45 44 44 42 40 40 41 42 49 51 50 49 47 47 47 47 47 46 47 47
51 50 49 49 48 48 48 48 48 48 49 50 49 48 47 46 46 44 45 45 45 45 46 44 44 44 41 40 41 41 48 51 50 48 46 45 45 45 46 45 46 46
51 50 49 48 47 46 46 46 46 46 46 46 46 46 46 46 46 45 45 45 46 45 45 43 43 43 42 40 41 41 43 49 49 47 45 44 45 45 45 45 45 45

ECMWFNIL_sfc_temp_108.txt.gz
Temp
61 60 60 60 61 62 61 61 61 61 61 61 61 61 61 62 62 62 62 62 62 63 63 63 63 63 64 64 63 63 63 63 63 63 63 63 63 63 62 62 62 62
60 61 60 60 61 61 62 61 61 61 61 61 61 61 62 62 62 62 62 62 63 63 64 63 63 63 63 63 63 62 63 63 63 64 62 62 62 62 62 63 62 62
59 59 60 60 60 61 62 62 61 61 61 61 61 61 61 63 63 63 63 63 63 63 63 63 63 63 63 63 62 62 62 62 62 64 63 63 62 62 62 63 62 63
59 59 60 61 62 62 63 62 62 61 61 61 61 62 63 63 63 63 63 64 63 62 62 62 62 63 63 63 62 61 62 62 62 63 63 62 62 62 62 62 62 62
60 60 61 62 63 64 63 62 62 62 62 62 62 63 63 63 63 62 62 62 62 62 62 62 63 62 62 62 62 62 62 62 62 62 62 61 62 62 62 62 62 62
63 63 63 63 63 63 63 62 63 63 62 61 62 63 62 63 63 62 63 62 62 62 62 62 63 62 62 62 62 61 61 61 61 62 61 61 61 61 62 62 61 61
61 61 61 61 61 61 61 62 62 62 62 61 62 62 63 63 62 62 62 62 63 62 62 62 61 62 62 62 61 61 60 60 61 61 61 61 61 61 62 62 62 62
60 61 60 58 57 58 59 60 60 60 61 61 61 62 63 62 62 61 60 61 60 60 60 60 61 62 62 61 60 60 60 60 59 59 59 60 60 60 61 62 61 62
58 58 58 57 56 56 57 59 59 59 60 59 60 60 61 61 60 59 58 58 58 57 57 57 57 59 61 61 61 60 60 59 60 60 60 59 59 59 61 61 60 60
57 57 56 56 56 57 57 58 58 58 59 58 59 58 58 58 58 58 57 57 56 56 56 56 55 55 57 60 61 61 60 60 60 60 60 61 60 60 60 60 60 60
58 58 57 56 56 57 56 57 57 57 57 57 57 57 57 56 56 56 55 55 54 54 54 54 53 53 53 55 58 60 60 60 60 60 60 60 60 61 62 61 61 61
57 57 56 56 56 56 56 56 56 56 56 56 56 55 55 56 55 55 54 53 53 53 52 52 52 52 51 52 54 57 59 60 59 59 59 60 60 60 61 61 60 60
56 56 56 55 55 55 55 55 55 55 55 54 55 54 54 54 54 54 54 53 52 52 51 51 51 51 51 51 53 56 58 60 60 60 59 59 59 59 60 61 61 61
56 56 56 55 55 55 54 54 54 54 54 54 54 53 52 52 52 53 53 53 51 51 51 50 50 50 49 50 52 57 58 60 60 60 60 60 60 60 60 60 60 59
56 56 56 55 54 53 53 53 53 53 53 53 52 52 52 52 52 52 52 51 51 50 49 49 48 48 48 49 50 56 58 58 59 59 60 60 60 59 59 59 58 57
55 55 55 54 53 52 52 52 52 52 52 51 50 50 50 50 50 51 51 50 49 49 48 48 47 48 48 46 48 53 56 57 57 57 57 58 58 58 58 58 58 57
55 54 54 53 53 52 52 51 51 50 49 49 48 48 48 48 48 48 48 49 48 48 47 47 47 47 44 43 44 46 54 55 55 55 55 55 55 56 55 55 56 56
54 54 53 53 53 52 51 50 49 49 48 48 48 47 47 48 47 46 47 47 48 47 46 45 46 44 43 44 44 44 48 54 54 53 52 52 52 52 52 53 54 54
54 53 53 52 52 51 50 49 48 47 47 47 46 47 46 46 46 46 46 46 47 46 46 45 44 42 42 44 44 44 44 50 52 51 50 49 49 49 49 50 52 53
53 53 52 52 52 52 50 48 47 46 46 46 46 45 45 45 45 46 46 46 46 46 46 45 43 42 41 43 44 44 44 47 51 50 49 48 48 47 47 48 49 50
52 52 52 52 52 52 51 49 47 46 45 45 44 44 43 43 43 44 45 45 45 46 46 44 43 41 41 42 43 44 44 46 50 49 48 48 48 47 47 47 46 47
51 51 51 51 51 50 50 49 48 46 44 45 44 43 44 44 44 44 43 43 44 45 45 43 43 40 41 41 42 43 45 49 48 47 47 47 47 47 47 47 47 46
50 50 49 49 48 48 47 47 46 45 45 45 43 43 42 43 43 43 44 43 43 44 43 43 42 41 40 41 42 43 46 48 47 47 46 46 46 47 47 48 48 47
46 46 45 45 45 45 45 45 45 45 45 45 43 42 42 42 43 44 44 44 43 43 44 42 42 42 40 40 41 42 46 48 47 46 45 45 45 46 47 47 48 48
45 45 44 44 43 43 43 43 43 44 43 43 43 43 42 43 43 43 43 43 43 43 45 43 42 42 41 40 40 41 46 48 47 46 45 44 44 44 46 46 47 47
45 45 45 44 43 43 43 43 43 43 42 42 42 42 43 42 43 42 41 41 41 41 42 42 42 42 41 40 40 40 42 46 46 46 44 44 45 45 44 44 45 45

ECMWFNIL_sfc_temp_111.txt.gz
Temp
57 57 58 58 58 58 58 59 60 60 60 61 61 61 61 62 63 63 63 63 63 63 63 63 64 63 63 63 63 63 62 62 62 62 62 63 62 62 62 62 62 62
57 57 58 58 59 59 60 61 61 61 61 61 61 62 62 62 63 63 63 63 63 63 63 63 63 63 63 62 62 62 62 62 62 64 63 62 62 62 62 63 62 62
57 59 61 61 61 60 60 61 62 62 61 61 62 62 62 63 63 63 63 63 63 63 63 63 63 63 63 63 63 62 62 62 62 63 63 62 63 62 62 62 62 62
61 61 62 62 62 62 61 61 62 62 62 61 61 62 63 63 63 63 62 63 62 62 62 62 62 63 63 63 62 62 62 62 62 62 61 62 62 62 62 62 62 62
60 60 61 60 61 61 61 61 60 60 60 60 61 62 62 62 61 60 60 60 61 60 60 61 61 62 62 62 62 61 61 61 61 61 61 61 62 62 62 62 62 62
60 60 59 59 60 59 59 59 59 59 60 59 59 60 61 60 59 58 58 58 58 58 58 59 59 60 61 62 61 61 61 61 61 61 61 61 61 61 62 62 62 61
58 58 58 58 58 58 58 59 59 59 59 59 59 58 58 58 57 58 58 57 57 57 57 57 56 57 58 60 60 60 60 59 59 59 60 60 60 61 62 62 61 61
57 57 56 56 55 56 57 57 58 58 58 59 57 57 57 56 56 56 56 56 56 56 55 55 54 55 55 56 59 60 60 60 59 59 59 59 59 60 60 61 61 61
55 55 55 55 55 56 56 56 56 57 57 57 56 56 57 56 56 55 55 55 54 54 54 53 53 53 54 54 55 57 59 60 60 59 59 58 58 59 59 60 60 59
55 55 55 56 55 56 55 55 56 56 56 55 55 56 55 55 56 55 54 53 53 53 53 53 53 53 53 53 54 55 57 59 59 59 59 59 59 59 59 59 59 59
55 55 55 54 54 55 54 55 55 55 55 55 54 54 54 54 55 55 53 53 52 52 52 52 52 52 52 53 54 56 58 59 59 60 60 60 60 60 61 60 59 59
54 54 54 54 54 54 54 54 54 54 53 53 53 52 52 53 53 53 53 52 52 52 52 51 51 51 51 52 55 58 59 60 60 60 60 60 60 59 59 59 59 59
54 53 53 53 53 53 53 53 53 53 52 51 52 51 51 50 52 52 52 52 51 51 51 51 51 50 50 51 55 57 58 58 58 59 60 59 59 59 59 58 58 58
53 53 53 53 53 53 52 52 52 51 50 50 49 48 49 49 50 51 51 51 50 51 51 51 51 50 49 50 54 56 56 56 55 55 56 57 57 57 57 57 57 57
53 53 53 53 52 52 51 50 49 48 48 48 48 48 49 49 50 50 50 50 50 49 49 49 49 49 49 49 51 54 54 54 53 52 52 52 53 54 55 56 56 56
53 53 52 51 50 49 49 48 47 47 47 47 48 48 48 49 49 50 50 49 48 48 48 47 47 47 48 47 48 52 52 52 51 50 50 50 50 50 51 53 54 55
53 52 51 49 48 47 46 46 46 46 45 46 46 47 47 48 48 48 48 48 48 47 46 46 45 46 44 43 43 46 52 51 50 50 50 49 49 48 48 49 52 54
51 50 48 47 46 46 45 45 45 45 44 44 45 45 45 46 45 46 46 47 47 46 45 45 45 44 42 43 43 43 47 50 50 49 49 49 48 48 47 48 49 51
52 50 49 47 46 45 45 45 44 44 43 43 43 44 44 44 44 44 44 45 45 45 44 44 44 42 41 42 43 43 44 48 49 49 49 48 49 48 47 47 47 48
52 51 50 48 46 45 45 44 43 43 43 43 43 43 43 43 43 43 43 43 44 43 43 43 43 41 40 41 42 42 43 46 48 48 48 48 49 48 48 47 47 46
51 50 49 48 46 45 44 43 43 42 42 42 42 42 42 42 42 42 43 43 43 43 43 42 42 41 40 41 41 42 43 45 47 47 47 47 48 49 49 48 48 47
49 48 46 45 44 44 43 42 42 41 41 42 42 42 42 42 42 42 42 42 43 42 42 41 41 40 40 41 41 42 44 47 47 46 46 46 46 47 47 48 48 48
45 44 44 43 43 43 42 42 41 41 41 42 41 41 41 41 41 41 42 42 42 42 41 41 41 40 40 40 40 41 45 46 46 46 45 45 45 46 47 47 47 47
42 42 42 42 42 41 41 41 41 41 41 42 40 40 40 40 40 40 40 41 41 41 42 40 40 41 40 40 40 41 45 45 45 45 44 44 44 44 45 46 47 46
42 42 41 41 41 40 41 40 40 40 40 41 40 40 40 39 41 39 39 39 40 40 44 40 39 41 40 40 40 40 44 45 45 44 43 42 43 43 44 44 44 45
42 43 41 41 40 40 40 40 40 40 39 40 39 39 39 39 39 39 38 38 38 38 39 39 39 39 40 39 40 40 41 44 43 43 42 41 42 43 42 42 42 42

ECMWFNIL_sfc_temp_114.txt.gz
Temp
58 58 58 59 60 61 61 61 61 61 61 61 61 61 62 62 63 63 63 63 63 63 63 63 63 63 63 63 63 63 63 63 63 63 62 62 62 62 62 62 62 62
58 59 60 60 61 61 62 62 61 61 61 61 61 62 62 62 62 62 61 61 62 61 62 61 62 62 62 63 63 62 62 63 62 64 63 62 62 63 62 63 62 63
60 60 61 61 61 61 61 61 61 61 60 60 61 62 62 62 61 61 60 60 59 59 60 60 60 61 61 62 62 62 62 62 62 62 62 62 62 62 62 62 62 62
60 60 60 60 60 60 60 60 60 60 60 59 59 60 60 60 60 59 59 59 58 58 58 58 58 59 59 60 61 61 62 61 62 62 61 62 62 62 62 62 62 62
58 58 59 59 59 60 59 59 58 59 59 58 58 58 58 57 57 57 57 57 57 57 57 56 56 57 57 58 59 60 61 61 61 61 60 61 62 62 62 62 62 62
58 58 58 58 58 58 58 58 58 58 58 57 57 57 56 56 57 56 56 55 56 55 55 55 55 55 56 56 57 59 59 60 61 61 60 60 60 61 62 62 62 62
56 57 56 57 57 58 57 57 57 57 57 57 57 55 55 55 55 55 55 55 55 55 55 54 54 54 55 55 56 57 59 60 61 61 60 60 60 60 61 61 61 61
56 56 56 57 56 56 56 56 56 56 56 56 55 55 55 55 55 55 54 54 54 54 54 54 54 54 55 55 56 57 59 60 61 60 60 60 60 60 61 61 61 60
56 56 56 56 55 55 55 55 55 55 55 54 54 54 55 55 55 55 54 54 53 53 53 53 53 53 54 55 57 58 59 60 60 60 59 59 58 59 59 60 60 59
55 55 55 55 54 54 54 54 54 54 54 53 53 53 53 54 55 54 53 53 52 52 53 53 52 53 54 56 57 58 58 58 59 60 59 58 58 57 57 57 57 57
54 54 53 53 53 53 53 53 52 52 52 52 52 52 52 53 53 53 52 52 51 52 52 52 51 52 53 55 57 57 56 56 56 57 57 57 56 56 57 57 57 57
53 53 52 52 52 52 52 51 50 50 50 51 52 51 51 52 52 52 52 51 51 51 51 51 51 52 53 54 55 55 54 54 53 54 54 54 55 55 56 57 56 56
52 52 52 51 51 51 50 49 49 49 50 50 51 51 51 51 51 51 51 51 50 50 50 50 50 50 51 52 53 53 53 52 52 52 52 53 53 53 54 55 56 56
52 52 51 51 50 49 48 48 49 49 50 50 51 50 50 50 50 50 50 50 50 50 49 50 49 49 49 51 53 53 52 52 52 52 51 51 52 52 53 54 55 55
51 51 51 50 49 47 47 47 47 48 49 49 49 49 50 50 50 50 49 48 49 48 48 48 47 48 48 48 50 51 52 52 52 52 52 51 51 52 53 53 53 53
50 50 49 48 47 46 46 46 46 46 47 47 47 48 48 49 48 49 48 47 46 46 47 46 46 47 47 45 46 50 51 52 53 53 53 52 52 52 53 53 52 52
49 48 48 46 45 45 45 45 45 45 45 45 45 46 46 46 47 46 46 46 45 45 45 45 45 45 43 42 42 44 50 51 51 51 52 51 50 50 51 51 51 53
48 47 45 44 45 44 44 44 44 44 44 44 44 44 45 45 44 45 45 45 45 45 44 44 44 43 41 42 42 43 46 50 50 50 49 49 49 49 49 49 49 50
47 46 45 44 44 44 44 44 43 43 43 43 43 44 44 44 44 44 44 45 44 44 43 44 44 42 41 42 42 42 43 47 49 49 48 48 48 48 48 47 48 48
47 45 44 44 44 44 43 43 43 42 42 43 43 43 43 43 43 43 43 44 44 44 43 43 42 41 41 41 42 42 42 45 48 48 48 48 47 47 47 47 47 47
46 45 44 43 43 43 43 42 42 42 42 42 42 42 42 42 42 42 43 43 43 44 44 42 42 40 40 41 41 42 43 45 48 48 47 47 47 47 47 46 46 46
45 44 43 43 43 42 42 41 41 41 41 42 42 41 42 42 42 42 42 42 43 43 43 42 42 40 40 40 41 41 44 48 47 47 46 46 46 46 47 47 47 46
44 43 42 42 42 42 41 40 40 40 41 42 41 40 40 40 40 40 41 41 42 42 42 42 42 41 39 40 40 41 44 47 47 46 46 45 45 45 46 46 47 46
42 42 42 41 41 40 40 40 40 40 40 41 40 40 39 39 40 40 40 40 41 41 42 40 41 41 40 40 40 40 44 45 46 45 44 44 44 45 45 45 46 46
42 41 41 41 40 40 40 39 39 40 40 40 40 40 39 40 41 39 39 39 40 41 43 40 40 41 40 39 39 40 43 45 45 45 43 42 43 44 44 44 44 45
42 42 41 41 40 39 39 39 40 39 39 39 39 39 39 39 40 39 39 38 39 39 40 40 40 41 41 39 40 40 41 44 44 43 42 41 42 43 42 43 43 43

ECMWFNIL_sfc_temp_117.txt.gz
Temp
67 67 66 66 66 65 64 64 65 65 65 64 63 65 64 66 67 65 64 65 64 65 64 64 64 63 63 64 64 64 64 66 68 68 68 67 67 66 65 65 66 65
67 66 66 66 66 65 65 64 64 65 64 62 63 64 65 65 64 65 64 63 64 64 64 63 62 62 63 63 64 64 64 65 66 67 66 67 67 66 65 65 66 67
66 65 64 63 63 62 63 64 64 64 64 62 62 62 63 64 63 63 63 62 62 61 61 60 60 61 61 63 64 65 64 64 64 65 66 66 66 66 66 65 65 66
64 64 64 63 63 63 63 64 64 63 61 61 60 62 63 62 62 61 61 60 60 60 60 60 60 60 61 62 63 63 64 64 64 65 65 66 67 66 66 65 65 66
61 61 63 63 63 63 64 63 61 60 60 60 60 61 61 60 60 60 59 59 59 59 59 59 60 60 61 61 63 63 63 63 64 65 64 64 64 64 65 65 65 64
62 62 63 63 63 63 62 61 59 59 59 59 59 60 60 60 60 59 58 58 59 58 58 59 59 60 60 61 63 64 64 64 64 64 64 63 64 64 64 64 64 64
61 61 61 62 61 61 60 59 58 58 59 59 60 58 59 59 59 58 59 58 59 58 59 59 59 59 61 61 62 62 63 63 63 63 62 61 62 62 63 63 63 62
61 61 61 61 60 59 57 57 58 57 58 59 57 58 58 58 58 58 58 59 59 58 58 59 60 60 60 60 59 59 59 59 59 59 60 60 60 60 61 61 61 60
59 59 59 58 57 57 56 57 57 57 58 57 56 57 58 58 57 58 58 59 60 58 59 59 59 60 60 59 58 58 58 58 58 59 58 58 57 58 59 60 60 60
58 57 56 56 55 56 55 56 56 56 57 57 57 57 57 57 58 59 59 60 61 60 61 60 60 61 61 60 59 58 57 57 58 58 58 58 57 58 58 58 58 57
55 56 55 55 55 55 54 55 55 55 56 57 57 57 57 57 57 59 60 60 58 60 60 58 58 60 60 59 59 59 59 58 58 59 59 59 58 58 58 57 57 56
55 55 54 54 54 53 53 54 54 55 55 56 57 57 57 57 57 57 58 59 59 59 58 58 57 57 59 59 59 59 59 59 59 59 59 60 59 58 58 58 57 57
54 54 53 52 53 53 53 53 54 54 55 55 56 56 56 56 57 58 58 58 58 57 57 57 56 56 56 58 59 60 59 58 58 59 60 60 59 59 59 59 58 57
53 53 53 53 53 53 53 53 54 54 54 55 55 54 54 56 56 57 57 57 57 57 56 57 57 55 56 58 59 58 58 58 58 58 58 59 58 59 60 60 59 58
52 53 54 54 54 53 53 53 53 53 54 54 54 54 54 56 58 58 57 58 57 55 56 55 54 53 52 53 56 58 58 57 56 57 57 57 58 58 59 59 60 59
53 53 54 54 54 54 53 53 54 54 54 54 54 55 56 57 57 56 56 55 55 56 55 53 52 52 47 44 46 55 58 57 57 56 56 56 56 57 57 58 58 58
53 54 55 54 54 54 54 54 54 54 55 55 54 54 55 55 55 55 54 55 55 54 54 52 51 49 42 42 43 44 55 57 56 56 56 55 55 55 55 56 57 58
52 55 57 55 55 54 55 55 55 55 55 56 55 54 53 54 53 54 54 54 54 54 53 52 51 44 41 42 42 42 47 56 56 56 56 55 55 55 55 55 56 56
54 54 53 54 55 54 55 57 57 55 53 52 52 52 53 53 53 53 53 54 54 53 52 52 52 42 41 42 42 42 43 52 57 56 55 55 55 55 55 54 55 55
54 53 52 52 52 52 53 53 52 52 51 52 52 53 52 52 52 52 53 53 53 53 52 51 50 43 41 41 42 42 43 49 57 56 55 55 54 54 54 54 54 54
53 53 52 52 52 52 52 52 51 51 51 52 52 52 51 52 52 52 52 53 53 53 52 50 47 40 40 41 41 42 44 49 56 55 55 55 54 54 54 54 54 54
53 52 52 52 52 52 52 51 51 51 50 51 52 52 52 52 52 53 52 52 53 53 52 51 48 39 40 40 41 42 46 56 56 55 54 54 54 55 54 54 53 54
53 52 52 52 52 51 51 50 50 50 51 53 51 51 51 51 51 51 52 52 52 52 52 51 49 42 39 40 41 40 49 56 56 56 55 54 53 54 55 53 51 51
53 53 52 51 52 51 50 50 51 51 51 52 52 51 51 51 52 52 52 52 51 51 51 51 50 44 39 40 40 39 47 56 56 54 54 54 54 54 55 54 52 45
52 52 52 51 51 50 50 50 50 50 51 52 52 52 51 53 53 52 51 52 51 51 47 50 50 46 40 39 40 40 49 56 55 55 53 52 53 53 54 54 54 50
52 51 51 51 50 50 50 50 51 51 51 51 52 54 53 53 53 52 51 51 51 51 50 51 50 48 44 39 40 40 41 53 55 54 52 52 52 53 52 53 53 53